[[{"header":{"parameterUnit":"m.s-1","parameterCategory":1,"la1":30.6,"la2":28.766,"lo1":-90.7593,"lo2":-88.6598,"dy":0.0162,"dx":0.0183,"nx":116,"ny":114,"refTime":"2024-03-28T12:00:00:Z","depth":0,"parameterNumber":2,"parameterNumberName":"U-component_of_WINDS"},"data":[0.0,0.0,0.0,0.0,0.0,0.0,0.0,0.0,0.0,0.0,0.0,0.0,0.0,0.0,0.0,0.0,0.0,0.0,0.0,0.0,0.0,0.0,0.0,0.0,0.0,0.0,0.0,0.0,0.0,0.0,0.0,0.0,0.0,0.0,0.0,0.0,0.0,0.0,0.0,0.0,0.0,0.0,0.0,0.0,0.0,0.0,0.0,0.0,0.0,0.0,0.0,0.0,0.0,0.0,0.0,0.0,0.0,0.0,0.0,0.0,0.0,0.0,0.0,0.0,0.0,0.0,0.0,0.0,0.0,0.0,0.0,0.0,0.0,0.0,0.0,0.0,0.0,0.0,0.0,0.0,0.0,0.0,0.0,0.0,0.0,0.0,0.0,0.0,0.0,0.0,0.0,0.0,0.0,0.0,0.0,0.0,0.0,0.0,0.0,0.0,0.0,0.0,0.0,0.0,0.0,0.0,0.0,0.0,0.0,0.0,0.0,0.0,0.0,0.0,0.0,0.0,0.0,0.0,0.0,0.0,0.0,0.0,0.0,0.0,0.0,0.0,0.0,0.0,0.0,0.0,0.0,0.0,0.0,0.0,0.0,0.0,0.0,0.0,0.0,0.0,0.0,0.0,0.0,0.0,0.0,0.0,0.0,0.0,0.0,0.0,0.0,0.0,0.0,0.0,0.0,0.0,0.0,0.0,0.0,0.0,0.0,0.0,0.0,0.0,0.0,0.0,0.0,0.0,0.0,0.0,0.0,0.0,0.0,0.0,0.0,0.0,0.0,0.0,0.0,0.0,0.0,0.0,0.0,0.0,0.0,0.0,0.0,0.0,0.0,0.0,0.0,0.0,0.0,0.0,0.0,0.0,0.0,0.0,0.0,0.0,0.0,0.0,0.0,0.0,0.0,0.0,0.0,0.0,0.0,0.0,0.0,0.0,0.0,0.0,0.0,0.0,0.0,0.0,0.0,0.0,0.0,0.0,0.0,0.0,0.0,0.0,0.0,0.0,0.0,0.0,0.0,0.0,0.0,0.0,0.0,0.0,0.0,0.0,0.0,0.0,0.0,0.0,0.0,0.0,0.0,0.0,0.0,0.0,0.0,0.0,0.0,0.0,0.0,0.0,0.0,0.0,0.0,0.0,0.0,0.0,0.0,0.0,0.0,0.0,0.0,0.0,0.0,0.0,0.0,0.0,0.0,0.0,0.0,0.0,0.0,0.0,0.0,0.0,0.0,0.0,0.0,0.0,0.0,0.0,0.0,0.0,0.0,0.0,0.0,0.0,0.0,0.0,0.0,0.0,0.0,0.0,0.0,0.0,0.0,0.0,0.0,0.0,0.0,0.0,0.0,0.0,0.0,0.0,0.0,0.0,0.0,0.0,0.0,0.0,0.0,0.0,0.0,0.0,0.0,0.0,0.0,0.0,0.0,0.0,0.0,0.0,0.0,0.0,0.0,0.0,0.0,0.0,0.0,0.0,0.0,0.0,0.0,0.0,0.0,0.0,0.0,0.0,0.0,0.0,0.0,0.0,0.0,0.0,0.0,0.0,0.0,0.0,0.0,0.0,0.0,0.0,0.0,0.0,0.0,0.0,0.0,0.0,0.0,0.0,0.0,0.0,0.0,0.0,0.0,0.0,0.0,0.0,0.0,0.0,0.0,0.0,0.0,0.0,0.0,0.0,0.0,0.0,0.0,0.0,0.0,0.0,0.0,0.0,0.0,0.0,0.0,0.0,0.0,0.0,0.0,0.0,0.0,0.0,0.0,0.0,0.0,0.0,0.0,0.0,0.0,0.0,0.0,0.0,0.0,0.0,0.0,0.0,0.0,0.0,0.0,0.0,0.0,0.0,0.0,0.0,0.0,0.0,0.0,0.0,0.0,0.0,0.0,0.0,0.0,0.0,0.0,0.0,0.0,0.0,0.0,0.0,0.0,0.0,0.0,0.0,0.0,0.0,0.0,0.0,0.0,0.0,0.0,0.0,0.0,0.0,0.0,0.0,0.0,0.0,0.0,0.0,0.0,0.0,0.0,0.0,0.0,0.0,0.0,0.0,0.0,0.0,0.0,0.0,0.0,0.0,0.0,0.0,0.0,0.0,0.0,0.0,0.0,0.0,0.0,0.0,0.0,0.0,0.0,0.0,0.0,0.0,0.0,0.0,0.0,0.0,0.0,0.0,0.0,0.0,0.0,0.0,0.0,0.0,0.0,0.0,0.0,0.0,0.0,0.0,0.0,0.0,0.0,0.0,0.0,0.0,0.0,0.0,0.0,0.0,0.0,0.0,0.0,0.0,0.0,0.0,0.0,0.0,0.0,0.0,0.0,0.0,0.0,0.0,0.0,0.0,0.0,0.0,0.0,0.0,0.0,0.0,0.0,0.0,0.0,0.0,0.0,0.0,0.0,0.0,0.0,0.0,0.0,0.0,0.0,0.0,0.0,0.0,0.0,0.0,0.0,0.0,0.0,0.0,0.0,0.0,0.0,0.0,0.0,0.0,0.0,0.0,0.0,0.0,0.0,0.0,0.0,0.0,0.0,0.0,0.0,0.0,0.0,0.0,0.0,0.0,0.0,0.0,0.0,0.0,0.0,0.0,0.0,0.0,0.0,0.0,0.0,0.0,0.0,0.0,0.0,0.0,0.0,0.0,0.0,0.0,0.0,0.0,0.0,0.0,0.0,0.0,0.0,0.0,0.0,0.0,0.0,0.0,0.0,0.0,0.0,0.0,0.0,0.0,0.0,0.0,0.0,0.0,0.0,0.0,0.0,0.0,0.0,0.0,0.0,0.0,0.0,0.0,0.0,0.0,0.0,0.0,0.0,0.0,0.0,0.0,0.0,0.0,0.0,0.0,0.0,0.0,0.0,0.0,0.0,0.0,0.0,0.0,0.0,0.0,0.0,0.0,0.0,0.0,0.0,0.0,0.0,0.0,0.0,0.0,0.0,0.0,0.0,0.0,0.0,0.0,0.0,0.0,0.0,0.0,0.0,0.0,0.0,0.0,0.0,0.0,0.0,0.0,0.0,0.0,0.0,0.0,0.0,0.0,0.0,0.0,0.0,0.0,0.0,0.0,0.0,0.0,0.0,0.0,0.0,0.0,0.0,0.0,0.0,0.0,0.0,0.0,0.0,0.0,0.0,0.0,0.0,0.0,0.0,0.0,0.0,0.0,0.0,0.0,0.0,0.0,0.0,0.0,0.0,0.0,0.0,0.0,0.0,0.0,0.0,0.0,0.0,0.0,0.0,0.0,0.0,0.0,0.0,0.0,0.0,0.0,0.0,0.0,0.0,0.0,0.0,0.0,0.0,0.0,0.0,0.0,0.0,0.0,0.0,0.0,0.0,0.0,0.0,0.0,0.0,0.0,0.0,0.0,0.0,0.0,0.0,0.0,0.0,0.0,0.0,0.0,0.0,0.0,0.0,0.0,0.0,0.0,0.0,0.0,0.0,0.0,0.0,0.0,0.0,0.0,0.0,0.0,0.0,0.0,0.0,0.0,0.0,0.0,0.0,0.0,0.0,0.0,0.0,0.0,0.0,0.0,0.0,0.0,0.0,0.0,0.0,0.0,0.0,0.0,0.0,0.0,0.0,0.0,0.0,0.0,0.0,0.0,0.0,0.0,0.0,0.0,0.0,0.0,0.0,0.0,0.0,0.0,0.0,0.0,0.0,0.0,0.0,0.0,0.0,0.0,0.0,0.0,0.0,0.0,0.0,0.0,0.0,0.0,0.0,0.0,0.0,0.0,0.0,0.0,0.0,0.0,0.0,0.0,0.0,0.0,0.0,0.0,0.0,0.0,0.0,0.0,0.0,0.0,0.0,0.0,0.0,0.0,0.0,0.0,0.0,0.0,0.0,0.0,0.0,0.0,0.0,0.0,0.0,0.0,0.0,0.0,0.0,0.0,0.0,0.0,0.0,0.0,0.0,0.0,0.0,0.0,0.0,0.0,0.0,0.0,0.0,0.0,0.0,0.0,0.0,0.0,0.0,0.0,0.0,0.0,0.0,0.0,0.0,0.0,0.0,0.0,0.0,0.0,0.0,0.0,0.0,0.0,0.0,0.0,0.0,0.0,0.0,0.0,0.0,0.0,0.0,0.0,0.0,0.0,0.0,0.0,0.0,0.0,0.0,0.0,0.0,0.0,0.0,0.0,0.0,0.0,0.0,0.0,0.0,0.0,0.0,0.0,0.0,0.0,0.0,0.0,0.0,0.0,0.0,0.0,0.0,0.0,0.0,0.0,0.0,0.0,0.0,0.0,0.0,0.0,0.0,0.0,0.0,0.0,0.0,0.0,0.0,0.0,0.0,0.0,0.0,0.0,0.0,0.0,0.0,0.0,0.0,0.0,0.0,0.0,0.0,0.0,0.0,0.0,0.0,0.0,0.0,0.0,0.0,0.0,0.0,0.0,0.0,0.0,0.0,0.0,0.0,0.0,0.0,0.0,0.0,0.0,0.0,0.0,0.0,0.0,0.0,0.0,0.0,0.0,0.0,0.0,0.0,0.0,0.0,0.0,0.0,0.0,0.0,0.0,0.0,0.0,0.0,0.0,0.0,0.0,0.0,0.0,0.0,0.0,0.0,0.0,0.0,0.0,0.0,0.0,0.0,0.0,0.0,0.0,0.0,0.0,0.0,0.0,0.0,0.0,0.0,0.0,0.0,0.0,0.0,0.0,0.0,0.0,0.0,0.0,0.0,0.0,0.0,0.0,0.0,0.0,0.0,0.0,0.0,0.0,0.0,0.0,0.0,0.0,0.0,0.0,0.0,0.0,0.0,0.0,0.0,0.0,0.0,0.0,0.0,0.0,0.0,0.0,0.0,0.0,0.0,0.0,0.0,0.0,0.0,0.0,0.0,0.0,0.0,0.0,0.0,0.0,0.0,0.0,0.0,0.0,0.0,0.0,0.0,0.0,0.0,0.0,0.0,0.0,0.0,0.0,0.0,0.0,0.0,0.0,0.0,0.0,0.0,0.0,0.0,0.0,0.0,0.0,0.0,0.0,0.0,0.0,0.0,0.0,0.0,0.0,0.0,0.0,0.0,0.0,0.0,0.0,0.0,0.0,0.0,0.0,0.0,0.0,0.0,0.0,0.0,0.0,0.0,0.0,0.0,0.0,0.0,0.0,0.0,0.0,0.0,0.0,0.0,0.0,0.0,0.0,0.0,0.0,0.0,0.0,0.0,0.0,0.0,0.0,0.0,0.0,0.0,0.0,0.0,0.0,0.0,0.0,0.0,0.0,0.0,0.0,0.0,0.0,0.0,0.0,0.0,0.0,0.0,0.0,0.0,0.0,0.0,0.0,0.0,0.0,0.0,0.0,0.0,0.0,0.0,0.0,0.0,0.0,0.0,0.0,0.0,0.0,0.0,0.0,0.0,0.0,0.0,0.0,0.0,0.0,0.0,0.0,0.0,0.0,0.0,0.0,0.0,0.0,0.0,0.0,0.0,0.0,0.0,0.0,0.0,0.0,0.0,0.0,0.0,0.0,0.0,0.0,0.0,0.0,0.0,0.0,0.0,0.0,0.0,0.0,0.0,0.0,0.0,0.0,0.0,0.0,0.0,0.0,0.0,0.0,0.0,0.0,0.0,0.0,0.0,0.0,0.0,0.0,0.0,0.0,0.0,0.0,0.0,0.0,0.0,0.0,0.0,0.0,0.0,0.0,0.0,0.0,0.0,0.0,0.0,0.0,0.0,0.0,0.0,0.0,0.0,0.0,0.0,0.0,0.0,0.0,0.0,0.0,0.0,0.0,0.0,0.0,0.0,0.0,0.0,0.0,0.0,0.0,0.0,0.0,0.0,0.0,0.0,0.0,0.0,0.0,0.0,0.0,0.0,0.0,0.0,0.0,0.0,0.0,0.0,0.0,0.0,0.0,0.0,0.0,0.0,0.0,0.0,0.0,0.0,0.0,0.0,0.0,0.0,0.0,0.0,0.0,0.0,0.0,0.0,0.0,0.0,0.0,0.0,0.0,0.0,0.0,0.0,0.0,0.0,0.0,0.0,0.0,0.0,0.0,0.0,0.0,0.0,0.0,0.0,0.0,0.0,0.0,0.0,0.0,0.0,0.0,0.0,0.0,0.0,0.0,0.0,0.0,0.0,0.0,-2.637,0.0,0.0,0.0,0.0,0.0,0.0,0.0,0.0,0.0,0.0,0.0,0.0,0.0,0.0,0.0,0.0,0.0,0.0,0.0,0.0,0.0,0.0,0.0,0.0,-2.7897,-2.8044,-2.7236,-2.7567,-2.7787,-2.7739,0.0,0.0,0.0,0.0,0.0,-2.9574,-2.9953,-3.0944,-3.2509,-3.3191,-3.3887,-3.4557,-3.4954,-3.3443,-3.0447,0.0,0.0,0.0,0.0,0.0,0.0,0.0,0.0,0.0,0.0,0.0,0.0,0.0,0.0,0.0,0.0,0.0,0.0,0.0,0.0,0.0,0.0,0.0,0.0,0.0,0.0,0.0,0.0,0.0,0.0,0.0,0.0,0.0,0.0,0.0,0.0,0.0,0.0,0.0,0.0,0.0,0.0,0.0,0.0,0.0,0.0,0.0,0.0,0.0,0.0,0.0,0.0,0.0,0.0,0.0,0.0,0.0,0.0,0.0,0.0,0.0,0.0,0.0,0.0,0.0,0.0,0.0,0.0,0.0,0.0,0.0,-2.7493,0.0,0.0,0.0,0.0,0.0,0.0,0.0,0.0,0.0,0.0,0.0,0.0,0.0,0.0,0.0,0.0,0.0,0.0,0.0,0.0,0.0,-2.782,-2.7369,-2.8622,-2.9358,-2.8964,-2.8817,-2.8968,-2.9574,-2.8741,0.0,0.0,-2.9757,-3.021,-3.021,-3.1274,-3.2852,-3.5004,-3.5775,-3.7734,-4.0744,-4.1157,-3.8597,-3.3635,-3.3776,0.0,0.0,0.0,0.0,0.0,0.0,0.0,0.0,0.0,0.0,0.0,0.0,0.0,0.0,0.0,0.0,0.0,0.0,0.0,0.0,0.0,0.0,0.0,0.0,0.0,0.0,0.0,0.0,0.0,0.0,0.0,0.0,0.0,0.0,0.0,0.0,0.0,0.0,0.0,0.0,0.0,0.0,0.0,0.0,0.0,0.0,0.0,0.0,0.0,0.0,0.0,0.0,0.0,0.0,0.0,0.0,0.0,0.0,0.0,0.0,0.0,0.0,0.0,0.0,-3.9035,-3.8741,-3.8594,-3.7771,-3.6325,-3.339,-3.1225,-2.9794,0.0,0.0,0.0,0.0,0.0,0.0,0.0,0.0,0.0,0.0,0.0,0.0,0.0,0.0,0.0,0.0,0.0,0.0,0.0,0.0,-2.9197,-3.0075,-3.0963,-3.2024,-3.3343,-3.2806,-3.2298,-3.2131,-3.0723,-2.961,-2.9023,-2.9757,-3.021,-3.021,-3.2375,-3.399,-3.5004,-3.8563,-4.1609,-4.4085,-4.4839,-4.4382,-4.2774,-3.8582,-3.7415,-3.8343,0.0,0.0,0.0,0.0,0.0,0.0,0.0,0.0,0.0,0.0,0.0,0.0,0.0,0.0,0.0,0.0,0.0,0.0,0.0,0.0,0.0,0.0,0.0,0.0,0.0,0.0,0.0,0.0,0.0,0.0,0.0,0.0,0.0,0.0,0.0,0.0,0.0,0.0,0.0,0.0,0.0,-2.8111,-2.7712,0.0,0.0,0.0,0.0,0.0,0.0,0.0,0.0,0.0,0.0,0.0,0.0,0.0,0.0,-3.9056,-4.1368,-4.258,-4.2743,-4.4856,-4.5095,-4.3718,-4.302,-4.2597,-4.2286,-4.0451,0.0,-3.2999,-3.0907,0.0,0.0,0.0,0.0,0.0,0.0,0.0,0.0,0.0,0.0,0.0,0.0,0.0,0.0,0.0,0.0,0.0,0.0,0.0,0.0,0.0,-3.4916,-3.6831,-3.7951,-3.9677,-3.9272,-3.5913,-3.4826,-3.3109,-3.0467,-3.0687,-3.1311,-3.2192,-3.4174,-3.7147,-4.1148,-4.614,-4.9114,-5.0178,-5.0508,-5.0251,-4.9351,-4.6275,-4.3376,-4.0542,-3.6534,0.0,0.0,0.0,0.0,0.0,0.0,0.0,0.0,0.0,0.0,0.0,0.0,0.0,0.0,0.0,0.0,0.0,0.0,0.0,0.0,0.0,0.0,0.0,0.0,0.0,0.0,0.0,0.0,0.0,0.0,0.0,0.0,0.0,0.0,0.0,0.0,0.0,0.0,0.0,-2.9371,-3.0871,-2.9082,-3.1127,-3.1696,0.0,0.0,0.0,0.0,0.0,0.0,0.0,0.0,0.0,-4.0797,-4.2176,-4.3461,-4.4599,-4.6159,-4.715,-4.7609,-4.8233,-4.7865,-4.6709,-4.6361,-4.57,-4.4819,-4.4085,-4.2323,-3.968,-3.634,-3.4651,-3.399,0.0,0.0,0.0,0.0,0.0,-3.1971,0.0,0.0,0.0,0.0,0.0,0.0,0.0,0.0,0.0,0.0,0.0,0.0,-3.5698,-3.8937,-4.1672,-4.3603,-4.557,-4.493,-4.0682,-3.8412,-3.584,-3.2792,-3.2241,-3.2669,-3.41,-3.7147,-4.1735,-4.7755,-5.2637,-5.5133,-5.5317,-5.5537,-5.5207,-5.4363,-5.2968,-4.935,-4.3999,-3.9677,-3.693,-3.5082,0.0,0.0,0.0,0.0,0.0,0.0,0.0,0.0,0.0,0.0,0.0,0.0,0.0,0.0,0.0,0.0,0.0,0.0,0.0,0.0,0.0,0.0,0.0,0.0,0.0,0.0,0.0,0.0,0.0,0.0,0.0,0.0,0.0,0.0,0.0,0.0,0.0,-3.1856,-3.3326,-3.069,-3.3923,-3.4984,0.0,0.0,0.0,0.0,0.0,0.0,-4.0691,-4.2159,-4.3791,-4.5644,-4.7425,-4.8857,-4.9848,-5.0288,-5.0912,-5.172,-5.0912,-5.0068,-4.926,-4.926,-4.8379,-4.6838,-4.6617,-4.6067,-4.4984,-4.0948,-3.8615,-3.7404,-3.6142,-3.5422,0.0,-3.6229,-3.5936,-3.5459,0.0,0.0,0.0,0.0,0.0,0.0,0.0,0.0,0.0,0.0,0.0,-3.4084,-4.0019,-4.2529,-4.5822,-5.09,-4.874,-4.693,-4.6673,-4.021,-3.6266,-3.6046,-3.4541,-3.4064,-3.4931,-4.1809,-4.7865,-5.2858,-5.5427,-5.7079,-5.785,-5.8621,-5.8547,-5.7703,-5.6895,-5.4629,-5.1068,-4.5028,-4.1988,-4.0778,-3.5241,0.0,0.0,0.0,0.0,0.0,0.0,0.0,0.0,0.0,0.0,0.0,0.0,0.0,0.0,0.0,0.0,0.0,0.0,0.0,0.0,0.0,0.0,0.0,0.0,0.0,0.0,0.0,0.0,0.0,0.0,0.0,0.0,0.0,0.0,0.0,0.0,0.0,0.0,-3.2713,-3.7046,0.0,0.0,0.0,0.0,-3.8913,-4.1514,-4.4104,-4.6562,-4.7498,-4.904,-5.1499,-5.1683,-5.2491,-5.4069,-5.3371,-5.3445,-5.4216,-5.3408,-5.2601,-5.1793,-5.1793,-5.0912,-4.939,-4.8526,-4.77,-4.6672,-4.2636,-4.0912,-4.0618,-3.83,-3.7823,-3.8358,-3.7713,-3.786,-3.8358,0.0,0.0,0.0,0.0,0.0,-2.7457,-2.8803,-2.8987,-2.9545,-3.1028,-3.4148,-3.8336,-4.3939,-4.9231,-5.3422,-5.613,-5.651,-5.4907,-5.0897,-4.5011,-4.1699,-4.1699,-3.8138,-3.8505,-4.3443,-4.7682,-5.194,-5.6308,-5.8694,-6.0052,-6.0309,-6.0089,-5.9538,-5.8767,-5.7923,-5.6649,-5.4702,-4.8931,-4.4885,-4.2008,-3.7488,-3.4138,0.0,0.0,0.0,0.0,0.0,0.0,0.0,0.0,0.0,0.0,0.0,0.0,0.0,0.0,0.0,0.0,0.0,0.0,0.0,0.0,0.0,0.0,0.0,0.0,0.0,0.0,0.0,0.0,0.0,0.0,0.0,0.0,0.0,0.0,0.0,0.0,0.0,-3.9643,-4.3594,0.0,-4.1731,-4.2462,-4.3669,-4.4986,-4.6525,-4.8489,-5.0892,-5.1793,-5.3115,-5.5023,-5.5097,-5.5611,-5.6712,-5.539,-5.4876,-5.5133,-5.3849,-5.2527,-5.1242,-5.1756,-5.0802,-4.8783,-4.8967,-4.8636,-4.77,-4.5755,-4.4654,-4.4048,-4.269,-4.1992,-4.1735,-4.1458,-4.1222,-4.1038,0.0,0.0,0.0,0.0,-2.6943,-2.7152,-2.8767,-2.8987,-2.9897,-3.2359,-3.6362,-4.1341,-4.7505,-5.398,-5.8476,-6.0121,-6.0804,-5.9081,-5.433,-4.8182,-4.4691,-4.4691,-4.1625,-4.2947,-4.9407,-5.2234,-5.5464,-5.9208,-6.108,-6.1851,-6.1594,-6.1043,-6.0236,-5.9184,-5.8657,-5.7813,-5.6557,-5.2622,-4.8525,-4.4323,-4.0518,-3.7943,-3.6057,0.0,0.0,0.0,0.0,0.0,0.0,0.0,0.0,0.0,0.0,0.0,0.0,0.0,0.0,0.0,0.0,0.0,0.0,0.0,0.0,0.0,0.0,0.0,0.0,0.0,0.0,0.0,0.0,0.0,0.0,0.0,0.0,0.0,0.0,0.0,-4.4121,-4.4635,-4.8306,-4.9738,-4.6985,-4.7976,-4.9224,-5.0288,-5.1646,-5.3115,-5.473,-5.5317,-5.6088,-5.7189,-5.7189,-5.7336,-5.7593,-5.6271,-5.5486,-5.517,-5.3849,-5.2637,-5.1646,-5.216,-5.1206,-4.9187,-4.9701,-4.9334,-4.8269,-4.77,-4.7205,-4.6581,-4.5223,-4.4378,-4.3864,-4.3625,-4.3167,-4.2763,0.0,0.0,0.0,-2.6282,-2.6565,-2.7115,-2.873,-2.895,-3.0252,-3.3919,-3.764,-4.2911,-5.0726,-5.6387,-6.0556,-6.2897,-6.0931,-5.8746,-5.6948,-4.9224,-4.4728,-4.4801,-4.4911,-4.7278,-5.2197,-5.5317,-5.8437,-6.1667,-6.2438,-6.2401,-6.1594,-6.1594,-6.075,-5.9221,-5.9221,-5.834,-5.6813,-5.614,-5.3049,-4.8231,-4.4505,-4.2955,-4.2301,0.0,0.0,0.0,0.0,0.0,0.0,0.0,0.0,0.0,0.0,0.0,0.0,0.0,0.0,0.0,0.0,0.0,0.0,0.0,0.0,0.0,0.0,0.0,0.0,0.0,0.0,0.0,0.0,0.0,0.0,0.0,0.0,0.0,-3.9276,-4.3962,-4.7259,-4.7333,-5.0892,-5.2103,-4.8967,-5.2234,-5.4546,-5.4583,-5.6712,-5.8033,-5.8033,-5.7997,-5.7997,-5.7997,-5.7997,-5.7629,-5.6859,-5.6014,-5.5207,-5.4436,-5.3592,-5.3188,-5.3188,-5.3188,-5.2307,-5.0765,-5.0765,-4.9848,-4.8306,-4.8306,-4.8306,-4.8049,-4.5682,-4.4764,-4.4635,-4.3828,-4.3515,-4.3515,0.0,0.0,-2.452,-2.5558,-2.5742,-2.6256,-2.7897,-2.8117,-2.9724,-3.4124,-3.9835,-4.5943,-5.2399,-5.8279,-6.2221,-6.345,-6.0245,-5.7766,-5.6867,-4.9224,-4.548,-4.7223,-4.9571,-5.3408,-5.8841,-5.8694,-6.0162,-6.3392,-6.2989,-6.2401,-6.1594,-6.1594,-6.1043,-6.0089,-6.0089,-5.9501,-5.8487,-5.7724,-5.6283,-5.4004,-4.8959,-4.5988,-4.4189,0.0,0.0,0.0,0.0,0.0,0.0,0.0,0.0,0.0,0.0,0.0,0.0,0.0,0.0,0.0,0.0,0.0,0.0,0.0,0.0,0.0,0.0,0.0,0.0,0.0,0.0,0.0,0.0,0.0,0.0,0.0,0.0,-4.3156,-4.3591,-4.7195,-5.0655,-5.3004,-5.528,-5.6565,-5.6212,-5.7203,-5.812,-5.8731,-5.8841,-5.8877,-5.8877,-5.8327,-5.7997,-5.7997,-5.7997,-5.7886,-5.7666,-5.6271,-5.5486,-5.5244,-5.3849,-5.2894,-5.2344,-5.2344,-5.1463,-4.9941,-4.9941,-4.9297,-4.8306,-4.8306,-4.7957,-4.7369,-4.6709,-4.6104,-4.548,-4.4672,-4.4011,-4.3515,0.0,-2.419,-2.4447,-2.5264,-2.5411,-2.5925,-2.7541,-2.7798,-2.9676,-3.4953,-4.0573,-4.6505,-5.2788,-5.8152,-6.1262,-6.1131,-5.8646,-5.6008,-5.3414,-4.8507,-4.6929,-4.9738,-5.2637,-5.6198,-6.0493,-6.0346,-6.13,-6.3576,-6.3062,-6.2585,-6.2108,-6.2108,-6.1667,-6.0896,-6.0896,-6.0272,-5.9148,-5.8694,-5.8033,-5.6983,-5.3403,-5.1224,-4.9654,-4.5347,-4.3589,-4.3097,-4.0474,-3.9373,-3.8844,-3.7201,0.0,0.0,0.0,0.0,0.0,0.0,0.0,0.0,0.0,0.0,0.0,0.0,0.0,0.0,0.0,0.0,0.0,0.0,0.0,0.0,0.0,0.0,0.0,0.0,-4.4251,-4.7518,-4.8924,-5.0997,-5.3397,-5.6286,-5.747,-5.8227,-5.8671,-5.9612,-6.0126,-5.9905,-6.0089,-5.9905,-5.9221,-5.8767,-5.8364,-5.7997,-5.7997,-5.785,-5.7483,-5.6235,-5.5449,-5.506,-5.3812,-5.2968,-5.2491,-5.2491,-5.161,0.0,-5.0105,-4.9407,-4.8306,-4.8306,-4.7993,0.0,0.0,0.0,0.0,0.0,-4.3901,-4.3515,0.0,-2.419,-2.442,-2.5154,-2.5264,-2.5778,-2.7321,-2.7614,-2.9795,-3.5763,-4.0149,-4.5242,-5.1842,-5.6182,-5.8214,-5.7188,-5.6218,-5.3608,-4.8895,-4.7993,-4.9224,-5.2637,-5.5023,-5.7409,-5.9845,-6.119,-6.2218,-6.2952,-6.2879,-6.278,-6.278,-6.278,-6.2438,-6.1741,-6.1741,-6.0896,-5.9441,-5.9368,-5.8877,-5.807,-5.7262,-5.6822,-5.6088,-5.0839,-4.9464,-4.9944,-4.7165,-4.4032,-4.1183,-4.1144,0.0,0.0,0.0,0.0,0.0,0.0,0.0,0.0,0.0,0.0,0.0,0.0,0.0,0.0,0.0,0.0,0.0,0.0,0.0,0.0,0.0,0.0,0.0,0.0,-4.7802,-5.1112,-5.4129,-5.4687,-5.5583,-5.7744,-5.8044,-5.8101,-5.8134,-6.0052,-6.0823,-5.9551,-6.0639,-6.075,-5.9404,0.0,0.0,0.0,0.0,-5.7666,-5.6932,-5.6051,-5.5244,-5.4509,-5.3628,-5.3203,-5.3203,-5.3115,-5.2307,-5.0949,-5.0839,-4.9884,-4.8453,-4.8453,-4.8269,-4.7902,-4.6471,-4.5406,-4.4599,-4.3791,-4.3515,0.0,0.0,-2.419,-2.4263,-2.441,-2.441,-2.475,-2.5705,-2.6429,-2.875,-3.4169,-3.849,-4.302,-4.821,-5.134,-5.331,-5.4006,-5.2143,-5.0741,-5.0325,-5.0765,-5.3078,-5.7629,-5.9501,-6.1594,-6.409,-6.3796,-6.3686,-6.3833,-6.3135,-6.278,-6.278,-6.278,-6.2707,-6.2585,-6.2585,-6.2034,-6.108,-6.0456,-5.9722,-5.8891,-5.8107,-5.6969,-5.5574,-5.3188,-5.2009,-5.1307,-4.8764,-4.8612,-4.9135,-4.5956,-4.4821,-4.4127,-4.0583,-3.7588,0.0,0.0,0.0,0.0,0.0,0.0,0.0,0.0,0.0,0.0,0.0,0.0,0.0,0.0,0.0,0.0,0.0,0.0,0.0,-4.8832,-5.1715,-5.3932,-5.5245,-5.6013,-5.6815,-5.789,-5.8014,-5.826,-5.8891,-5.9368,-6.0089,-6.1043,-6.0236,-5.9832,-6.0162,-5.8951,0.0,-5.7997,-5.7997,-5.7923,-5.7776,-5.6308,-5.5522,-5.5354,0.0,0.0,-5.3167,-5.2527,-5.205,-5.172,-5.1096,-5.0251,-4.9353,-4.9353,-4.8159,-4.6324,-4.603,-4.5406,-4.4599,-4.3791,-4.3515,-4.3515,0.0,-2.419,-2.419,-2.419,-2.419,-2.4456,-2.5264,-2.6062,-2.8268,-3.2895,-3.674,-4.0585,-4.4572,-4.6863,-4.7848,-4.7187,-4.5663,-4.6305,-4.9958,-5.172,-5.495,-6.0162,-6.1961,-6.3613,-6.5264,-6.4897,-6.4494,-6.409,-6.3649,-6.3246,-6.278,-6.278,-6.2585,-6.2218,-6.2622,-6.2144,-6.097,-6.0566,-5.9942,-5.9111,-5.8327,-5.7519,-5.6638,-5.5023,-5.4142,-5.3482,-5.1022,-5.0692,-5.1022,-4.8563,-4.7462,-4.6599,-4.3774,-4.1258,-3.859,0.0,0.0,0.0,0.0,0.0,0.0,0.0,0.0,0.0,0.0,0.0,0.0,0.0,0.0,-4.1162,-4.3907,0.0,-4.9407,-5.2674,-5.4546,-5.5902,-5.6733,-5.6862,-5.6912,-5.684,-5.7543,-5.8214,-5.8614,-5.9347,-6.0126,-6.0933,-6.0272,-5.9795,-5.9795,-5.9061,-5.8437,-5.7997,-5.7997,-5.7813,-5.7409,-5.6198,-5.539,-5.4987,-5.3775,-5.3203,-5.3188,-5.2784,-5.216,-5.1389,-5.1389,-5.0472,-4.893,-4.893,-4.8233,-4.7058,-4.6654,-4.5516,-4.4048,-4.3662,-4.3515,-4.3515,0.0,-2.419,-2.419,-2.419,-2.419,-2.442,-2.5081,-2.5841,-2.7714,-3.1408,-3.4468,-3.7492,-4.0561,-4.2213,-4.2433,-4.0765,-4.0487,-4.3147,-4.9647,-5.2344,-5.6271,-6.2071,-6.3759,-6.4861,-6.5521,-6.5521,-6.5154,-6.431,-6.4163,-6.3723,-6.3062,-6.2879,-6.2475,-6.1851,-6.2511,-6.2108,-6.086,-6.0529,-6.0052,-5.9331,-5.84,-5.7923,-5.7593,-5.6124,-5.5596,-5.528,-5.2879,-5.1238,-5.0078,-4.9351,-4.8084,-4.6542,-4.5297,-4.3828,-4.1722,-3.7697,-3.6499,0.0,0.0,0.0,0.0,0.0,0.0,0.0,0.0,0.0,-3.8628,-4.1249,-4.4014,-4.6615,-4.8837,-5.1132,-5.3371,-5.5464,-5.6528,-5.7134,-5.7485,-5.7021,-5.6312,-5.5369,-5.6805,-5.7877,-5.7877,-5.9139,-6.0015,-6.0162,-6.0015,-5.9722,-5.9221,-5.9038,-5.8694,-5.8033,-5.785,-5.7446,-5.6822,-5.5831,-5.5023,-5.4399,-5.3592,-5.3203,-5.3203,-5.3203,-5.2491,-5.1279,-5.161,-5.0545,-4.8526,-4.8379,-4.8233,-4.8012,-4.7333,-4.5718,-4.3718,-4.3718,-4.3608,-4.3515,0.0,-2.419,-2.419,-2.419,-2.419,-2.4226,-2.43,-2.5007,-2.6476,-2.906,-3.098,-3.3036,-3.5555,-3.667,-3.7698,-3.8872,-4.0855,-4.4782,-5.1316,-5.3995,-5.818,-6.4604,-6.5742,-6.6256,-6.6366,-6.6366,-6.5962,-6.5191,-6.4457,-6.4053,-6.3943,-6.3172,-6.2743,-6.267,-6.2768,-6.267,-6.2438,-6.1006,-6.0346,-6.0126,-5.8621,-5.7556,-5.6859,-5.5941,-5.5596,-5.528,-5.2879,-5.0305,-4.7979,-4.7531,-4.6537,-4.5542,-4.5718,-4.4672,-4.2837,-4.0198,-3.7234,-3.4485,-3.3238,-3.2538,-3.282,-3.5503,-3.4978,-3.5688,0.0,0.0,-4.3244,-4.7606,-4.9487,-5.0846,-5.237,-5.4032,-5.55,-5.6528,-5.7336,-5.7413,-5.6141,-5.5953,-5.5355,-5.3838,-5.5664,-5.7021,-5.7021,-5.7765,-5.8547,-5.9258,-5.8657,-5.8547,-5.9148,-5.851,-5.8107,-5.7997,-5.7299,-5.6895,-5.6822,-5.528,-5.4473,-5.4399,-5.3592,-5.3203,-5.3203,-5.3203,-5.3093,-5.2858,-5.1536,-5.0362,-4.939,-4.8636,-4.7883,-4.7223,-4.7149,-4.6049,-4.4562,-4.4562,-4.4121,-4.3515,0.0,0.0,-2.419,-2.419,-2.419,-2.419,-2.419,-2.4897,-2.5925,-2.7409,-2.8987,-3.0381,-3.1408,-3.1812,-3.2706,-3.4321,-3.7551,-4.2249,-4.8746,-5.3188,-5.829,-6.4347,-6.5375,-6.6256,-6.7173,-6.6733,-6.6329,-6.5999,-6.5668,-6.5007,-6.409,-6.3723,-6.3025,-6.2108,-6.2585,-6.2291,-6.141,-6.119,-6.0566,-5.9625,-5.8988,-5.796,-5.6557,-5.4492,-5.2565,-5.0858,-4.9831,-4.7865,0.0,-4.4808,-4.4575,-4.4592,-4.4528,-4.3718,-4.2433,-4.0451,-3.8816,-3.7353,-3.609,-3.5617,-3.569,0.0,-3.7822,-3.9991,-4.3665,-4.469,-4.6041,-5.0134,-5.2087,-5.3463,-5.5016,-5.6235,-5.7116,0.0,-5.7776,-5.7618,-5.6527,-5.5267,-5.4011,-5.2783,-5.3583,-5.4952,-5.6717,-5.7546,-5.8327,-5.9148,-5.8437,-5.8143,-5.8474,-5.818,-5.7997,-5.7997,-5.7226,-5.6602,-5.6088,-5.495,-5.4179,-5.3702,-5.3371,-5.3203,-5.3203,-5.3203,-5.2931,-5.2454,-5.1316,-5.0325,-4.9574,-4.915,-4.8526,-4.7736,-4.7259,-4.6379,-4.5333,-4.4874,-4.4195,-4.3515,0.0,0.0,0.0,-2.3899,-2.3899,-2.3986,-2.417,-2.4677,-2.5374,-2.6172,-2.7273,-2.8069,-2.8326,-2.8326,-2.8987,-3.0613,-3.4468,-3.946,-4.57,-5.1426,-5.7042,-6.2511,-6.3943,-6.5264,-6.6659,-6.6329,-6.6182,-6.6182,-6.5962,-6.5228,-6.409,-6.3833,-6.3099,-6.1961,-6.2548,-6.212,-6.108,-6.1227,-6.0603,-5.9478,-5.8817,-5.7354,-5.5254,-5.2436,-4.8945,-4.5594,-4.5719,-4.3954,-4.1547,-4.0826,-4.0976,-4.1463,-4.1741,-4.1428,-4.0771,-3.9959,-3.947,-3.8961,-3.7566,-3.7661,0.0,-3.8004,-4.0477,-4.3378,-4.4839,-4.6428,-4.855,-5.1951,-5.3592,-5.4766,-5.5941,-5.6602,-5.7079,-5.7299,-5.7519,-5.7421,-5.6664,-5.4584,-5.2828,-5.2164,-5.1576,-5.2477,-5.5595,-5.6948,-5.7997,-5.8804,-5.8327,-5.7997,-5.7997,-5.7997,-5.7997,-5.7997,-5.7005,-5.6198,-5.5633,-5.4583,-5.3775,-5.3203,-5.3203,-5.3203,-5.3203,-5.3203,-5.2747,-5.194,-5.1169,-5.0325,-4.9574,-4.9297,-4.882,-4.8233,-4.7663,-4.6801,-4.5847,-4.5259,-4.4378,-4.3515,0.0,0.0,0.0,0.0,-2.3224,-2.3466,-2.4112,-2.4226,-2.453,-2.5338,-2.5485,-2.5815,-2.6612,-2.6675,-2.7299,-2.8913,-3.2766,-3.7499,-4.3204,-4.893,-5.4289,-5.9148,-6.1606,-6.3282,-6.4163,-6.4971,-6.5338,-6.5338,-6.4567,-6.4127,-6.4053,-6.3246,-6.278,-6.2743,-6.278,-6.2743,-6.2658,-6.108,-6.0419,-6.0162,-5.7813,-5.5062,-5.219,-4.9865,-4.5344,-4.0307,-4.0902,-3.8337,-3.477,-3.519,-3.5066,-3.5018,-3.6985,-3.7559,-3.7775,-3.8903,-3.8421,-3.7382,-3.656,-3.7463,-3.9224,-4.1552,-4.28,-4.4525,-4.8509,-5.0068,-5.1369,-5.3812,-5.4363,-5.4399,-5.4473,-5.4473,-5.4766,-5.5537,-5.6345,-5.6556,-5.5833,-5.364,-5.2101,-5.1994,-5.0014,-4.985,0.0,-5.5442,-5.7189,-5.796,-5.7997,-5.7997,-5.7997,-5.7997,-5.7997,-5.7997,-5.6455,-5.5611,-5.5596,-5.4032,-5.3203,-5.3203,-5.3203,-5.3203,-5.3203,-5.3203,-5.2747,-5.194,-5.1169,-5.0325,-4.9537,-4.8673,-4.8343,-4.8306,-4.8269,-4.7315,-4.5883,-4.5883,-4.4856,-4.3515,0.0,0.0,0.0,0.0,0.0,-2.3271,-2.3511,-2.3742,-2.4038,-2.4537,-2.4603,0.0,0.0,0.0,0.0,0.0,-3.0613,-3.4798,-3.9974,-4.5112,-5.0141,-5.5001,-5.8033,-6.0236,-6.163,-6.2438,-6.3099,-6.3649,-6.3392,-6.2952,-6.2438,-6.2144,-6.1704,-6.1227,-6.1227,-6.0933,-6.0358,-5.9808,-5.8139,-5.5775,-5.495,-5.2483,-4.9007,-4.634,-4.2489,-3.8223,0.0,-3.3948,-3.2284,-3.2196,-3.2264,-3.2591,-3.3582,-3.4042,-3.4506,-3.5972,-3.6948,-3.7676,-3.8469,-3.9863,-4.1405,-4.2763,-4.4488,-4.6397,-4.8306,-4.937,-5.0398,-5.172,-5.1573,-5.1353,-5.1903,-5.2013,-5.2637,-5.4509,-5.5464,-5.5921,-5.5724,-5.458,-5.293,-5.0685,-5.0249,0.0,0.0,0.0,0.0,-5.7079,-5.7189,-5.7446,-5.796,-5.7997,-5.7997,-5.7997,-5.6418,-5.5868,-5.6381,-5.4289,-5.3482,-5.3995,-5.3482,-5.3203,-5.3203,-5.3203,-5.2747,-5.1977,-5.172,-5.0859,-4.9574,-4.928,-4.882,-4.8269,-4.77,-4.6838,-4.5847,-4.5296,-4.4415,-4.3515,0.0,0.0,0.0,0.0,0.0,0.0,0.0,0.0,0.0,0.0,0.0,0.0,0.0,0.0,0.0,0.0,0.0,-3.1935,-3.6229,-4.0524,-4.4819,-4.9114,-5.169,-5.3741,-5.5207,-5.546,-5.6264,-5.7607,-5.7807,-5.7954,-5.818,-5.8474,-5.8327,-5.785,-5.785,-5.7533,-5.7019,-5.653,-5.4583,-5.1778,-5.0692,-4.8015,-4.4327,-4.141,-3.8125,0.0,-3.1759,-3.0209,-2.9554,-2.935,-2.9725,-3.0411,-3.1026,-3.2321,-3.3834,-3.4615,-3.6509,-3.8704,-4.0304,-4.1919,-4.3424,-4.4525,-4.6177,-4.7663,-4.8196,-4.871,-4.9114,-4.9077,-4.8416,-4.7902,-4.8159,-4.7976,-4.8746,-5.172,-5.2637,-5.3536,-5.5025,-5.4093,-5.2749,-5.1484,-5.0838,-5.0924,0.0,0.0,0.0,-5.6198,-5.6638,-5.7042,-5.7556,-5.785,-5.7997,-5.7997,-5.6712,-5.6271,-5.6785,-5.4987,-5.4179,-5.4399,-5.3592,-5.3203,-5.3203,-5.3203,-5.2747,-5.1977,-5.1683,-5.0802,-4.9574,-4.926,-4.882,-4.8269,-4.7736,-4.6874,-4.5847,-4.5333,-4.4452,-4.3515,0.0,0.0,0.0,0.0,0.0,0.0,0.0,0.0,0.0,0.0,0.0,0.0,0.0,0.0,0.0,0.0,0.0,0.0,-3.2129,-3.5408,-3.8637,-4.1792,-4.3178,-4.4453,-4.559,-4.5035,-4.5775,-4.7992,-4.8502,-4.969,-5.1552,-5.2323,-5.269,-5.269,-5.269,-5.269,-5.2595,-5.1253,-4.9749,-4.8098,-4.5287,-4.1917,-3.8342,-3.5428,-3.2527,-2.9785,-2.8331,-2.7283,-2.6657,-2.6725,-2.757,-2.8775,-2.9568,-3.2508,-3.5571,-3.495,-3.7286,-4.0451,-4.2103,-4.3718,-4.5315,-4.6856,-4.7773,-4.8269,-4.8196,-4.8086,-4.7535,-4.592,-4.4911,-4.405,0.0,-4.2599,-4.3517,-4.7535,-4.8343,-4.9884,-5.3885,-5.2564,-5.1977,0.0,0.0,0.0,0.0,0.0,0.0,-5.5427,0.0,-5.6785,-5.6859,-5.7593,-5.7997,-5.7997,-5.7226,-5.6822,-5.6859,-5.6014,-5.5207,-5.4399,-5.3592,-5.3203,-5.3203,-5.3203,-5.2747,-5.194,-5.1169,-5.0325,-4.9537,-4.8673,-4.8306,-4.8306,-4.8306,-4.7352,-4.5957,-4.592,-4.4892,-4.3551,0.0,0.0,0.0,0.0,0.0,0.0,0.0,0.0,0.0,0.0,0.0,0.0,0.0,0.0,0.0,0.0,0.0,0.0,-2.8518,-3.1719,-3.4426,-3.6479,-3.9671,-4.1542,-4.1886,-4.2847,-4.3565,-4.3904,-4.4582,-4.5022,-4.5236,-4.5736,-4.5957,-4.5957,-4.5957,-4.5957,-4.592,-4.4949,-4.3248,-4.1046,-3.9676,-3.7071,-3.3878,-3.2525,-3.0515,-2.8331,-2.7959,-2.6979,-2.6048,-2.7148,-2.9316,-3.165,-3.248,-3.471,-3.7211,-3.8235,-4.0439,-4.3057,-4.5278,-4.7058,-4.8379,-4.8857,-4.8636,-4.8012,-4.6801,-4.5112,-4.3387,-4.1772,-4.0055,-3.8684,-3.8203,-3.9637,-4.2104,-4.592,-4.9077,0.0,-5.4876,-5.5794,0.0,-5.4546,0.0,-5.4142,-5.4363,-5.4032,0.0,0.0,-5.5794,-5.6418,-5.7629,-5.7886,-5.7997,-5.7997,-5.7226,-5.7079,-5.7703,-5.6308,-5.5207,-5.4399,-5.3592,-5.3203,-5.3203,-5.3203,-5.2747,-5.194,-5.1169,-5.0325,-4.9537,-4.8673,-4.8306,-4.8306,-4.8306,-4.7682,-4.6709,-4.6104,-4.5259,-4.4305,0.0,0.0,0.0,0.0,0.0,0.0,0.0,0.0,0.0,0.0,0.0,0.0,0.0,0.0,0.0,0.0,0.0,0.0,0.0,-2.8121,-2.9822,-3.1124,-3.3438,-3.4657,-3.449,-3.565,-3.6239,-3.6111,-3.7375,-3.7983,-3.7983,-3.8584,-3.8829,-3.8829,-3.8829,-3.8829,-3.8813,-3.807,-3.6576,0.0,0.0,-3.1611,-2.9262,-2.8536,-2.7469,-2.6353,-2.6353,-2.6657,-2.7453,-2.9713,0.0,-3.4267,-3.5959,-3.8153,-4.0467,-4.2066,-4.3975,-4.5993,-4.7719,-4.9114,-4.9994,-4.9684,-4.893,-4.7609,-4.4929,-4.288,-4.069,-3.7814,-3.6182,-3.5157,-3.4728,-3.6492,-3.9312,0.0,0.0,0.0,-5.4032,-5.5611,-5.6308,0.0,-5.6051,0.0,-5.5978,-5.5647,-5.5794,0.0,-5.6308,-5.6528,-5.7446,-5.7813,-5.7997,-5.7997,-5.7556,-5.7556,-5.7997,-5.6748,-5.5721,-5.4913,-5.4106,-5.3555,-5.3203,-5.3203,-5.2747,-5.1977,0.0,-5.0655,-4.9574,-4.9077,-4.8636,-4.8306,-4.8306,-4.7609,-4.6544,-4.6067,-4.5186,-4.4121,0.0,0.0,0.0,0.0,0.0,0.0,0.0,0.0,0.0,0.0,-2.3263,0.0,0.0,0.0,0.0,0.0,0.0,0.0,0.0,0.0,-2.5888,-2.6548,-2.6953,-2.6958,-2.6584,-2.7147,-2.7509,-2.7607,-2.9332,-3.0395,-3.0853,-3.1571,-3.1995,-3.2102,-3.1959,-3.1995,-3.2072,-3.1419,-3.0381,-2.9075,-2.7912,-2.6555,-2.5236,0.0,-2.4305,-2.4237,-2.4305,-2.6215,-2.9177,-3.2631,-3.4896,-3.6755,-3.9626,-4.2125,-4.4326,-4.5902,-4.7462,-4.882,-4.9684,-5.0508,-5.0912,-5.0014,-4.893,-4.7076,-4.3005,-4.0827,-3.8508,-3.427,0.0,-3.2611,-3.2188,-3.3643,-3.623,-4.0288,0.0,-4.7792,-5.2674,-5.4142,-5.5537,-5.774,-5.7373,-5.7226,-5.7923,-5.7373,-5.7262,-5.796,-5.7336,-5.6969,-5.6969,-5.7629,-5.7997,-5.7997,-5.7997,-5.7997,-5.7997,-5.7189,-5.6418,-5.5574,-5.4766,-5.3995,-5.3203,-5.3203,-5.2747,-5.1977,0.0,0.0,-4.961,-4.961,-4.9077,-4.8306,-4.8306,-4.7462,-4.6214,-4.6104,-4.5186,-4.3938,0.0,0.0,0.0,0.0,0.0,0.0,0.0,0.0,0.0,0.0,-2.5532,-2.4617,0.0,0.0,0.0,0.0,0.0,0.0,0.0,0.0,0.0,-2.5408,-2.6025,-2.6095,-2.5408,-2.553,-2.5424,-2.5107,-2.6065,-2.6443,-2.6268,-2.6658,-2.7206,-2.7818,-2.7148,-2.7241,-2.7818,-2.704,-2.6409,-2.5901,-2.566,-2.4859,-2.3782,-2.3646,0.0,0.0,-2.3376,-2.497,-2.7423,-3.1847,-3.5902,-3.9666,-4.285,-4.5146,-4.6959,-4.8519,-4.9627,-5.0545,-5.1353,-5.216,-5.2454,-5.0949,-4.8967,-4.6176,-4.1795,-3.8096,0.0,0.0,-3.0528,-2.9726,-2.9649,-3.2306,-3.5711,-3.9486,-4.3938,-4.858,-5.3518,-5.5464,-5.6785,0.0,-5.7886,-5.785,0.0,0.0,0.0,0.0,0.0,0.0,-5.7776,-5.7923,-5.7997,-5.7997,-5.7997,-5.7997,-5.7997,-5.7189,-5.6418,-5.5574,-5.4766,-5.3995,-5.3203,-5.3203,-5.2747,-5.1977,0.0,0.0,-4.961,-4.961,-4.9077,-4.8306,-4.8306,-4.8122,-4.7792,-4.7149,-4.6709,-4.6269,0.0,0.0,0.0,0.0,0.0,0.0,0.0,-2.5902,-2.7466,-3.0119,-2.975,-2.862,-2.6852,-2.5093,-2.4136,0.0,0.0,0.0,0.0,0.0,0.0,0.0,-2.5274,-2.5172,-2.3693,-2.5152,-2.5251,-2.3932,0.0,-2.5103,-2.4207,-2.4005,-2.4087,-2.4455,-2.4052,-2.4087,-2.442,-2.4052,-2.3805,-2.3624,-2.3624,-2.3326,0.0,0.0,0.0,0.0,0.0,-2.4747,-2.7099,-3.0819,-3.4817,-3.8962,-4.312,-4.5508,-4.7087,-4.867,-4.9903,-5.0986,-5.1756,-5.2601,-5.2711,-5.0655,-4.8269,-4.5096,-3.9816,0.0,0.0,0.0,-2.9121,-2.8752,-2.8966,-3.178,0.0,-3.7594,-4.1368,-4.5828,-5.1132,-5.2931,0.0,-5.7079,-5.8107,0.0,0.0,0.0,0.0,0.0,0.0,0.0,-5.7997,-5.7997,-5.7997,-5.7997,-5.7997,-5.7997,-5.7997,-5.7629,-5.6822,-5.5596,-5.5207,-5.4363,-5.3203,-5.3203,-5.3004,-5.2601,0.0,0.0,-5.0178,-4.9757,-4.9077,-4.8306,-4.8306,-4.8049,-4.7626,-4.7223,-4.6819,-4.6324,0.0,0.0,0.0,0.0,0.0,0.0,-2.6251,-2.7724,-2.973,-3.3029,-3.3502,-3.2484,-2.9712,-2.67,-2.4949,0.0,0.0,0.0,0.0,0.0,0.0,0.0,0.0,-2.4492,-2.2598,0.0,0.0,-2.341,-2.4729,0.0,0.0,0.0,0.0,0.0,0.0,0.0,-2.253,-2.2381,-2.2313,0.0,0.0,0.0,0.0,0.0,0.0,0.0,0.0,-2.4289,-2.6214,-2.9106,-3.2219,-3.5674,-4.0202,-4.3679,-4.6326,-4.7615,-4.932,-5.0986,-5.1756,-5.2454,-5.238,-5.0068,-4.7278,-4.3649,-3.8029,-3.4708,0.0,-2.8923,-2.8337,-2.8527,-2.8929,-3.1188,-3.3697,0.0,-3.86,-4.258,-4.8269,-5.0215,-5.2417,0.0,-5.796,0.0,0.0,0.0,0.0,0.0,0.0,0.0,-5.7997,-5.7997,-5.7997,-5.7997,-5.7997,-5.7923,-5.774,-5.774,-5.6932,-5.5317,-5.5317,-5.4583,-5.3203,-5.3203,-5.3115,-5.2931,0.0,0.0,0.0,-4.9867,-4.9077,-4.8306,-4.8306,-4.7883,-4.7369,-4.7369,-4.6985,-4.6286,0.0,0.0,0.0,0.0,0.0,0.0,-2.6251,-2.7995,-3.0489,-3.4786,-3.4796,-3.4037,-3.3025,-2.9333,-2.6044,0.0,0.0,0.0,0.0,0.0,0.0,0.0,0.0,0.0,0.0,0.0,0.0,-2.341,0.0,0.0,0.0,0.0,0.0,0.0,0.0,0.0,0.0,-2.2584,0.0,0.0,0.0,0.0,0.0,0.0,0.0,0.0,0.0,-2.2516,-2.3139,-2.6096,0.0,-2.9213,-3.2386,-3.892,-4.5446,-4.5646,0.0,0.0,-5.1756,-5.205,-5.1683,-4.9921,-4.603,-4.1548,-3.7289,0.0,-3.0512,-2.8393,-2.8179,-2.8527,-2.8929,-2.9831,-3.1518,-3.4637,-3.7242,-4.0875,-4.6526,-4.9958,-5.2821,-5.539,0.0,0.0,0.0,0.0,0.0,0.0,0.0,0.0,0.0,-5.7997,-5.7997,-5.7997,-5.7997,-5.7666,-5.6932,-5.6932,-5.6088,-5.4509,-5.4509,-5.4069,-5.3203,-5.3203,-5.2821,-5.2087,0.0,0.0,0.0,-4.9647,-4.9077,-4.8306,-4.8306,-4.8269,-4.8196,-4.8196,-4.8159,-4.7899,0.0,0.0,0.0,0.0,0.0,0.0,-2.7486,-2.818,-3.0209,-3.5622,-3.5656,-3.5047,-3.4754,-3.1274,-2.7794,-2.4966,0.0,0.0,0.0,0.0,0.0,0.0,0.0,0.0,0.0,0.0,-2.4729,-2.4729,-2.5033,0.0,0.0,0.0,0.0,0.0,0.0,0.0,0.0,0.0,0.0,0.0,0.0,0.0,0.0,0.0,0.0,0.0,0.0,0.0,-2.3139,-2.4323,0.0,0.0,-2.752,-3.2062,0.0,0.0,-4.3913,-4.6591,-4.9091,-5.0508,-5.0765,-4.86,-4.4764,-4.0544,-3.65,0.0,-2.9982,-2.8251,-2.836,-2.8797,-2.8964,-2.9647,-3.0944,-3.3206,-3.399,-3.645,-4.2636,-4.4618,-4.7425,0.0,0.0,0.0,0.0,0.0,0.0,0.0,0.0,0.0,0.0,-5.7522,-5.7797,-5.7351,-5.7274,-5.7373,-5.7519,-5.6565,-5.5757,-5.5097,-5.462,-5.3995,-5.3203,-5.3203,-5.2747,-5.1977,0.0,0.0,0.0,-4.8886,-4.8387,-4.7797,-4.8134,-4.8306,-4.8267,-4.7879,-4.7756,-4.756,0.0,0.0,0.0,0.0,0.0,-2.368,-2.7723,-2.8213,-2.9939,-3.4832,-3.5351,-3.5194,-3.4957,-3.1644,-2.8635,-2.6759,-2.4628,0.0,0.0,0.0,0.0,0.0,0.0,0.0,0.0,0.0,-2.5592,-2.5592,-2.6032,-2.5778,0.0,0.0,0.0,0.0,0.0,0.0,0.0,0.0,0.0,0.0,0.0,0.0,0.0,0.0,0.0,0.0,0.0,0.0,0.0,0.0,0.0,-2.5541,-2.4508,-2.6902,-3.1081,-3.6,-3.9855,-4.3195,-4.6245,-4.8356,-4.9167,-4.6929,-4.3187,-3.9118,0.0,0.0,-2.9478,-2.8158,-2.85,-2.8987,-2.8987,-2.9464,-3.0393,-3.1959,-3.1971,-3.377,-3.957,-4.1222,0.0,0.0,0.0,0.0,0.0,0.0,0.0,0.0,0.0,0.0,0.0,-5.6736,-5.7085,-5.6551,-5.6718,-5.6859,-5.6932,-5.5794,-5.5133,-5.4876,-5.4326,-5.3739,-5.3203,-5.3203,-5.2747,0.0,0.0,0.0,0.0,-4.8436,-4.7975,-4.7449,-4.8055,-4.8306,-4.8248,-4.7632,-4.7406,-4.7234,0.0,0.0,0.0,0.0,0.0,0.0,-2.6251,-2.8028,-2.9788,-3.2056,-3.3613,-3.4235,-3.3525,-3.0055,-2.8128,-2.8908,-2.5557,0.0,0.0,0.0,0.0,0.0,0.0,0.0,0.0,0.0,-2.5592,-2.5592,-2.7046,-2.7012,-2.5609,-2.5559,-2.4797,0.0,0.0,0.0,0.0,0.0,0.0,0.0,0.0,0.0,-2.2313,0.0,0.0,0.0,0.0,0.0,0.0,0.0,0.0,0.0,0.0,-2.4458,-2.6535,-3.089,-3.6702,-4.205,-4.37,-4.5604,-4.6746,-4.5131,-4.1111,-3.6888,0.0,-3.1382,-2.881,-2.8051,-2.85,-2.8987,-2.8987,-2.9023,-2.9537,-3.1127,-3.2082,-3.4014,-3.8138,-4.1479,0.0,0.0,0.0,0.0,0.0,0.0,0.0,0.0,0.0,0.0,0.0,0.0,-5.5721,-5.5721,-5.6426,-5.6051,-5.4436,-5.4436,-5.3995,-5.3203,-5.3203,-5.3203,-5.3203,-5.3203,0.0,0.0,0.0,0.0,0.0,-4.8532,-4.8063,-4.7449,-4.8055,-4.8306,-4.8248,-4.7632,-4.7406,-4.7234,0.0,0.0,0.0,0.0,0.0,0.0,-2.4914,-2.5185,-2.615,-2.889,-2.9194,-2.9668,-3.1021,-2.8229,-2.7029,-2.884,-2.5101,0.0,0.0,0.0,0.0,0.0,0.0,0.0,0.0,-2.686,-2.7368,-2.7909,-2.889,-2.889,-2.7927,-2.735,-2.6302,-2.4864,-2.3613,0.0,0.0,0.0,0.0,0.0,0.0,-2.2313,-2.2313,0.0,0.0,0.0,0.0,0.0,0.0,0.0,0.0,0.0,0.0,0.0,0.0,-2.6357,-3.1015,-3.6103,-3.8521,-4.0261,-4.1046,-3.9697,-3.6973,-3.4123,-3.2254,-3.0148,-2.8464,-2.7996,-2.85,-2.884,-2.8264,-2.862,-2.9537,-3.114,-3.2522,-3.4651,0.0,0.0,0.0,0.0,0.0,0.0,0.0,0.0,0.0,0.0,0.0,0.0,0.0,0.0,-5.5133,-5.5696,-5.5368,-5.517,-5.5207,-5.4142,-5.3739,-5.3995,-5.3482,-5.3203,-5.3203,-5.3203,0.0,0.0,0.0,0.0,0.0,-4.8398,-4.7864,-4.6796,-4.7428,-4.7406,-4.6999,-4.6796,-4.6472,-4.5965,0.0,0.0,0.0,0.0,0.0,0.0,-2.3898,-2.3932,-2.4458,-2.6319,-2.6387,-2.7029,-2.9007,-2.6556,-2.5913,-2.8739,-2.5135,0.0,0.0,0.0,0.0,0.0,0.0,0.0,-2.6708,-2.7165,-2.8044,-2.9416,-3.0142,-3.0412,-3.0228,-2.9736,-2.8398,-2.637,-2.4898,-2.3917,0.0,0.0,0.0,0.0,-2.2313,-2.2313,-2.2313,0.0,0.0,0.0,0.0,0.0,0.0,0.0,0.0,0.0,0.0,0.0,0.0,0.0,-2.6818,-3.0583,-3.3952,-3.6209,-3.7249,-3.5898,-3.3987,-3.1902,-3.005,-2.8428,-2.7271,-2.7031,-2.7738,-2.8139,-2.7471,-2.8253,-2.9317,-3.032,-3.1825,-3.4027,0.0,0.0,0.0,0.0,0.0,0.0,0.0,0.0,0.0,0.0,0.0,0.0,0.0,0.0,-5.3914,-5.4404,-5.4414,-5.4473,-5.4693,-5.3702,-5.3445,-5.3959,-5.3445,-5.306,-5.2769,0.0,0.0,0.0,0.0,0.0,0.0,-4.8232,-4.7557,-4.6499,-4.688,-4.6952,-4.679,-4.6266,-4.6025,-4.5805,0.0,0.0,0.0,0.0,0.0,0.0,0.0,-2.3898,-2.4338,-2.4338,-2.4932,-2.5897,-2.7249,-2.495,-2.4778,-2.8367,-2.5489,0.0,0.0,0.0,0.0,0.0,0.0,0.0,-2.6691,-2.6793,-2.7943,-3.0176,-3.1021,-3.1819,-3.253,-3.2496,-3.0886,-2.7959,-2.6438,-2.4898,-2.3342,-2.2665,-2.2347,-2.2313,-2.2313,-2.2313,0.0,0.0,0.0,0.0,0.0,0.0,0.0,0.0,0.0,0.0,0.0,0.0,0.0,0.0,0.0,0.0,0.0,-3.2968,-3.4702,-3.3233,-3.1721,-2.9996,-2.7777,-2.6423,0.0,-2.5499,-2.6485,-2.7198,-2.6794,-2.8022,-2.9133,-2.9317,-3.0723,-3.2939,0.0,0.0,0.0,0.0,0.0,0.0,0.0,0.0,0.0,0.0,0.0,0.0,0.0,0.0,0.0,-5.221,-5.3494,-5.3814,-5.3124,-5.3124,-5.3146,-5.3203,-5.3124,-5.2769,-5.2112,0.0,0.0,0.0,0.0,0.0,0.0,-4.8072,-4.7311,-4.6586,-4.6499,-4.6894,-4.7301,-4.6116,-4.603,-4.6347,0.0,0.0,0.0,0.0,0.0,0.0,0.0,0.0,0.0,0.0,-2.2955,-2.3192,-2.3564,-2.2955,-2.3376,0.0,0.0,0.0,0.0,0.0,0.0,0.0,0.0,0.0,-2.6708,-2.7859,-2.9262,-3.0954,-3.2814,-3.41,-3.481,-3.4235,-3.2679,-3.0311,-2.8229,-2.5829,-2.3376,-2.3207,-2.2835,-2.2313,-2.2313,-2.2313,0.0,0.0,0.0,0.0,-2.2313,-2.2767,0.0,0.0,0.0,0.0,0.0,0.0,0.0,0.0,-2.3144,-2.4081,-2.5401,0.0,-2.8728,-2.805,-2.761,-2.6938,0.0,-2.5387,-2.5473,-2.5254,-2.651,-2.7773,-2.8021,-2.9077,-3.054,-3.2375,-3.4578,-3.6758,0.0,0.0,0.0,0.0,0.0,0.0,0.0,0.0,0.0,0.0,0.0,0.0,0.0,0.0,0.0,-5.147,-5.174,-5.2029,-5.2358,-5.2358,-5.2621,-5.3167,-5.2621,-5.2289,-5.2089,0.0,0.0,0.0,0.0,0.0,-4.8799,-4.8654,-4.7815,-4.6637,-4.7186,-4.6884,-4.6234,-4.6934,-4.6639,-4.5864,0.0,0.0,0.0,0.0,0.0,0.0,0.0,0.0,0.0,0.0,-2.2313,-2.2313,-2.2313,-2.2313,-2.2767,0.0,0.0,0.0,0.0,0.0,0.0,0.0,0.0,-2.6285,-2.6691,-2.7841,-2.9668,-3.2205,-3.3728,-3.5419,-3.7144,-3.64,-3.4506,-3.1582,-2.8281,-2.5525,-2.341,-2.3164,-2.2776,-2.2265,-2.2061,0.0,0.0,0.0,0.0,0.0,-2.2313,-2.2767,0.0,-2.3797,-2.4169,-2.444,0.0,0.0,0.0,0.0,-2.2598,-2.3028,-2.3562,-2.533,-2.6892,-2.6338,-2.6209,-2.5897,-2.4751,-2.4256,-2.4155,-2.4686,-2.5849,-2.709,-2.7997,-2.9308,-3.087,-3.2926,-3.5018,0.0,0.0,0.0,0.0,0.0,0.0,0.0,0.0,0.0,0.0,0.0,0.0,0.0,0.0,0.0,0.0,0.0,-5.0161,-5.077,-5.2089,-5.2112,-5.2312,-5.2702,-5.2312,-5.1586,-5.0596,0.0,0.0,0.0,0.0,0.0,-4.8391,-4.842,-4.7763,-4.6741,-4.7152,-4.7067,-4.6747,-4.7119,-4.6828,-4.6143,0.0,0.0,0.0,0.0,0.0,0.0,0.0,0.0,0.0,0.0,0.0,0.0,0.0,0.0,0.0,0.0,0.0,0.0,0.0,0.0,0.0,0.0,-2.6691,-2.686,-2.7199,-2.774,-2.9818,-3.3558,-3.4303,-3.6096,-3.8802,-3.8193,-3.5825,-3.1955,-2.7821,-2.5075,-2.3594,-2.3103,-2.2639,-2.2214,-2.1768,0.0,0.0,0.0,0.0,0.0,0.0,0.0,0.0,-2.4,-2.4406,-2.4609,-2.4271,0.0,0.0,0.0,0.0,0.0,-2.3342,-2.5449,-2.7141,-2.6189,-2.6165,-2.6036,-2.4785,-2.3672,-2.3185,-2.4212,-2.5319,-2.6548,-2.7923,-2.971,0.0,0.0,0.0,0.0,0.0,0.0,0.0,0.0,0.0,0.0,0.0,0.0,0.0,0.0,0.0,0.0,0.0,0.0,0.0,0.0,-4.9018,-4.9884,-5.1766,-5.1898,-5.2065,-5.2253,-5.1957,-5.0834,-4.9082,-4.873,0.0,0.0,0.0,0.0,-4.7733,-4.7733,-4.7361,-4.6786,-4.6786,-4.7259,-4.7804,-4.7192,-4.6955,-4.6853,0.0,0.0,0.0,0.0,0.0,0.0,0.0,0.0,0.0,0.0,0.0,0.0,0.0,0.0,0.0,0.0,0.0,0.0,0.0,0.0,0.0,-2.6691,-2.6691,-2.7604,-2.9533,-2.9059,-3.0635,-3.4336,-3.5081,-3.6343,-3.8058,-3.7956,-3.5554,-3.1238,-2.868,-2.6436,-2.4529,-2.3968,-2.308,-2.2004,-2.1738,0.0,0.0,0.0,0.0,0.0,0.0,0.0,0.0,-2.2801,-2.3883,-2.5101,-2.3241,0.0,0.0,0.0,0.0,0.0,-2.3966,-2.5996,-2.725,-2.5245,-2.5968,-2.6657,-2.4921,-2.5017,-2.5308,-2.4643,-2.6623,-2.8773,-2.9811,-3.2319,-3.4821,0.0,0.0,0.0,0.0,0.0,0.0,0.0,0.0,0.0,0.0,0.0,0.0,0.0,0.0,0.0,0.0,0.0,0.0,0.0,0.0,-4.9418,-5.0232,-5.0921,-5.185,-5.3002,-5.1203,-5.0135,-4.9764,-4.7967,-4.7073,0.0,0.0,-4.6955,-4.6955,-4.6955,-4.6887,-4.6786,-4.6786,-4.7259,-4.7872,-4.777,-4.7733,-4.7564,0.0,0.0,0.0,0.0,0.0,0.0,0.0,0.0,0.0,0.0,0.0,0.0,0.0,0.0,0.0,0.0,0.0,0.0,0.0,0.0,-2.6657,-2.7893,-2.796,-2.8619,-3.0074,-3.0567,-3.2632,-3.6332,-3.7077,-3.8227,-3.9623,-3.6894,-3.3985,-3.1103,-2.8503,-2.6557,-2.5163,-2.4282,-2.3473,-2.2682,0.0,0.0,0.0,0.0,0.0,0.0,0.0,0.0,0.0,0.0,-2.3579,-2.4222,-2.3207,0.0,0.0,0.0,0.0,0.0,-2.3613,-2.5236,-2.6438,-2.5845,-2.743,-2.8708,-2.7046,-2.6936,-2.7316,-2.7848,-2.9076,-3.0605,0.0,0.0,-3.7441,-4.0855,0.0,0.0,0.0,0.0,0.0,0.0,0.0,0.0,0.0,0.0,0.0,0.0,0.0,0.0,0.0,0.0,0.0,0.0,0.0,-4.8913,-4.9877,-4.9521,-4.9998,-5.1304,-4.9618,-4.8592,-4.812,-4.6794,-4.621,0.0,0.0,-4.621,-4.6244,-4.6616,-4.6786,-4.6819,-4.7259,-4.7868,-4.8409,-4.7597,-4.7327,-4.709,0.0,0.0,0.0,0.0,0.0,0.0,0.0,0.0,0.0,0.0,0.0,0.0,0.0,0.0,0.0,0.0,0.0,0.0,0.0,-2.5101,-2.6454,-2.8367,-2.8976,-2.9939,-3.134,-3.2307,-3.4641,-3.843,-3.8802,-3.958,-4.0569,-3.5971,-3.2973,-3.134,-2.8423,-2.6598,-2.5597,-2.4298,-2.3571,-2.3197,0.0,0.0,0.0,0.0,0.0,0.0,0.0,0.0,0.0,0.0,0.0,0.0,0.0,0.0,0.0,-2.297,-2.2699,-2.2767,-2.368,-2.4864,-2.5981,-2.6556,-2.8543,-3.0123,-2.9482,-2.9158,-2.9483,-3.1324,-3.1885,-3.2658,0.0,-3.7077,0.0,0.0,0.0,0.0,0.0,0.0,0.0,0.0,0.0,0.0,0.0,0.0,0.0,0.0,0.0,0.0,0.0,0.0,0.0,0.0,0.0,0.0,-4.9142,-4.8076,-4.8322,-4.9923,-4.8297,-4.7298,-4.6813,-4.589,-4.5432,-4.5432,-4.5432,-4.5432,-4.55,-4.6041,-4.6481,-4.6819,-4.7225,-4.797,-4.8612,-4.7462,-4.6955,-4.6616,0.0,0.0,0.0,0.0,0.0,0.0,0.0,0.0,0.0,0.0,0.0,0.0,0.0,0.0,0.0,0.0,0.0,0.0,0.0,-2.4797,-2.5981,-2.6843,-2.889,-3.1644,-3.5126,-3.4641,-3.6197,-3.9927,-3.9309,-3.9039,-3.9106,-3.5989,-3.3694,-3.2104,-2.9132,-2.715,-2.5849,-2.4035,-2.3211,-2.2963,-2.1116,0.0,0.0,0.0,0.0,0.0,0.0,0.0,0.0,0.0,0.0,0.0,0.0,0.0,-2.4406,-2.4372,-2.3864,-2.3613,-2.5067,-2.6015,-2.6623,-2.6708,-2.7911,-2.9585,-3.1341,-3.1634,-3.1994,-3.372,-3.481,-3.5374,0.0,-3.9103,0.0,0.0,0.0,0.0,0.0,0.0,0.0,0.0,0.0,0.0,0.0,0.0,0.0,0.0,0.0,0.0,0.0,0.0,0.0,0.0,0.0,0.0,-4.6829,-4.6741,-4.8041,-5.0684,-4.8041,-4.7089,-4.7544,-4.5581,-4.4682,-4.4682,-4.4682,-4.4682,-4.4682,-4.475,-4.5563,-4.6718,-4.6109,-4.6752,-4.7973,-4.7838,-4.7394,-4.6786,0.0,0.0,0.0,0.0,0.0,0.0,0.0,0.0,0.0,0.0,0.0,-2.2089,-2.2265,0.0,0.0,0.0,0.0,0.0,0.0,-2.3917,-2.5169,-2.7283,-2.8687,-3.0717,-3.3491,-3.5103,-3.7516,-4.0798,-4.0054,-3.9445,-3.8937,-3.5547,-3.3373,-3.2205,-2.9775,-2.837,-2.7742,-2.5763,-2.4681,-2.4089,-2.1813,-2.0959,0.0,0.0,0.0,0.0,0.0,0.0,0.0,0.0,-2.2262,-2.2733,-2.2733,-2.3207,-2.3729,-2.3274,-2.3241,-2.3511,-2.4086,-2.5439,-2.6793,-2.7266,-2.9076,-3.1044,-3.219,-3.372,-3.5346,-3.6899,-3.7933,-3.8679,0.0,0.0,0.0,0.0,0.0,0.0,0.0,0.0,0.0,0.0,0.0,0.0,0.0,0.0,0.0,0.0,0.0,0.0,0.0,0.0,0.0,0.0,0.0,0.0,0.0,-4.5287,-4.5525,-4.7356,-4.6414,-4.6065,-4.6295,-4.5152,-4.4615,-4.4615,-4.4615,-4.4615,-4.4615,-4.4615,-4.5196,-4.6143,-4.6312,-4.6718,-4.7158,-4.6718,-4.638,-4.6041,0.0,0.0,0.0,0.0,0.0,0.0,0.0,0.0,-2.0829,0.0,0.0,0.0,0.0,-2.2313,0.0,0.0,0.0,0.0,-2.3004,-2.3274,-2.4526,-2.7012,-2.8078,-2.9788,-3.2259,-3.4798,-3.7415,-4.0155,-4.0121,-3.9478,-3.8227,-3.5258,-3.355,-3.2882,-3.0797,-2.978,-2.9548,-2.7326,-2.5905,-2.4979,-2.2382,-2.1227,0.0,0.0,0.0,0.0,0.0,0.0,0.0,0.0,-2.1809,-2.2157,-2.2521,-2.3004,-2.3342,-2.3071,-2.3173,-2.341,-2.341,-2.4831,-2.6522,-2.7249,-2.9719,-3.237,-3.3881,-3.5634,-3.761,-3.985,-4.0598,-4.1181,-4.2298,0.0,0.0,0.0,0.0,0.0,0.0,0.0,0.0,0.0,0.0,0.0,0.0,0.0,0.0,0.0,0.0,0.0,0.0,0.0,0.0,0.0,0.0,0.0,0.0,-4.4023,-4.3675,-4.4386,-4.4674,-4.4905,-4.5122,-4.4538,-4.435,-4.4615,-4.4615,-4.4615,-4.4615,-4.4615,-4.5026,-4.5771,-4.6244,-4.6583,-4.6718,-4.5974,-4.5703,-4.5635,0.0,0.0,0.0,0.0,0.0,0.0,0.0,0.0,-2.0172,-2.143,-2.1244,0.0,0.0,0.0,0.0,0.0,0.0,0.0,-2.2313,-2.297,-2.4052,-2.5525,-2.7012,-2.9176,-3.2192,-3.3715,-3.5588,-3.7889,-3.9352,-3.8937,-3.6761,-3.5216,-3.4506,-3.437,-3.2205,-3.119,-3.1002,-2.8348,-2.6598,-2.536,-2.262,-2.131,-2.0878,0.0,0.0,0.0,0.0,0.0,0.0,0.0,-2.1597,-2.1804,-2.3022,-2.341,-2.3545,-2.4271,-2.3966,-2.341,-2.341,-2.4492,-2.5795,-2.6556,-2.9551,-3.3237,-3.6803,-3.7474,-3.8434,-4.2407,-4.2723,-4.2646,-4.3769,-4.4772,0.0,0.0,0.0,0.0,0.0,0.0,0.0,0.0,0.0,0.0,0.0,0.0,0.0,0.0,0.0,0.0,0.0,0.0,0.0,0.0,0.0,0.0,0.0,-4.2943,-4.2943,-4.2313,-4.2968,-4.3672,-4.435,-4.3693,-4.3842,-4.4615,-4.4615,-4.4615,-4.4615,-4.4615,-4.5026,-4.5703,-4.5703,-4.6143,-4.6684,-4.5974,-4.5703,-4.5703,0.0,0.0,0.0,0.0,0.0,0.0,0.0,0.0,-2.0261,-2.0634,-2.0878,0.0,0.0,0.0,0.0,0.0,0.0,0.0,-2.2313,-2.2482,-2.3274,-2.4778,-2.5744,-2.7148,-2.9075,-3.1123,-3.3795,-3.7134,-3.755,-3.7144,-3.5926,-3.4945,-3.4201,-3.3694,-3.3051,-3.1901,-3.0306,-2.8624,-2.6911,-2.5263,-2.3957,-2.2352,-2.08,0.0,0.0,0.0,0.0,0.0,0.0,0.0,0.0,0.0,-2.2329,-2.3149,-2.3663,-2.3119,-2.3511,-2.4169,-2.4169,-2.5236,-2.6928,-2.9262,-3.1867,-3.4672,-3.7876,-3.886,-4.0054,-4.337,-4.3536,-4.3172,-4.3536,0.0,0.0,0.0,0.0,0.0,0.0,0.0,0.0,0.0,0.0,0.0,0.0,0.0,0.0,0.0,0.0,0.0,0.0,0.0,0.0,0.0,0.0,0.0,0.0,0.0,-4.1716,-4.1542,-4.1742,-4.2466,-4.3693,-4.3484,-4.3842,-4.4615,-4.4615,-4.4615,-4.4615,-4.4615,-4.475,-4.4925,-4.4925,-4.5089,-4.5224,-4.5021,-4.4925,-4.4925,0.0,0.0,0.0,0.0,0.0,0.0,-1.9708,-1.9909,-2.0124,-2.0265,-2.0565,-2.0959,0.0,0.0,0.0,-2.2251,-2.2313,0.0,-2.2313,-2.255,-2.3274,-2.444,-2.5203,-2.6454,-2.8247,-3.048,-3.2442,-3.4134,-3.473,-3.4764,-3.4303,-3.4438,-3.4573,-3.4742,-3.5047,-3.3931,-3.1745,-3.0389,-2.8448,-2.6194,-2.5056,-2.3417,-2.1695,0.0,0.0,0.0,0.0,0.0,0.0,0.0,0.0,0.0,-2.1794,-2.2575,-2.3143,-2.2493,-2.2936,-2.3695,-2.4,-2.5575,-2.7807,-3.0514,-3.3322,-3.622,-3.9174,-4.088,-4.2377,0.0,-4.4347,-4.3959,-4.4136,0.0,0.0,0.0,0.0,0.0,0.0,0.0,0.0,0.0,0.0,0.0,0.0,0.0,0.0,0.0,0.0,0.0,0.0,0.0,0.0,0.0,0.0,0.0,0.0,0.0,0.0,-4.0764,-4.0764,-4.1373,-4.2557,-4.2557,-4.3098,-4.4147,-4.4479,-4.4615,-4.4615,-4.4615,-4.4615,-4.4615,-4.4615,-4.4615,-4.4615,-4.4615,-4.4615,-4.4615,0.0,0.0,-1.9744,-1.9708,0.0,0.0,-1.9708,-1.9708,-1.9821,-2.021,-2.0261,-2.0551,0.0,0.0,0.0,-2.2194,-2.2237,-2.2237,-2.2237,-2.2912,-2.3669,-2.4428,-2.539,-2.6928,-2.9044,-3.1007,-3.1345,-3.0006,-3.1481,-3.2192,-3.2226,-3.3783,-3.5204,-3.6524,-3.7246,-3.6299,-3.3998,-3.253,-3.0258,-2.7498,-2.5887,-2.4397,-2.3071,-2.2498,0.0,0.0,0.0,0.0,0.0,0.0,0.0,0.0,-2.143,-2.189,-2.2295,-2.2257,-2.2257,-2.2541,-2.3429,-2.571,-2.8398,-3.0954,-3.4404,-3.7912,-4.0595,-4.2828,-4.4621,-4.5432,0.0,-4.485,0.0,0.0,0.0,0.0,0.0,0.0,0.0,0.0,0.0,0.0,0.0,0.0,0.0,0.0,0.0,0.0,0.0,0.0,0.0,0.0,0.0,0.0,0.0,0.0,0.0,0.0,0.0,0.0,-4.0113,-4.0451,-4.1102,-4.117,-4.1982,-4.3341,-4.4147,-4.4513,-4.4513,-4.4581,-4.4615,-4.4615,-4.4615,-4.4615,-4.4615,-4.4615,-4.4615,-4.4615,0.0,0.0,-2.0072,-1.9762,0.0,0.0,-1.9708,-1.9708,-1.9744,-1.9821,-1.9821,-2.0032,-2.0517,-2.0926,0.0,-2.172,-2.1749,-2.1749,-2.1749,-2.2442,-2.3187,-2.4,-2.674,-2.8755,-2.9837,-2.9754,-2.9551,-2.9247,-3.0717,-3.1427,-3.1481,-3.3525,-3.437,-3.4167,-3.4912,-3.366,-3.0954,-2.9413,-2.783,-2.6356,-2.5764,-2.432,-2.2522,-2.2255,-2.1113,0.0,0.0,0.0,0.0,0.0,0.0,0.0,-2.1102,-2.1601,-2.2085,-2.184,-2.2177,-2.3132,-2.5359,-2.6894,-2.8906,-3.3503,-3.7483,-4.0426,-4.1068,-4.2016,-4.3166,-4.4553,-4.5162,0.0,0.0,0.0,0.0,0.0,0.0,0.0,0.0,0.0,0.0,0.0,0.0,0.0,0.0,0.0,0.0,0.0,0.0,0.0,0.0,0.0,0.0,0.0,0.0,0.0,-4.0113,-4.0113,-4.0113,0.0,-4.0113,-4.018,-4.0383,-4.0933,-4.1677,-4.2591,-4.3335,-4.3673,-4.3707,-4.4316,-4.4615,-4.4615,-4.4615,-4.4615,-4.4615,-4.4615,-4.4615,-4.4615,0.0,0.0,0.0,0.0,0.0,0.0,0.0,0.0,-1.9708,-1.9708,-1.9874,-2.0141,-2.0599,-2.1039,0.0,0.0,-2.1597,-2.1521,-2.1322,-2.2177,-2.3288,-2.4662,-2.7095,-2.8281,-2.7959,-2.7909,-2.7723,-2.7368,-2.8146,-2.9431,-3.1224,-3.3085,-3.4336,-3.5013,-3.5047,-3.3592,-3.1055,-2.9548,-2.8104,-2.6783,-2.6013,-2.487,-2.359,-2.3024,-2.165,-2.0072,-2.0764,0.0,0.0,0.0,0.0,0.0,0.0,0.0,-2.1633,-2.1849,-2.2292,-2.3123,-2.5107,-2.7232,-3.0156,-3.5397,-3.8971,-4.1204,-4.1204,-4.1779,-4.2523,-4.3328,-4.3809,0.0,0.0,0.0,0.0,0.0,0.0,0.0,0.0,0.0,0.0,0.0,0.0,0.0,0.0,0.0,0.0,0.0,0.0,0.0,0.0,0.0,0.0,0.0,0.0,0.0,-4.0113,-4.0113,-4.0113,-4.0113,-4.0113,-4.0113,-4.0146,-4.0865,-4.1407,-4.1813,-4.2557,-4.2861,-4.2929,-4.3707,-4.4012,-4.4045,-4.4445,-4.4615,-4.4615,-4.4615,-4.4615,-4.4615,0.0,0.0,0.0,0.0,0.0,0.0,0.0,0.0,0.0,-1.9909,-2.021,-2.0549,-2.0845,-2.1244,-2.146,0.0,0.0,0.0,-2.091,-2.1956,-2.3438,-2.5428,-2.6742,-2.6911,-2.5812,-2.6251,-2.6285,-2.5778,-2.5778,-2.7706,-3.1427,-3.2645,-3.4336,-3.6389,-3.5588,-3.4066,-3.1989,-3.0243,-2.8703,-2.7316,-2.5925,-2.5073,-2.448,-2.3605,-2.2083,-2.0451,-2.0862,-2.0764,-2.0364,-1.9945,0.0,0.0,0.0,0.0,-2.1118,-2.1783,-2.2225,-2.2809,-2.4052,-2.7367,-3.163,-3.6502,-3.9276,-4.0865,-4.0967,-4.1474,-4.1914,-4.1914,0.0,0.0,0.0,0.0,0.0,0.0,0.0,0.0,0.0,0.0,0.0,0.0,0.0,0.0,0.0,0.0,0.0,0.0,0.0,0.0,0.0,0.0,0.0,0.0,0.0,-4.0113,-4.0113,-4.0113,-4.0113,-4.0113,-4.0113,-4.0113,-4.0113,-4.073,-4.1001,-4.1035,-4.1779,-4.2117,-4.2185,-4.3064,-4.3375,-4.3477,-4.4282,-4.4615,-4.4615,-4.4615,-4.4615,-4.4615,0.0,0.0,0.0,0.0,0.0,0.0,0.0,0.0,0.0,0.0,-2.0862,-2.078,-2.0417,-2.0813,-2.0926,-2.0501,-2.0467,-2.0451,-2.0383,0.0,0.0,-2.4995,-2.5597,-2.6116,-2.6522,-2.6015,-2.6015,-2.6556,-2.6556,-2.845,-3.2158,-3.2361,-3.3309,-3.4776,-3.4032,-3.2814,-3.1157,-2.8349,-2.6657,-2.5761,-2.4314,-2.3425,-2.2928,-2.2156,-2.1469,-2.091,-2.0975,-2.0959,-2.0845,-2.0381,-2.0582,0.0,0.0,0.0,-2.0943,-2.0634,-2.1119,-2.2088,-2.357,-2.7894,-3.2801,-3.6118,-3.8125,-3.9445,0.0,0.0,-4.0383,0.0,0.0,0.0,0.0,0.0,0.0,0.0,0.0,0.0,0.0,0.0,0.0,0.0,0.0,0.0,0.0,0.0,0.0,0.0,0.0,0.0,0.0,0.0,-4.0113,-4.0113,-4.0113,0.0,-4.0113,-4.0113,-4.0113,-4.0113,-4.0113,-4.0113,-4.0113,-4.0214,-4.0248,-4.0282,-4.1035,-4.1339,-4.1441,-4.2801,-4.3375,-4.3477,-4.4282,-4.4615,-4.4615,-4.4615,-4.4615,-4.4615,0.0,0.0,0.0,0.0,0.0,0.0,0.0,0.0,0.0,0.0,0.0,-2.126,-2.1038,-2.143,-2.1554,-2.1054,-2.1023,-2.1023,-2.1023,-2.1924,-2.2931,-2.4058,-2.4685,-2.4932,-2.4831,-2.4526,-2.4526,-2.4831,-2.4831,-2.7216,-3.1684,-3.2124,-3.3783,-3.6332,-3.4303,-3.3051,-3.2205,-2.8789,-2.7114,-2.6708,-2.5236,-2.4518,-2.4208,-2.3055,-2.2345,-2.1889,-2.1467,-2.1337,-2.1275,-2.0845,-2.0829,-2.0926,-2.0549,0.0,0.0,0.0,-2.1247,-2.2492,-2.533,-2.8223,-3.1278,-3.4663,-3.666,-3.8082,-3.9233,-3.9808,-4.0113,0.0,0.0,0.0,0.0,0.0,0.0,0.0,0.0,0.0,0.0,0.0,0.0,0.0,0.0,0.0,0.0,0.0,0.0,0.0,0.0,0.0,-4.0113,-4.0113,-4.0113,-4.0113,-4.0113,0.0,-4.0113,-4.0113,-4.0113,-4.0113,-4.0113,-4.0113,-4.0113,-4.0113,-4.0113,-4.0146,-4.0865,-4.0967,-4.0696,-4.2185,-4.2557,-4.2252,-4.2997,-4.3538,-4.3944,-4.3944,-4.4215,-4.4615,0.0,0.0,0.0,0.0,0.0,0.0,0.0,0.0,0.0,0.0,0.0,-2.1735,-2.1612,0.0,0.0,0.0,-2.1445,-2.1399,-2.1291,-2.1904,-2.2403,-2.2775,-2.3523,-2.3695,-2.3139,-2.3105,-2.3207,-2.341,-2.3594,-2.6353,-3.1515,-3.2226,-3.4675,-3.8328,-3.5723,-3.4134,-3.3186,-2.9818,-2.8263,-2.7925,-2.5879,-2.5033,-2.4932,-2.3816,-2.3164,-2.2838,-2.235,-2.204,-2.1814,-2.1408,-2.1167,-2.0975,-2.0862,-2.0448,0.0,0.0,0.0,-2.2523,-2.5647,-2.7433,-2.9111,-3.207,-3.437,-3.6288,0.0,0.0,0.0,0.0,0.0,0.0,0.0,0.0,0.0,0.0,0.0,0.0,0.0,0.0,0.0,0.0,0.0,0.0,0.0,0.0,0.0,0.0,0.0,0.0,-4.0079,-3.991,-3.9842,-3.9842,-4.0011,-4.0011,-3.9842,-4.0011,-4.0113,-4.0113,-4.0113,-4.0113,-4.0113,-4.0113,-4.0113,-4.0146,-4.0663,-4.0696,-4.0485,-4.1576,-4.1813,-4.1542,-4.2083,-4.276,-4.3375,-4.3375,-4.391,-4.4615,0.0,0.0,0.0,0.0,0.0,0.0,0.0,0.0,0.0,0.0,0.0,-2.2075,-2.1642,-2.1612,-2.146,-2.1055,-2.1023,-2.0845,-2.0383,-2.0828,-2.1103,-2.1119,-2.1938,0.0,-2.2347,-2.2347,-2.2699,-2.341,-2.4101,-2.7114,-3.2259,-3.2983,-3.5723,-3.991,-3.8362,-3.6096,-3.3254,-3.0954,-2.9567,-2.8637,-2.4982,-2.3511,-2.3511,-2.3444,-2.3361,-2.3403,-2.3684,-2.3291,-2.2569,-2.2166,-2.1584,0.0,-2.0499,-2.0615,-2.078,0.0,0.0,0.0,-2.2619,-2.4862,-2.7029,-2.7925,-3.0866,-3.3795,0.0,0.0,0.0,0.0,0.0,0.0,0.0,0.0,0.0,0.0,0.0,0.0,0.0,0.0,0.0,0.0,0.0,0.0,0.0,0.0,0.0,0.0,0.0,0.0,-4.0045,-3.9436,-3.9039,-3.9039,-3.974,-3.9774,-3.9039,-3.9774,-4.0113,-4.0113,-4.0113,-4.0113,-4.0113,-4.0113,-4.0113,-4.0113,-4.0146,-4.0527,-4.117,-4.1238,-4.1644,-4.2252,-4.2286,-4.276,-4.3375,-4.3375,-4.391,-4.4615,0.0,0.0,0.0,0.0,0.0,0.0,0.0,0.0,0.0,0.0,0.0,0.0,0.0,-2.2046,-2.1988,-2.1857,-2.1842,-2.1749,-2.16,-2.1735,-2.1842,-2.1842,-2.2137,-2.2313,-2.2313,-2.2313,-2.2415,-2.2699,-2.297,-2.527,-2.9431,-3.0717,-3.2916,-3.5825,-3.6231,-3.6129,-3.5318,-3.1664,-3.0209,-3.0127,-2.6826,-2.5812,-2.6032,-2.412,-2.3985,-2.4713,0.0,0.0,0.0,0.0,0.0,0.0,0.0,0.0,0.0,-2.0615,-2.0747,-2.1247,-2.239,-2.3626,-2.5,-2.6657,-2.8856,-3.0886,-3.2104,0.0,0.0,0.0,0.0,0.0,0.0,0.0,0.0,0.0,0.0,0.0,0.0,0.0,0.0,0.0,0.0,0.0,0.0,0.0,0.0,0.0,0.0,0.0,-3.8667,-3.843,-3.8294,-3.8294,-3.9005,-3.9503,-3.9706,-3.9977,-4.0113,-4.0113,-4.0113,-4.0113,-4.0113,-4.0113,-4.0113,-4.0113,-4.0113,-4.0248,-4.0553,-4.1001,-4.1068,-4.0959,-4.1407,-4.2049,-4.276,-4.3234,-4.391,-4.4615,0.0,0.0,0.0,-2.2313,0.0,-2.2313,-2.2313,-2.2313,-2.2313,-2.2313,0.0,0.0,0.0,0.0,-2.3038,-2.3038,-2.2685,-2.2429,-2.2429,-2.2078,-2.193,-2.2046,-2.2061,-2.2152,-2.2313,-2.2313,-2.2313,-2.2313,-2.255,-2.4308,-2.7452,-2.8737,-3.063,-3.3051,-3.3537,-3.4742,-3.6197,-3.2949,-3.1867,-3.1968,-2.8213,-2.7469,-2.8297,-2.5829,-2.5981,0.0,0.0,0.0,0.0,0.0,0.0,0.0,0.0,0.0,0.0,0.0,-2.0991,-2.1183,-2.2112,-2.2842,-2.3816,0.0,-2.6911,-2.8247,-2.9736,0.0,0.0,0.0,0.0,0.0,0.0,0.0,0.0,0.0,0.0,0.0,0.0,0.0,0.0,0.0,0.0,0.0,0.0,0.0,0.0,0.0,0.0,0.0,-3.7889,-3.7686,-3.7652,-3.7889,-3.8396,-3.8971,-3.974,-3.9977,-4.0113,-4.0113,-4.0113,-4.0113,-4.0113,-4.0113,-4.0113,-4.0113,-4.0113,-4.0248,-4.0493,-4.073,-4.0696,-4.0493,-4.1001,-4.1644,-4.2388,-4.3132,-4.391,-4.4615,-2.2313,-2.2313,-2.2313,-2.2313,-2.2313,-2.2347,-2.2347,-2.2347,-2.2347,-2.2347,0.0,0.0,0.0,0.0,0.0,-2.4541,-2.3479,-2.2812,-2.2731,-2.1729,-2.1277,-2.1648,-2.1678,-2.1857,-2.2313,-2.2313,-2.2313,-2.2313,-2.3004,-2.4458,-2.6623,-2.735,-2.9296,-3.2056,-3.0683,-3.205,-3.5397,-3.4641,-3.4404,-3.4032,-2.8856,-2.8146,-3.0021,-2.8432,0.0,0.0,-3.0378,-2.9634,0.0,-2.642,0.0,0.0,0.0,0.0,0.0,0.0,0.0,0.0,0.0,0.0,0.0,0.0,0.0,0.0,-2.7333,0.0,0.0,0.0,0.0,0.0,0.0,0.0,0.0,0.0,0.0,0.0,0.0,0.0,0.0,0.0,0.0,0.0,0.0,0.0,0.0,0.0,0.0,-3.6242,-3.7753,-3.7144,-3.7077,-3.7855,-3.7889,-3.8227,-3.8971,-3.9706,-4.0079,-4.0113,-4.0113,-4.0113,-4.0113,-4.0113,-4.0113,-4.0113,-4.0113,-4.0493,-4.1102,-4.0417,-4.0493,-4.117,-4.1238,-4.1677,-4.2388,-4.3166,-4.3944,-4.4615,-2.2223,-2.2313,-2.2448,-2.3004,-2.3105,-2.3274,-2.3797,-2.3898,-2.3898,0.0,0.0,0.0,-2.4237,-2.532,-2.5895,-2.5338,-2.5478,-2.4979,-2.3523,-2.3484,-2.3416,-2.3128,-2.2979,-2.2969,-2.3105,-2.255,-2.2313,-2.2313,-2.2482,-2.3207,-2.4323,-2.5067,-2.6437,-2.8299,-2.901,-3.0176,-3.1576,-3.0818,-3.2056,-3.4134,-3.0025,-3.0006,-3.2205,0.0,0.0,0.0,0.0,-2.9973,-2.9533,0.0,-2.6911,-2.6286,0.0,0.0,0.0,0.0,0.0,0.0,-2.1567,0.0,0.0,0.0,0.0,0.0,-2.4032,-2.5296,0.0,0.0,0.0,0.0,0.0,0.0,0.0,0.0,0.0,0.0,0.0,0.0,0.0,0.0,0.0,0.0,0.0,0.0,0.0,0.0,-3.5554,-3.5802,-3.6208,-3.6039,-3.6299,-3.71,-3.71,-3.7686,-3.8971,-3.9174,-3.9571,-4.0113,-4.0113,-4.0113,-4.0113,-4.0113,-4.0113,-4.0113,-4.0113,-4.0214,-4.0383,-4.018,-4.0214,-4.0493,-4.1576,-4.2117,-4.2455,-4.3775,-4.4412,-4.4615,-2.2209,-2.255,-2.3004,-2.3729,-2.4372,-2.4898,-2.5354,-2.5422,-2.5422,0.0,0.0,0.0,-2.6336,-2.769,-2.801,-2.664,-2.6623,-2.6067,-2.4596,-2.4344,-2.4192,-2.4047,-2.3759,-2.3698,-2.3849,-2.3444,-2.3207,-2.3207,-2.3207,-2.3444,-2.3864,-2.4305,-2.5117,-2.6285,-2.7165,-2.8146,-2.9075,-2.8349,-3.0345,-3.3829,-3.1379,0.0,0.0,-3.2192,-3.2408,0.0,0.0,0.0,-3.2016,-2.9582,-2.8128,0.0,0.0,0.0,0.0,0.0,0.0,0.0,-2.2385,-2.2324,0.0,0.0,0.0,0.0,-2.306,-2.3523,-2.4012,0.0,0.0,0.0,0.0,0.0,0.0,0.0,0.0,0.0,0.0,0.0,0.0,0.0,0.0,0.0,0.0,0.0,0.0,0.0,-3.4607,-3.4822,-3.5115,-3.543,-3.5802,-3.6265,-3.6626,-3.7202,-3.8082,-3.8667,-3.9208,-3.9639,-3.9943,-4.0113,-4.0113,-4.0113,-4.0113,-4.0113,-4.0113,-4.0113,-4.0113,-4.0113,-4.0113,-4.0248,-4.1711,-4.2286,-4.2489,-4.4039,-4.4615,-4.4615,0.0,-2.2907,-2.3699,-2.4615,-2.5931,-2.6928,-2.7266,-2.7165,-2.7165,0.0,-2.7435,-2.801,-2.9585,-3.0751,-3.0615,-2.8466,-2.7638,-2.6776,-2.5831,-2.488,-2.4413,-2.4666,-2.4313,-2.4246,-2.4609,-2.4541,-2.4508,-2.4508,-2.4508,-2.4508,-2.4508,-2.4508,-2.4846,-2.5473,-2.5559,-2.6336,-2.7553,-2.73,-2.9397,-3.2882,-3.2395,-3.4087,0.0,0.0,-3.6062,-3.7719,-3.6343,-3.5735,-3.5059,-3.1461,-2.8721,0.0,0.0,0.0,0.0,0.0,-2.3923,0.0,0.0,0.0,0.0,0.0,0.0,0.0,-2.344,-2.2881,-2.2271,0.0,0.0,0.0,0.0,0.0,0.0,0.0,0.0,0.0,0.0,0.0,0.0,0.0,0.0,0.0,0.0,0.0,-3.366,-3.4201,-3.3728,-3.3728,-3.4438,-3.5115,-3.5532,-3.56,-3.6299,-3.6728,-3.6795,-3.8159,-3.8903,-3.9005,-3.9774,-4.0113,-4.0113,-4.0113,-4.0113,-4.0113,-4.0113,-4.0113,-4.0113,-4.0113,-4.0113,-4.0248,-4.1711,-4.2286,-4.2489,-4.4039,-4.4615,-4.4615,-2.2338,-2.2988,-2.408,-2.6208,-2.7157,-2.8398,-3.0838,-3.0209,-3.0074,-3.1867,-3.2104,-3.2679,-3.4167,-3.3525,-3.2544,-3.1495,-3.077,-2.9316,-2.6969,-2.6954,-2.6654,-2.5741,-2.5414,-2.5325,-2.5372,-2.4812,-2.4508,-2.4508,-2.4508,-2.4508,-2.4508,-2.4508,-2.4575,-2.4745,-2.5338,-2.5778,-2.6201,-2.9093,0.0,-2.9958,-3.0987,0.0,-3.7584,-3.6694,-3.6975,-3.7855,-3.7584,-3.6648,-3.5126,-3.2036,-2.9465,-2.7519,0.0,0.0,0.0,-2.5761,0.0,0.0,0.0,0.0,0.0,0.0,0.0,0.0,-2.2763,-2.2332,-2.2002,0.0,0.0,0.0,0.0,0.0,0.0,0.0,0.0,0.0,0.0,0.0,0.0,0.0,0.0,0.0,0.0,0.0,-3.322,-3.2767,-3.3152,-3.3728,-3.4438,-3.4641,-3.4979,-3.5566,-3.5735,-3.6163,-3.6795,-3.7652,-3.8396,-3.9005,-3.9774,-4.0113,-4.0113,-4.0113,-4.0113,-4.0113,-4.0113,-4.0113,-4.0113,-4.0113,-4.0113,-4.0248,-4.1711,-4.2286,-4.2489,-4.4039,-4.4615,-4.4615,-2.2822,-2.3799,-2.524,-2.7623,-2.8844,-3.0378,-3.3004,-3.278,-3.2814,-3.4281,-3.5182,-3.5487,-3.5115,-3.4742,-3.3761,-3.1921,-3.1089,-2.9763,-2.7745,-2.8111,-2.7998,-2.71,-2.6837,-2.6708,-2.6708,-2.5981,-2.5591,-2.5591,-2.5591,-2.5591,-2.5591,-2.5591,-2.5422,-2.5067,-2.5812,-2.615,-2.6319,-2.8552,-2.9939,-3.0804,-3.2645,0.0,-3.6806,-3.7212,-3.7821,-3.8396,-3.8024,-3.6671,-3.4709,-3.2496,-3.0987,0.0,0.0,-2.7553,-2.7199,0.0,-2.6454,-2.615,0.0,0.0,0.0,-2.615,0.0,0.0,0.0,-2.2713,-2.2188,0.0,0.0,0.0,0.0,0.0,0.0,0.0,0.0,0.0,0.0,0.0,0.0,0.0,0.0,0.0,0.0,0.0,-3.0765,-3.1157,-3.2205,-3.3017,-3.3376,-3.4121,-3.4675,-3.5047,-3.5397,-3.5769,-3.6197,-3.7347,-3.8091,-3.8464,-3.9571,-4.0113,-4.0113,-4.0113,-4.0113,-4.0113,-4.0113,-4.0113,-4.0113,-4.0113,-4.0113,-4.0248,-4.1711,-4.2286,-4.2489,-4.4039,-4.4615,-4.4615,-2.3557,-2.47,-2.632,-2.8645,-3.0118,-3.1765,-3.4134,-3.4235,-3.4438,-3.5464,-3.7053,-3.7415,-3.5554,-3.552,-3.4754,-3.2679,-3.1021,-2.9816,-2.9152,-2.9038,-2.8706,-2.8053,-2.7903,-2.7852,-2.7824,-2.7095,-2.6792,-2.6894,-2.6759,-2.6691,-2.6691,-2.6691,-2.6454,-2.6032,-2.6488,-2.7029,-2.7604,-2.8027,0.0,-3.2496,0.0,-3.5566,-3.5994,-3.7212,-3.8227,-3.8903,-3.8159,-3.6637,-3.473,-3.3241,-3.2733,-3.2293,-2.9683,-2.9447,0.0,0.0,0.0,0.0,0.0,0.0,0.0,0.0,0.0,-2.5745,0.0,0.0,0.0,0.0,0.0,0.0,0.0,0.0,0.0,0.0,0.0,0.0,0.0,0.0,0.0,0.0,0.0,0.0,0.0,0.0,-2.8162,-2.9548,-3.0886,-3.1785,-3.209,-3.3376,-3.4201,-3.4472,-3.5081,-3.5464,-3.56,-3.7144,-3.7922,-3.7922,-3.9377,-4.0113,-4.0113,-4.0113,-4.0113,-4.0113,-4.0113,-4.0113,-4.0113,-4.0113,-4.0113,-4.0248,-4.1568,-4.2151,-4.2455,-4.3701,-4.4344,-4.4581,-2.469,-2.5146,-2.6387,-2.8846,-2.9786,-3.119,-3.4066,-3.341,-3.3275,-3.5329,-3.7516,-3.8768,-3.8497,-3.6772,-3.6005,-3.7043,-3.2814,0.0,-3.2697,-3.0427,-2.8669,-2.787,-2.7987,-2.7987,-2.7806,-2.719,-2.7138,-2.7689,-2.7029,-2.6691,-2.6691,-2.6691,-2.6996,-2.7519,-2.6962,-2.818,-3.0649,0.0,-3.0784,0.0,-3.3998,-3.5419,0.0,-3.6863,-3.7811,-3.8903,-3.8159,-3.7313,-3.6321,0.0,-3.4235,-3.4066,0.0,-3.1562,-3.0446,-3.2138,0.0,0.0,0.0,0.0,0.0,0.0,-2.9287,0.0,0.0,0.0,0.0,0.0,0.0,0.0,0.0,0.0,0.0,0.0,0.0,0.0,0.0,0.0,0.0,0.0,0.0,0.0,0.0,0.0,0.0,-2.7993,-2.889,-2.9958,-3.1258,-3.209,-3.3139,-3.4438,-3.4573,-3.4945,-3.56,-3.7144,-3.7922,-3.7922,-3.9377,-4.0113,-4.0113,-4.0113,-4.0113,-4.0113,-4.0113,-4.0113,-4.0113,-4.0113,-4.0113,-4.018,-4.1001,-4.1711,-4.232,-4.2489,-4.343,-4.4513,-2.6614,-2.7094,-2.816,-3.006,-3.06,-3.1596,-3.41,-3.5453,-3.6502,-3.7449,-3.914,-4.029,-4.029,0.0,0.0,-3.8531,0.0,-3.3342,0.0,0.0,-3.0143,-2.9896,-2.9488,-2.924,-2.9142,-2.8468,-2.8013,-2.779,-2.7486,-2.7131,-2.6691,-2.6691,-2.7097,-2.7756,-2.7029,0.0,-3.119,0.0,-3.1833,0.0,0.0,0.0,0.0,-3.6795,-3.7202,-3.7675,-3.7347,-3.6772,-3.5859,0.0,-3.4742,0.0,0.0,0.0,0.0,0.0,0.0,0.0,0.0,0.0,0.0,0.0,0.0,0.0,-2.7462,0.0,-2.5709,0.0,0.0,0.0,0.0,0.0,0.0,0.0,0.0,0.0,0.0,0.0,0.0,0.0,0.0,0.0,0.0,0.0,0.0,0.0,0.0,-2.8112,-2.9194,-3.0784,-3.1955,-3.2577,-3.3829,-3.4641,-3.4979,-3.6941,-3.7922,-3.7922,-3.9377,-4.0113,-4.0113,-4.0113,-4.0113,-4.0113,-4.0113,-4.0113,-4.0113,-4.0113,-4.0113,-4.0146,-4.0426,-4.1001,-4.1711,-4.2117,-4.2963,-4.3876,-2.8697,-2.889,-2.9416,-3.0683,-3.0886,-3.163,-3.3863,-3.6231,-3.799,-3.8633,-3.9817,0.0,-4.117,-4.0561,0.0,0.0,-3.7584,-3.5599,0.0,0.0,-3.1571,-3.1079,-3.0885,0.0,-3.0089,-2.9604,-2.9046,-2.8432,-2.8229,-2.7841,-2.7334,-2.7334,-2.7706,-2.8432,-2.8078,-2.96,-3.2374,0.0,-3.3491,-3.5723,-3.5893,-3.64,-3.71,-3.71,-3.6998,-3.6829,-3.7032,-3.6603,-3.5825,-3.5148,-3.6028,0.0,-3.3964,0.0,0.0,0.0,0.0,0.0,-3.2949,0.0,0.0,0.0,0.0,0.0,0.0,0.0,0.0,0.0,0.0,0.0,0.0,0.0,0.0,0.0,0.0,0.0,0.0,0.0,0.0,0.0,0.0,0.0,0.0,0.0,0.0,0.0,-2.5676,0.0,-2.7452,-2.9465,-3.0784,-3.119,-3.3152,-3.4404,-3.481,-3.6874,-3.8024,-3.8227,-3.9503,-4.0113,-4.0113,-4.0113,-4.0113,-4.0113,-4.0113,-4.0113,-4.0113,-4.0113,-4.0113,-4.0113,-4.0113,-4.0451,-4.0967,-4.1474,-4.2422,-4.3375,-3.0842,-2.9958,-2.9247,-3.0006,-3.0142,-3.0886,-3.3119,-3.4134,-3.5419,-3.7652,0.0,0.0,0.0,0.0,0.0,0.0,0.0,-3.7043,-3.7729,0.0,-3.2388,0.0,0.0,-3.1698,0.0,-3.0202,-3.0181,-3.0021,-2.9314,-2.8942,-2.8942,-2.8942,-2.9296,-3.0074,-3.0751,-3.2713,-3.5397,-3.4709,-3.6129,-3.8734,-3.7337,-3.7178,-3.7855,0.0,-3.7415,-3.6897,-3.7618,0.0,0.0,-3.8362,-3.887,0.0,0.0,0.0,0.0,0.0,0.0,0.0,0.0,0.0,0.0,-3.2835,0.0,0.0,0.0,0.0,-2.9543,0.0,0.0,0.0,0.0,0.0,0.0,0.0,0.0,0.0,0.0,0.0,0.0,0.0,0.0,0.0,0.0,0.0,0.0,0.0,-2.4135,0.0,-2.6657,-2.8231,-2.9721,-3.1157,-3.2645,-3.4134,-3.5532,-3.7121,-3.8261,-3.8971,-3.974,-4.0113,-4.0113,-4.0113,-4.0113,-4.0113,-4.0113,-4.0113,-4.0113,-4.0113,-4.0113,-4.0113,-4.0113,-4.0113,-4.0146,-4.018,-4.1542,-4.3274,-3.0608,-3.0516,-3.0514,-3.0784,-3.0818,-3.1562,-3.3795,-3.5622,-3.7719,0.0,-4.1914,0.0,0.0,-4.6143,-4.6109,0.0,0.0,-4.2151,-4.0899,-3.8024,0.0,0.0,0.0,-3.3837,0.0,0.0,-3.1853,-3.0818,-3.0074,-2.9465,-2.901,-2.901,-2.9653,-3.0852,-3.1089,-3.2577,0.0,0.0,0.0,0.0,0.0,-3.8971,-3.9884,0.0,0.0,-3.6829,-3.71,-3.7032,0.0,-3.7922,-3.8599,-3.8768,-3.755,-3.7483,-3.7652,-3.6671,-3.64,0.0,0.0,0.0,-3.6705,-3.4945,0.0,0.0,0.0,0.0,0.0,0.0,0.0,0.0,0.0,0.0,0.0,0.0,0.0,0.0,0.0,0.0,0.0,0.0,0.0,0.0,0.0,0.0,0.0,-2.2665,-2.3342,-2.4203,0.0,-2.7131,-2.889,-3.0412,-3.2374,-3.3863,-3.4878,-3.6907,-3.8024,-3.8294,-3.9537,-4.0113,-4.0113,-4.0113,-4.0113,-4.0113,-4.0113,-4.0113,-4.0113,-4.0113,-4.0383,-4.0832,-4.0832,-4.1136,-4.1474,-4.1001,-4.161,-4.2794,-3.1116,-3.1543,-3.1799,-3.1292,-3.163,-3.2747,-3.5001,-3.7449,0.0,0.0,-4.4248,0.0,-4.8748,0.0,-4.8917,0.0,-4.7564,-4.5568,-4.2489,-4.0764,0.0,-3.6468,-3.6671,0.0,0.0,0.0,0.0,0.0,0.0,-3.0557,-2.98,-2.9551,-3.007,-3.1224,-3.2002,-3.3152,-3.4641,-3.6728,-3.7574,0.0,0.0,-3.9715,0.0,0.0,-3.754,-3.7946,0.0,-3.7574,-3.7709,-3.843,-3.9005,-3.9199,-3.798,-3.8227,-3.8768,-3.755,-3.7516,-3.7922,-3.7922,-3.7922,0.0,-3.6332,-3.5453,0.0,-3.2442,0.0,0.0,0.0,0.0,0.0,0.0,0.0,0.0,0.0,0.0,0.0,0.0,-2.0553,0.0,0.0,0.0,0.0,0.0,0.0,-2.2313,-2.2313,-2.2733,-2.3458,0.0,0.0,-2.8229,-3.0021,-3.2273,-3.3897,-3.4878,-3.6907,-3.8024,-3.8294,-3.9537,-4.0113,-4.0113,-4.0113,-4.0113,-4.0113,-4.0113,-4.0113,-4.0113,-4.0113,-4.0527,-4.1204,-4.1204,-4.1644,-4.2219,-4.1779,-4.2049,-4.2861,-3.2455,-3.2929,-3.3017,-3.1664,-3.2577,0.0,0.0,0.0,-4.1813,0.0,-4.5534,-4.753,-4.9052,-4.9221,-4.9492,-5.0135,-4.956,-4.7293,-4.2895,-4.3267,0.0,0.0,-3.8024,-3.7449,-3.3761,0.0,0.0,0.0,0.0,-3.2011,-3.1254,-3.0575,-3.058,-3.1252,-3.3448,0.0,-3.4573,-3.7652,-3.8971,-3.9005,-3.9039,-3.9537,-4.0045,-3.8565,0.0,-4.0113,-3.9276,-3.9005,-3.9106,-3.9842,-4.0113,-3.9977,-3.9276,-3.9039,-3.8903,-3.8227,-3.8024,-3.8024,-3.8024,-3.8024,-3.7821,-3.71,0.0,0.0,0.0,0.0,-3.3802,0.0,0.0,0.0,0.0,0.0,0.0,0.0,0.0,0.0,0.0,0.0,0.0,0.0,0.0,0.0,0.0,-2.2313,-2.2313,-2.2313,-2.2313,-2.2936,0.0,0.0,0.0,-3.0055,-3.2273,-3.4112,-3.5633,-3.7144,-3.8261,-3.9005,-3.9774,-4.0113,-4.0113,-4.0113,-4.0113,-4.0113,-4.0113,-4.0113,-4.0146,-4.0146,-4.0595,-4.1305,-4.1305,-4.1745,-4.2388,-4.2354,-4.2828,-4.3572,-3.2573,-3.3381,-3.4269,0.0,-3.4788,-3.5622,0.0,0.0,0.0,0.0,-4.7868,-5.0033,-5.2131,-5.2334,-5.2198,-5.1758,-5.1555,0.0,0.0,0.0,0.0,-4.155,-4.1441,-4.0223,-3.7618,-3.6525,0.0,-3.3769,0.0,0.0,-3.0615,-2.9929,-2.9935,-3.0638,0.0,-3.3461,-3.3106,-3.6671,-3.8497,-3.9039,-3.9605,-4.0587,0.0,0.0,-4.0451,-4.1474,-3.9648,-3.9005,-3.9106,-3.9842,-4.0113,-4.0079,-3.9876,-3.9842,-3.9774,-3.9605,-3.9537,-3.9537,-3.9537,-3.9537,-3.9368,-3.8599,-3.7472,-3.6251,0.0,0.0,0.0,0.0,0.0,0.0,0.0,0.0,0.0,0.0,0.0,0.0,0.0,0.0,0.0,-2.273,0.0,0.0,0.0,-2.2313,-2.2313,-2.2313,-2.2313,-2.2936,0.0,0.0,0.0,-3.0818,-3.2544,-3.4404,-3.6468,-3.7415,-3.8261,-3.9005,-3.9774,-4.0113,-4.0113,-4.0113,-4.0113,-4.0113,-4.0113,-4.0417,-4.0933,-4.0933,-4.1677,-4.2834,-4.2834,-4.3335,-4.3938,-4.3335,-4.3606,-4.4316,-3.4008,-3.5519,0.0,-3.7077,0.0,0.0,-3.9783,0.0,0.0,-4.6447,-4.8714,0.0,-5.186,-5.2909,-5.3315,-5.2875,-5.2841,0.0,-4.9187,0.0,0.0,-4.3544,-4.2997,-4.1441,-3.8565,-3.7315,0.0,-3.3665,0.0,0.0,-3.0815,-2.9887,-3.0092,-3.1276,0.0,-3.3362,-3.3931,-3.7077,-3.8802,-3.9537,-3.9943,0.0,0.0,-4.0417,-4.062,-4.1196,-3.9943,-3.9503,-3.9512,-3.9977,-4.0113,-4.0113,-4.0113,-4.0113,-4.0113,-4.0113,-4.0113,-4.0113,-4.0113,-4.0113,-4.0011,-3.9605,-3.8623,-3.7451,-3.634,-3.5834,-3.5177,0.0,0.0,0.0,0.0,0.0,0.0,0.0,0.0,0.0,0.0,0.0,0.0,0.0,0.0,0.0,0.0,-2.2222,-2.2137,-2.2438,-2.2666,0.0,0.0,0.0,0.0,-3.1089,-3.2645,-3.4472,-3.6795,-3.7855,-3.8599,-3.9005,-3.9774,-4.0113,-4.0113,-4.0113,-4.0113,-4.0113,-4.0113,-4.0493,-4.1204,-4.1204,-4.2083,-4.3409,-4.3809,-4.4181,-4.4547,-4.4079,-4.4215,-4.4615,-3.6039,-3.8159,0.0,0.0,0.0,0.0,0.0,-4.3673,0.0,-4.6955,0.0,-5.0541,-5.0541,-5.23,-5.3518,-5.3518,0.0,-5.23,-4.9492,-4.9898,-4.8342,-4.4018,-4.3747,-4.2057,-3.8565,-3.8121,0.0,0.0,0.0,0.0,-3.1407,-3.0221,-3.0608,-3.2269,0.0,0.0,0.0,-3.7821,-3.914,-3.9842,-4.0011,-4.0113,-4.0113,-4.0113,-4.0113,-4.0113,-4.0113,-4.0113,-4.0113,-4.0113,-4.0113,-4.0113,-4.0113,-4.0113,-4.0113,-4.0113,-4.0113,-4.0113,-4.0113,-4.0113,-4.0113,-4.0113,-3.9571,-3.8663,-3.729,-3.6328,-3.5371,-3.4066,-3.2666,0.0,0.0,0.0,0.0,0.0,0.0,0.0,0.0,0.0,0.0,0.0,0.0,0.0,0.0,0.0,0.0,-2.2781,-2.3268,0.0,0.0,0.0,0.0,0.0,-3.2645,0.0,-3.7066,0.0,-3.9106,-3.9276,-3.9842,-4.0113,-4.0113,-4.0113,-4.0113,-4.0113,-4.0113,-4.0561,-4.1339,-4.1238,-4.2083,-4.3477,-4.4282,-4.4615,-4.4615,-4.4615,-4.4615,-4.4615,-3.7493,0.0,0.0,0.0,0.0,-4.4147,-4.5771,-4.7665,-4.9052,-4.9458,-5.1488,-5.2909,-5.2909,-5.3281,-5.3518,-5.3518,-5.3518,0.0,0.0,0.0,0.0,-4.6346,-4.5635,-4.4113,-4.1576,-3.9198,-3.7357,0.0,0.0,0.0,-3.1548,-3.0763,-3.0847,-3.1709,0.0,0.0,-3.5667,-3.6738,0.0,-3.8396,-3.9605,-4.0113,-4.0113,-4.0113,-4.0113,-4.0113,-4.0113,-4.0113,-4.0113,-4.0113,-4.0113,-4.0113,-4.0113,-4.0113,-4.0113,-4.0113,-4.0113,-4.0113,-4.0113,-4.0113,-4.0113,-4.0113,-3.9571,-3.8899,-3.8606,-3.7472,-3.628,-3.5492,-3.4127,-3.278,-3.1694,0.0,0.0,0.0,0.0,0.0,0.0,0.0,0.0,0.0,0.0,0.0,0.0,0.0,0.0,0.0,0.0,0.0,0.0,0.0,0.0,0.0,0.0,0.0,0.0,0.0,0.0,-4.0798,-4.035,-4.0113,-4.0113,-4.0113,-4.0113,-4.0113,-4.0113,-4.0857,-4.2049,-4.1441,-4.2083,-4.3477,-4.4282,-4.4615,-4.4615,-4.4615,-4.4615,-4.4615,0.0,0.0,0.0,0.0,0.0,0.0,0.0,-5.0405,0.0,-5.0236,-5.1048,-5.1725,-5.1725,-5.2807,-5.3518,-5.3518,-5.3112,-5.2401,-5.1252,-5.0845,-4.9661,-4.7462,-4.6312,0.0,-4.2354,-3.9437,-3.7569,-3.681,0.0,0.0,-3.3188,-3.2139,-3.2173,-3.3192,0.0,-3.5631,0.0,0.0,0.0,-3.8565,-3.9673,-4.0113,-4.0113,-4.0113,-4.0113,-4.0113,-4.0113,-4.0113,-4.0113,-4.0113,-4.0113,-4.0113,-4.0113,-4.0113,-4.0113,-4.0113,-4.0113,-4.0113,-4.0113,-4.0113,-4.0113,-4.0113,-3.9842,-3.9438,-3.9003,-3.779,-3.6454,-3.5419,-3.3971,-3.2641,-3.162,-3.0823,0.0,0.0,0.0,0.0,0.0,0.0,0.0,0.0,0.0,0.0,0.0,0.0,0.0,0.0,0.0,0.0,0.0,0.0,0.0,0.0,0.0,0.0,0.0,0.0,0.0,-4.0629,-4.0282,-4.0113,-4.0113,-4.0113,-4.0113,-4.0113,-4.0113,-4.0959,-4.232,-4.276,-4.283,-4.2792,-4.4102,-4.4327,-4.3977,-4.444,-4.4615,-4.4615,0.0,-4.4987,0.0,0.0,-4.7767,0.0,-4.9999,-5.2029,-5.2875,-5.1048,-5.0811,-5.0811,-5.0811,-5.2435,-5.345,-5.3281,-5.2672,-5.1928,-5.1014,-5.0405,-4.9424,-4.7939,-4.6786,-4.5128,-4.2828,-4.0189,-3.8412,0.0,0.0,0.0,0.0,0.0,0.0,0.0,0.0,0.0,0.0,0.0,-3.9005,-3.9039,-3.9808,-4.0113,-4.0113,-4.0113,-4.0113,-4.0113,-4.0113,-4.0113,-4.0113,-4.0113,-4.0113,-4.0113,-4.0113,-4.0113,-4.0113,-4.0113,-4.0113,-4.0113,-4.0113,-4.0113,-4.0113,-4.0113,-4.0113,-3.9927,-3.9315,-3.8041,-3.6621,-3.5231,-3.338,-3.1879,-3.1457,-3.1253,0.0,0.0,0.0,0.0,0.0,0.0,0.0,0.0,0.0,0.0,0.0,0.0,0.0,0.0,0.0,0.0,0.0,0.0,0.0,0.0,0.0,0.0,-3.8125,0.0,-4.0104,0.0,-3.9918,-3.9773,-3.961,-3.961,-3.961,-3.961,-3.9799,-4.0591,-4.191,-4.325,-4.3029,-4.1917,-4.3466,-4.3739,-4.3383,-4.3856,-4.4265,-4.4587,0.0,0.0,0.0,0.0,0.0,0.0,0.0,-5.2029,-5.3416,-5.3213,-5.3179,-5.3179,-5.3179,-5.3382,-5.3213,-5.2469,-5.2334,-5.1691,-5.0304,-5.0135,-4.9424,-4.7939,-4.777,-4.665,-4.4445,-4.2726,-4.1178,0.0,0.0,0.0,0.0,0.0,0.0,0.0,0.0,0.0,0.0,-3.8362,-3.9005,-3.9039,-3.9808,-4.0113,-4.0113,-4.0113,-4.0113,-4.0113,-4.0113,-4.0113,-4.0113,-4.0113,-4.0113,-4.0113,-4.0113,-4.0113,-4.0113,-4.0113,-4.0113,-4.0113,-4.0113,-4.0113,-4.0113,-4.0113,-4.0113,-4.0087,-4.0003,-3.8794,-3.731,-3.5966,-3.3032,-3.0827,-3.1292,-3.0944,-3.0707,0.0,0.0,0.0,0.0,0.0,0.0,0.0,0.0,0.0,0.0,0.0,0.0,0.0,0.0,0.0,0.0,0.0,0.0,0.0,0.0,-3.6603,-3.887,-3.9706,0.0,-4.0095,-3.9346,-3.8663,-3.8023,-3.8023,-3.8023,-3.808,-3.8718,-3.9451,-4.0165,-4.0994,-4.121,-4.1118,-4.1916,-4.2676,-4.3199,-4.252,-4.3259,-4.457,0.0,0.0,0.0,0.0,0.0,0.0,0.0,-5.2909,-5.3518,-5.3518,-5.3518,-5.3518,-5.3518,-5.3078,-5.2638,-5.2334,-5.1488,-5.071,-5.0135,-4.9695,-4.9187,-4.8612,-4.8142,-4.7293,-4.594,-4.3978,-4.2267,0.0,0.0,0.0,0.0,0.0,0.0,0.0,0.0,-3.7313,-3.7516,-3.8565,-3.9005,-3.9039,-3.9808,-4.0113,-4.0113,-4.0113,-4.0113,-4.0113,-4.0113,-4.0113,-4.0113,-4.0113,-4.0113,-4.0113,-4.0113,-4.0113,-4.0113,-4.0113,-4.0113,-4.0113,-4.0113,-4.0113,-3.9978,-3.9506,-3.974,-3.9978,-3.9473,-3.8253,-3.7046,-3.6497,-3.3872,-3.1627,-3.149,-3.161,-3.1607,0.0,0.0,0.0,0.0,0.0,0.0,0.0,0.0,0.0,0.0,0.0,0.0,0.0,0.0,0.0,0.0,0.0,0.0,-3.1469,0.0,-3.6259,-3.7611,-3.8802,-3.9154,-3.8728,-3.8408,-3.8076,-3.7793,-3.8208,-3.8626,-3.9042,-3.9787,-3.9959,-3.9849,-4.1087,-4.0985,-4.0112,-4.1465,-4.1885,-4.1756,-4.1949,-4.303,-4.4467,-5.1488,0.0,-5.0541,0.0,-5.1792,-5.1623,-5.3247,-5.3518,-5.3518,-5.3518,-5.3518,-5.3518,-5.3518,-5.2976,-5.257,-5.2334,-5.1352,-5.0541,-5.0135,-4.9593,-4.9221,-4.9018,-4.8511,0.0,-4.7158,-4.5038,-4.3285,-4.1832,-3.9514,0.0,0.0,0.0,0.0,0.0,-3.7868,-3.8362,-3.8937,-3.9648,-3.9952,-3.9986,-4.029,-4.0553,-4.0688,-4.0282,-4.0383,-4.0688,-4.0248,-4.0248,-4.0383,-4.018,-4.0113,-4.0113,-4.0113,-4.0113,-4.0113,-4.0113,-4.0113,-4.0113,-4.0113,-3.9927,-3.961,-3.9043,-3.9315,-3.961,-3.9016,-3.8101,-3.721,-3.6596,-3.432,-3.2437,-3.2138,-3.2149,-3.208,-3.1738,0.0,0.0,0.0,0.0,0.0,0.0,-2.5194,-2.4863,-2.4485,0.0,0.0,0.0,0.0,0.0,0.0,0.0,0.0,0.0,0.0,0.0,0.0,0.0,-3.8414,-3.744,-3.744,-3.7449,-3.7461,-3.809,-3.8779,-3.9439,-3.9754,-3.9776,-3.9663,-4.0562,-4.0331,-3.9517,-4.0972,-4.1216,-4.0789,-4.1534,-4.2716,-4.4036,-5.2131,-5.2266,-5.2536,-5.3348,-5.3484,-5.3484,-5.3518,-5.3518,-5.3518,-5.3518,-5.3518,-5.3518,-5.3518,-5.3484,-5.3179,-5.2367,-5.2266,-5.1657,-5.0202,-5.0067,-4.9763,0.0,0.0,-4.8646,-4.7906,-4.6236,-4.4706,-4.329,0.0,0.0,-3.7671,0.0,-3.8163,-3.8935,-4.0452,-4.117,-4.1204,-4.1948,-4.2252,-4.2185,-4.1474,-4.161,-4.2117,-4.0654,-4.0993,-4.2083,-4.062,-4.0561,-4.1068,-4.035,-4.0113,-4.0113,-4.0113,-4.0113,-4.0113,-4.0113,-4.0113,-4.0113,-4.0113,-3.9532,-3.8908,-3.8908,-3.8908,-3.8908,-3.8908,-3.8881,-3.8269,-3.6088,-3.3938,-3.2706,-3.3365,-3.2407,-3.1695,-3.2209,0.0,0.0,0.0,0.0,0.0,0.0,-2.799,-2.7836,-2.6576,0.0,0.0,0.0,0.0,0.0,0.0,0.0,0.0,-3.2564,-3.6011,0.0,-3.7801,-3.8519,-3.8129,-3.66,-3.66,-3.6565,-3.654,-3.7139,-3.7849,-3.8546,-3.7778,-3.8277,-3.9532,-3.8745,-3.8811,-3.9499,-4.0164,-4.0532,-4.0742,-4.1254,-4.2088,-4.3064,-5.3078,-5.3112,-5.3213,-5.345,-5.3518,-5.3518,-5.3518,-5.3518,-5.3518,-5.3518,-5.3518,-5.3518,-5.3518,-5.301,-5.257,0.0,-5.186,-5.1352,0.0,-5.0845,-5.0541,-4.9763,-4.9729,-4.939,-4.868,-4.7,-4.5407,-4.3913,0.0,0.0,0.0,-3.8167,-3.8879,-3.9641,-4.0742,-4.1474,-4.1982,-4.2185,-4.2286,-4.2286,-4.2049,-4.2083,-4.2252,-4.1805,-4.188,-4.2219,-4.1745,-4.1441,-4.117,-4.0933,-4.0519,-4.0113,-4.0113,-4.0113,-4.0113,-4.0113,-4.0113,-4.0113,-4.0113,-3.9532,-3.8772,-3.8274,-3.8133,-3.8019,-3.7438,-3.732,-3.6983,-3.5851,-3.4668,-3.3784,-3.3544,-3.3152,-3.2757,-3.2404,0.0,0.0,0.0,0.0,0.0,0.0,0.0,-2.6329,0.0,-2.6122,0.0,0.0,0.0,0.0,0.0,0.0,0.0,0.0,-3.5735,0.0,-3.704,-3.7233,-3.6813,-3.5878,-3.6332,-3.6984,-3.7793,-3.7973,-3.8472,-3.9138,-3.8887,-3.9043,-3.9471,-3.9187,-3.923,-3.9403,-3.9649,-4.004,-4.0535,-4.0658,-4.1937,-4.3568,-5.2973,-5.3213,-5.3518,-5.3518,-5.3518,-5.3518,-5.3518,-5.3518,-5.3518,-5.3518,-5.3518,-5.3518,-5.3518,-5.3044,0.0,-5.2739,-5.2334,-5.1961,-5.1657,-5.1352,-5.0879,-5.0135,-4.983,-4.9333,-4.8482,0.0,0.0,-4.4031,-4.1709,-3.9773,-3.8187,-3.9155,-3.9999,-4.073,-4.1633,-4.2455,-4.3132,-4.3132,-4.3132,-4.3132,-4.2828,-4.2895,-4.3125,-4.2523,-4.2658,-4.3037,-4.2131,-4.191,-4.1895,-4.0996,-4.0632,-4.0493,-4.0493,-4.0493,-4.0485,-4.018,-3.9901,-3.9714,-4.0003,-3.9102,-3.7987,-3.7819,-3.7557,-3.7352,-3.7438,-3.7263,-3.6929,-3.6521,-3.5613,-3.4757,-3.4325,-3.3637,-3.3043,-3.281,0.0,-3.0479,-2.9627,0.0,0.0,0.0,0.0,0.0,0.0,-2.7661,0.0,0.0,0.0,0.0,0.0,0.0,0.0,-3.3934,-3.5733,0.0,-3.6658,-3.6844,-3.6595,-3.5878,-3.6776,-3.7614,-3.8392,-3.8661,-3.902,-3.9373,-3.9373,-3.9373,-3.9373,-3.9373,-3.9373,-3.9433,-3.9948,-4.0247,-4.0487,-4.1235,-4.2251,-4.3302,-5.1993,-5.2662,0.0,0.0,-5.345,0.0,-5.3518,-5.3518,-5.3518,-5.3518,-5.3518,-5.3518,-5.3518,-5.3518,-5.3518,-5.3518,0.0,0.0,0.0,-5.1758,-5.1014,-5.0202,-4.9463,-4.8614,-4.7638,-4.6592,-4.5322,-4.3722,-4.157,-4.0217,-3.9565,-4.0562,-4.1438,-4.2174,-4.3111,-4.399,-4.475,-4.4626,-4.4598,-4.453,-4.367,-4.3743,-4.4243,-4.2827,-4.3164,-4.4125,-4.1886,-4.2048,-4.2947,-4.0734,-4.0519,-4.1193,-4.1193,-4.1193,-4.1058,-4.0307,-3.9573,-3.9109,-3.9773,-3.833,-3.6783,-3.7528,-3.7114,-3.6934,-3.8465,-3.8246,-3.7764,-3.7879,-3.6699,-3.5645,-3.5595,-3.3934,-3.2735,-3.3253,-3.124,-2.9565,-2.9452,0.0,0.0,0.0,0.0,0.0,0.0,-3.015,-3.0287,0.0,0.0,0.0,0.0,0.0,-3.3283,-3.4553,-3.5983,-3.669,-3.6662,-3.725,-3.7204,-3.6626,-3.7823,-3.8422,-3.8482,-3.914,-3.9373,-3.9373,-3.9373,-3.9373,-3.9373,-3.9373,-3.9373,-3.9559,-4.0816,-4.0965,-4.0696,-4.2542,-4.291,-4.256,0.0,0.0,-5.2277,-5.2277,-5.2939,-5.3518,-5.3518,-5.3518,-5.3518,-5.3518,-5.3518,-5.3518,-5.3518,-5.3518,-5.3518,-5.3518,-5.3518,-5.3416,-5.3247,-5.3044,-5.2367,-5.1014,-5.0092,-4.8961,-4.7605,-4.5992,-4.4359,-4.2697,-4.2196,-4.1602,-4.0943,-4.1832,-4.2745,-4.3647,-4.452,-4.5417,-4.6181,-4.4953,-4.445,-4.4321,-4.2894,-4.2452,-4.2582,-4.2225,-4.229,-4.2518,-4.1976,-4.2081,-4.2315,-4.1063,-4.0815,-4.1049,-4.1049,-4.1049,-4.0945,-4.0298,-3.999,-3.9578,-3.8604,-3.7499,-3.663,-3.6843,-3.6321,-3.6164,-3.7703,-3.744,-3.7233,-3.8414,-3.7427,-3.6353,-3.6322,-3.4637,-3.3156,-3.2764,-3.0964,-2.9435,-2.8876,0.0,0.0,0.0,-3.0,-3.0634,-3.0985,-3.0714,-3.0659,0.0,0.0,0.0,0.0,0.0,-3.4241,-3.4685,-3.5937,-3.6876,-3.7343,-3.6951,-3.7158,-3.7943,-3.8242,-3.8661,-3.917,-3.9349,-3.9373,-3.9373,-3.9373,-3.9373,-3.9373,-3.9373,-3.9373,-3.9463,-4.0307,-4.0846,-4.1265,-4.2222,-4.2791,-4.312,-4.9891,-5.0512,-5.1192,-5.1192,-5.2098,-5.2765,-5.2765,-5.3179,-5.3518,-5.3518,-5.3518,-5.3518,-5.3518,-5.3518,-5.3518,-5.3518,-5.3518,-5.3518,-5.3518,-5.3179,-5.2235,-5.0627,-4.9757,-4.8384,-4.6346,-4.5337,-4.4167,-4.2791,-4.2791,-4.2611,-4.2252,-4.2873,-4.3416,-4.3917,-4.4522,-4.5272,-4.6085,-4.4783,-4.4296,-4.428,-4.2976,-4.2269,-4.1981,-4.1981,-4.1981,-4.1949,-4.1528,-4.1726,-4.1904,-4.0737,-4.0608,-4.0959,-4.0959,-4.0959,-4.0834,-4.0114,-3.9744,-3.9365,-3.8485,-3.7215,-3.6162,-3.6499,-3.6267,-3.6267,-3.7434,-3.7372,-3.7309,-3.8226,-3.7469,-3.66,-3.66,-3.4912,-3.3275,-3.2617,-3.0851,-2.9472,-2.9116,-2.8786,0.0,-2.9894,-3.0582,-3.1212,-3.1899,-3.2198,-3.2347,-3.2407,0.0,0.0,-3.3873,-3.4831,-3.5294,-3.5065,-3.6041,-3.6863,-3.7504,-3.7402,-3.7853,-3.8871,-3.917,-3.9499,-3.9858,-3.9858,-3.9858,-3.9858,-3.9523,-3.9373,-3.9403,-3.9738,-3.9858,-3.9948,-4.0935,-4.1542,-4.1931,-4.2551,-4.303,-4.329,-4.88,-4.9416,-5.0204,-5.0358,-5.1229,-5.1957,-5.2101,-5.2904,-5.3518,-5.3518,-5.3518,-5.3518,-5.3518,-5.3518,-5.3518,-5.3518,-5.3518,-5.3518,-5.3518,-5.2875,-5.1732,-5.0014,-4.9117,-4.7497,-4.5005,-4.4816,-4.4311,-4.3439,-4.3529,-4.3589,-4.3599,-4.3724,-4.3877,-4.4031,-4.4075,-4.4649,-4.5439,-4.4324,-4.3941,-4.4069,-4.3035,-4.2257,-4.1783,-4.1783,-4.1847,-4.1811,-4.082,-4.1125,-4.1689,-4.0104,-4.0152,-4.0865,-4.0865,-4.0865,-4.0737,-4.0055,-3.9471,-3.8953,-3.8676,-3.7217,-3.5938,-3.6477,-3.6626,-3.683,-3.7586,-3.7746,-3.7779,-3.7934,-3.7301,-3.6723,-3.6631,-3.4912,-3.3305,-3.2736,-3.1001,-2.9741,-2.9741,0.0,-2.9475,-3.0672,-3.1481,-3.2258,-3.3036,-3.4023,-3.4472,-3.4113,-3.507,0.0,0.0,-3.6327,-3.6417,-3.5938,-3.6387,-3.6926,-3.7554,-3.8302,-3.899,-3.9589,-4.0217,-4.0546,-4.0546,-4.0457,-4.0397,-4.0367,-3.9709,-3.9433,-3.9619,-4.0157,-4.0457,-4.0666,-4.1931,-4.241,-4.247,-4.309,-4.329,-4.329,-4.7722,-4.8335,-4.9336,-5.0242,-5.1229,-5.2205,-5.311,-5.3382,-5.3518,-5.3518,-5.3518,-5.3518,-5.3518,-5.3518,-5.3518,-5.3518,-5.3518,-5.3518,-5.3518,-5.3382,-5.2504,-5.0704,-4.9206,-4.7585,-4.568,-4.4816,-4.4298,-4.4127,-4.4706,-4.4975,-4.4975,-4.4479,-4.4634,-4.5356,-4.4893,-4.521,-4.5963,-4.3878,-4.3028,-4.2942,-4.1423,-4.0746,-4.0656,-4.0656,-4.0988,-4.1321,-4.0052,-4.0532,-4.15,-3.994,-3.9982,-4.0738,-4.0738,-4.0738,-4.0704,-4.0603,-4.0111,-3.9299,-3.7953,-3.7368,-3.7135,-3.7255,-3.7255,-3.7492,-3.8262,-3.8456,-3.8464,-3.8607,-3.7994,-3.725,-3.6723,-3.4912,-3.3455,-3.3365,-3.1659,-3.0372,-3.0372,0.0,-3.1331,-3.2108,-3.3275,-3.4502,-3.5759,-3.5549,-3.5759,-3.6716,-3.6507,-3.6567,-3.7075,-3.7195,-3.7464,-3.7943,-3.7494,-3.7584,-3.8242,-3.9469,-4.0127,-4.0247,-4.0905,-4.1235,-4.1205,-4.0666,-4.0397,-4.0367,-3.9709,-3.9738,-4.0247,-4.0367,-4.0726,-4.1294,-4.2111,-4.241,-4.247,-4.309,-4.329,-4.329,-4.7366,-4.7679,-4.8157,-4.8625,-5.0405,-5.1502,-5.1032,-5.2543,-5.3413,-5.2507,-5.3169,-5.3625,-5.3225,-5.3194,-5.3305,-5.3484,-5.2487,-5.2062,-5.2592,-5.2627,-5.1592,-4.9266,-4.8491,-4.7286,-4.5595,-4.5071,-4.4855,-4.4855,-4.5155,-4.5304,-4.5274,-4.4616,-4.4529,-4.4947,-4.4278,-4.4548,-4.5348,-4.3758,-4.3155,-4.3226,-4.1987,-4.1235,-4.0935,-4.0935,-4.1115,-4.1265,-4.0277,-4.042,-4.083,-3.9763,-3.9666,-3.999,-3.999,-4.0233,-4.0446,-4.0112,-3.9538,-3.8766,-3.7687,-3.7404,-3.7494,-3.7853,-3.7943,-3.8047,-3.8395,-3.8497,-3.8519,-3.8654,-3.7805,-3.705,-3.7126,-3.5155,-3.3484,-3.3484,-3.1809,0.0,0.0,-3.154,-3.2019,-3.3395,-3.4442,-3.54,-3.6387,-3.6507,-3.6776,-3.7375,-3.7135,-3.7255,-3.7913,-3.7943,-3.8242,-3.8931,-3.8661,-3.8631,-3.8931,-3.9918,-4.0397,-4.0397,-4.1482,-4.1961,-4.1931,-4.1632,-4.1482,-4.1452,-4.0756,-4.0636,-4.0965,-4.1362,-4.1662,-4.2021,-4.2641,-4.288,-4.291,-4.32,-4.329,-4.329,-4.7309,-4.7309,-4.7366,-4.7624,-4.9439,-5.0557,-4.9537,-5.1674,-5.2921,-5.1595,-5.2695,-5.3286,-5.2403,-5.2506,-5.2675,-5.2797,-5.1336,-5.0627,-5.1155,-5.1192,-5.0256,-4.8106,-4.7669,-4.6773,-4.5346,-4.5454,-4.5544,-4.5544,-4.5693,-4.5753,-4.5753,-4.5095,-4.4706,-4.4496,-4.3828,-4.3883,-4.4396,-4.3464,-4.3227,-4.3389,-4.2689,-4.2081,-4.1662,-4.1662,-4.1713,-4.1743,-4.0905,-4.0726,-4.0756,-4.0098,-3.9858,-3.9858,-3.9858,-4.0217,-4.0516,-4.0038,-3.9499,-3.8931,-3.8272,-3.8212,-3.8452,-3.896,-3.908,-3.908,-3.908,-3.896,-3.8838,-3.8794,-3.7819,-3.7067,-3.7483,-3.5576,-3.4023,-3.4173,0.0,0.0,0.0,-3.2647,-3.2975,-3.4532,-3.5459,-3.6207,-3.6866,-3.7345,-3.7704,-3.7853,-3.7883,-3.8093,-3.8601,-3.8631,-3.8931,-3.9619,-3.9649,-3.9649,-3.9649,-4.0457,-4.0846,-4.0876,-4.2043,-4.262,-4.262,-4.247,-4.241,-4.2351,-4.1692,-4.1512,-4.1692,-4.2201,-4.25,-4.2641,-4.315,-4.329,-4.329,-4.329,-4.329,-4.329,-4.7309,-4.7309,-4.7624,-4.8512,-4.8872,-4.9497,-5.0985,-5.1414,-5.1556,-5.1414,-5.1989,-5.1972,-5.0698,-5.1147,-5.1282,-5.0691,-5.0474,-5.0009,-4.9094,-4.9013,-4.8932,-4.8748,-4.7236,-4.6077,-4.5304,-4.5933,-4.6262,-4.6262,-4.686,-4.716,-4.713,-4.6501,-4.5843,-4.5185,-4.4526,-4.3938,-4.3379,-4.271,-4.2479,-4.2496,-4.2449,-4.2381,-4.2321,-4.2321,-4.2671,-4.2991,-4.1773,-4.1752,-4.2141,-4.1482,-4.1235,-4.1235,-4.1235,-4.1265,-4.1332,-4.1302,-4.1205,-4.1025,-4.0367,-4.0636,-4.1115,-4.1145,-4.1175,-4.1175,-4.1175,-4.0696,-4.0068,-3.9481,-3.8756,-3.8098,-3.7503,-3.6271,-3.5549,-3.6178,0.0,0.0,-3.4264,-3.4831,-3.528,-3.54,-3.6507,-3.7524,-3.8182,-3.8302,-3.8571,-3.923,-3.926,-3.9254,-3.9313,-3.9349,-3.9649,-4.0307,-4.0337,-4.0337,-4.0337,-4.1632,-4.2261,-4.2261,-4.294,-4.323,-4.32,-4.2641,-4.241,-4.2351,-4.1692,-4.1752,-4.2321,-4.2381,-4.2731,-4.323,-4.326,-4.329,-4.329,-4.329,-4.329,-4.329,-4.7309,-4.7309,-4.7559,-4.8352,-4.937,-5.0089,-5.01,-5.1367,-5.1942,-5.0808,-5.1821,-5.228,-5.1372,-5.1132,-5.1083,-5.1023,-4.9456,-4.8584,-4.88,-4.821,-4.7861,-4.7861,-4.7254,-4.68,-4.6561,-4.68,-4.692,-4.692,-4.7189,-4.7309,-4.7309,-4.6621,-4.613,-4.5903,-4.5214,-4.4556,-4.3928,-4.3688,-4.3329,-4.297,-4.297,-4.297,-4.297,-4.297,-4.312,-4.317,-4.2312,-4.2201,-4.2291,-4.1632,-4.1422,-4.1422,-4.1422,-4.1692,-4.2021,-4.2021,-4.2021,-4.1961,-4.1722,-4.1542,-4.1422,-4.1422,-4.1422,-4.1422,-4.1422,-4.1175,-4.0816,-4.0157,-3.9499,-3.8811,-3.8153,-3.6985,-3.6327,-3.6956,0.0,-3.51,-3.6148,-3.6178,-3.6267,-3.6626,-3.7464,-3.8123,-3.8362,-3.8781,-3.932,-3.9978,-3.9649,-3.9768,-4.0606,-4.0636,-4.0756,-4.0995,-4.1414,-4.1452,-4.0995,-4.1961,-4.241,-4.241,-4.303,-4.329,-4.329,-4.306,-4.297,-4.294,-4.2701,-4.2731,-4.297,-4.297,-4.312,-4.329,-4.329,-4.329,-4.329,-4.329,-4.329,-4.329,-4.7578,-4.7608,-4.7818,-4.8476,-4.9573,-5.0201,-4.9659,-5.1,-5.1621,-5.0363,-5.1486,-5.2013,-5.1111,-5.0818,-5.0611,-5.0423,-4.8694,-4.7835,-4.8324,-4.7679,-4.7309,-4.7309,-4.7309,-4.7309,-4.7309,-4.7309,-4.7309,-4.7309,-4.7309,-4.7309,-4.7309,-4.683,-4.6531,-4.6249,-4.5843,-4.5244,-4.4616,-4.4616,-4.4377,-4.3958,-4.3958,-4.3798,-4.3618,-4.3828,-4.3648,-4.326,-4.306,-4.2851,-4.2611,-4.2132,-4.1983,-4.1983,-4.1983,-4.2312,-4.2671,-4.2671,-4.2671,-4.2701,-4.295,-4.2491,-4.1983,-4.1983,-4.1983,-4.1983,-4.1983,-4.1833,-4.1602,-4.1115,-4.0487,-3.9888,-3.9409,-3.8452,-3.7793,-3.8003,-3.7315,-3.6956,-3.7614,-3.7554,-3.7554,-3.8003,-3.8422,-3.8721,-3.8721,-3.914,-3.9679,-4.0337,-3.9978,-4.0217,-4.1324,-4.1602,-4.1722,-4.1722,-4.2312,-4.2462,-4.2013,-4.2432,-4.2671,-4.2671,-4.312,-4.329,-4.329,-4.329,-4.329,-4.329,-4.329,-4.329,-4.329,-4.329,-4.329,-4.329,-4.329,-4.329,-4.329,-4.329,-4.329,-4.329,-4.8177,-4.8297,-4.8506,-4.9209,-4.9329,-4.9494,-5.0106,-5.0196,-5.0196,-5.0196,-5.0764,-5.072,-4.9479,-4.9853,-4.9703,-4.8416,-4.8297,-4.8027,-4.7369,-4.7309,-4.7309,-4.7309,-4.7309,-4.7309,-4.7309,-4.7309,-4.7309,-4.7309,-4.7309,-4.7309,-4.7309,-4.7309,-4.695,-4.6279,-4.6279,-4.5963,-4.5304,-4.5304,-4.5304,-4.5304,-4.5304,-4.4915,-4.4377,-4.5035,-4.4496,-4.3379,-4.4077,-4.3898,-4.3319,-4.3319,-4.329,-4.329,-4.329,-4.329,-4.329,-4.329,-4.329,-4.3439,-4.4137,-4.3838,-4.329,-4.329,-4.329,-4.329,-4.329,-4.2851,-4.241,-4.241,-4.1871,-4.1422,-4.1422,-4.0846,-4.0187,-3.9493,-3.9439,-3.92,-3.8512,-3.902,-3.9439,-3.9439,-3.9439,-3.9403,-3.9403,-3.9403,-3.9709,-4.0367,-4.0427,-4.0696,-4.1354,-4.2051,-4.241,-4.241,-4.3,-4.329,-4.329,-4.329,-4.329,-4.329,-4.329,-4.329,-4.329,-4.329,-4.329,-4.329,-4.329,-4.329,-4.329,-4.329,-4.329,-4.329,-4.329,-4.329,-4.329,-4.329,-4.329,-4.329,-4.897,-4.903,-4.9194,-4.9823,-4.9942,-5.0182,-5.0794,-5.0883,-5.0883,-5.0883,-5.1109,-5.1079,-5.069,-5.0345,-5.0046,-4.9703,-4.9254,-4.873,-4.8027,-4.7997,-4.7788,-4.7339,-4.7309,-4.7309,-4.7309,-4.7309,-4.7309,-4.7309,-4.7309,-4.7309,-4.7309,-4.7309,-4.7189,-4.701,-4.701,-4.6651,-4.6022,-4.6022,-4.5753,-4.5304,-4.5304,-4.5185,-4.5035,-4.5214,-4.5035,-4.4736,-4.4915,-4.4885,-4.4706,-4.4706,-4.4407,-4.4018,-4.4018,-4.4018,-4.4018,-4.4018,-4.4347,-4.4646,-4.4377,-4.4496,-4.4586,-4.4137,-4.3648,-4.329,-4.329,-4.314,-4.291,-4.25,-4.2231,-4.1961,-4.1512,-4.1235,-4.1025,-4.0816,-4.0786,-4.0726,-4.0516,-4.0666,-4.0786,-4.0786,-4.0786,-4.0606,-4.0157,-4.0516,-4.0876,-4.1085,-4.1953,-4.2342,-4.2111,-4.2671,-4.303,-4.303,-4.32,-4.329,-4.329,-4.329,-4.329,-4.329,-4.329,-4.329,-4.329,-4.329,-4.329,-4.329,-4.329,-4.329,-4.329,-4.329,-4.329,-4.329,-4.329,-4.329,-4.329,-4.329,-4.329,-4.329,-4.9613,-4.9643,-4.9853,-5.0465,-5.0584,-5.0704,-5.1169,-5.1229,-5.1229,-5.1229,-5.1229,-5.1229,-5.1229,-5.0823,-5.0465,-5.0226,-4.9643,-4.9149,-4.8686,-4.8686,-4.8386,-4.7728,-4.7698,-4.7578,-4.7309,-4.7309,-4.7309,-4.7309,-4.7309,-4.7309,-4.7309,-4.7309,-4.7309,-4.7309,-4.7309,-4.707,-4.6711,-4.6711,-4.6471,-4.6082,-4.6082,-4.5933,-4.5723,-4.5992,-4.5753,-4.5334,-4.5603,-4.5514,-4.5304,-4.5304,-4.5035,-4.4706,-4.4706,-4.4706,-4.4706,-4.4706,-4.4975,-4.5274,-4.5155,-4.5185,-4.5274,-4.5155,-4.4616,-4.4007,-4.3738,-4.3888,-4.3928,-4.3269,-4.312,-4.294,-4.2282,-4.2162,-4.2073,-4.1841,-4.1983,-4.2073,-4.1841,-4.1811,-4.1811,-4.1811,-4.1572,-4.1235,-4.0816,-4.1145,-4.1542,-4.1782,-4.2731,-4.311,-4.2761,-4.312,-4.329,-4.329,-4.329,-4.329,-4.329,-4.329,-4.329,-4.329,-4.329,-4.329,-4.329,-4.329,-4.329,-4.329,-4.329,-4.329,-4.329,-4.329,-4.329,-4.329,-4.329,-4.329,-4.329,-4.329,-4.329,-4.329,-5.0166,-5.0285,-5.0465,-5.1109,-5.1229,-5.1229,-5.1229,-5.1229,-5.1229,-5.1229,-5.1229,-5.1229,-5.1229,-5.1229,-5.0913,-5.0315,-4.9733,-4.9389,-4.9389,-4.9389,-4.9045,-4.8416,-4.8416,-4.8147,-4.7489,-4.7369,-4.7309,-4.7309,-4.7309,-4.7309,-4.7309,-4.7309,-4.7309,-4.7309,-4.7309,-4.7309,-4.7309,-4.7309,-4.7309,-4.7309,-4.7309,-4.695,-4.6471,-4.707,-4.6531,-4.5544,-4.6172,-4.6022,-4.5454,-4.5394,-4.5394,-4.5394,-4.5394,-4.5394,-4.5394,-4.5394,-4.5424,-4.5603,-4.6172,-4.5903,-4.5603,-4.6172,-4.5903,-4.5274,-4.4556,-4.4855,-4.5125,-4.4526,-4.4407,-4.4197,-4.3499,-4.3379,-4.321,-4.259,-4.294,-4.312,-4.256,-4.25,-4.25,-4.25,-4.1961,-4.1534,-4.1474,-4.1512,-4.1782,-4.244,-4.3,-4.329,-4.329,-4.329,-4.329,-4.329,-4.329,-4.329,-4.329,-4.329,-4.329,-4.329,-4.329,-4.329,-4.329,-4.329,-4.329,-4.329,-4.329,-4.329,-4.329,-4.329,-4.329,-4.329,-4.329,-4.329,-4.329,-4.329,-4.329,-4.329,-5.099,-5.0973,-5.105,-5.1199,-5.1229,-5.1229,-5.1229,-5.1229,-5.1229,-5.1229,-5.1229,-5.1229,-5.1229,-5.1229,-5.1169,-5.102,-5.0391,-5.0032,-5.0032,-5.0032,-4.9733,-4.912,-4.9553,-4.9523,-4.8865,-4.7848,-4.7309,-4.7309,-4.7309,-4.7309,-4.7309,-4.7309,-4.7309,-4.7309,-4.7309,-4.7309,-4.7309,-4.7309,-4.7309,-4.7309,-4.7309,-4.7219,-4.71,-4.7249,-4.713,-4.689,-4.704,-4.701,-4.68,-4.6262,-4.6082,-4.6082,-4.6082,-4.6082,-4.6082,-4.6082,-4.6471,-4.68,-4.6369,-4.6591,-4.677,-4.6369,-4.6591,-4.6561,-4.5364,-4.5185,-4.5244,-4.5095,-4.5095,-4.4885,-4.4227,-4.4067,-4.3898,-4.324,-4.32,-4.323,-4.315,-4.312,-4.312,-4.312,-4.3,-4.2701,-4.2231,-4.2201,-4.247,-4.306,-4.323,-4.329,-4.329,-4.329,-4.329,-4.329,-4.329,-4.329,-4.329,-4.329,-4.329,-4.329,-4.329,-4.329,-4.329,-4.329,-4.329,-4.329,-4.329,-4.329,-4.329,-4.329,-4.329,-4.329,-4.329,-4.329,-4.329,-4.329,-4.329,-4.329,-5.1229,-5.1229,-5.1229,-5.1229,-5.1229,-5.1229,-5.1229,-5.1229,-5.1229,-5.1229,-5.1229,-5.1229,-5.1229,-5.1229,-5.1229,-5.1229,-5.09,-5.0674,-5.0674,-5.0674,-5.0375,-4.9763,-5.0016,-4.9942,-4.9329,-4.8596,-4.8087,-4.7788,-4.7788,-4.7608,-4.7309,-4.7309,-4.7309,-4.7309,-4.7309,-4.7309,-4.7309,-4.7309,-4.7309,-4.7309,-4.7309,-4.7309,-4.7309,-4.7309,-4.7309,-4.7309,-4.7309,-4.7309,-4.7249,-4.692,-4.68,-4.68,-4.68,-4.68,-4.68,-4.68,-4.704,-4.7219,-4.689,-4.704,-4.7219,-4.686,-4.704,-4.704,-4.6022,-4.6022,-4.6172,-4.5843,-4.5783,-4.5574,-4.4915,-4.4796,-4.4556,-4.3858,-4.3768,-4.3648,-4.3349,-4.329,-4.329,-4.329,-4.329,-4.317,-4.2851,-4.2821,-4.297,-4.326,-4.329,-4.329,-4.329,-4.329,-4.329,-4.329,-4.329,-4.329,-4.329,-4.329,-4.329,-4.329,-4.329,-4.329,-4.329,-4.329,-4.329,-4.329,-4.329,-4.329,-4.329,-4.329,-4.329,-4.329,-4.329,-4.329,-4.329,-4.329,-4.329,-4.3349,-5.1229,-5.1229,-5.1229,-5.1229,-5.1229,-5.1229,-5.1229,-5.1229,-5.1229,-5.1229,-5.1229,-5.1229,-5.1229,-5.1229,-5.1229,-5.1229,-5.1229,-5.1229,-5.1229,-5.1229,-5.0913,-5.0375,-5.0375,-5.0152,-4.9659,-4.9629,-4.9164,-4.8297,-4.8297,-4.7967,-4.7309,-4.7309,-4.7309,-4.7309,-4.7309,-4.7309,-4.7309,-4.7309,-4.7309,-4.7309,-4.7309,-4.7309,-4.7309,-4.7309,-4.7309,-4.7309,-4.7309,-4.7309,-4.7309,-4.7309,-4.7309,-4.7309,-4.7309,-4.7309,-4.7309,-4.7309,-4.7309,-4.7309,-4.7309,-4.7309,-4.7309,-4.7309,-4.7309,-4.716,-4.6621,-4.692,-4.716,-4.6621,-4.6459,-4.6292,-4.5603,-4.5454,-4.5244,-4.4586,-4.4496,-4.4287,-4.3708,-4.3529,-4.3499,-4.3618,-4.3529,-4.3469,-4.3469,-4.3349,-4.329,-4.329,-4.329,-4.329,-4.329,-4.329,-4.329,-4.329,-4.3409,-4.3409,-4.329,-4.3409,-4.3409,-4.329,-4.329,-4.329,-4.329,-4.329,-4.329,-4.329,-4.329,-4.329,-4.329,-4.329,-4.329,-4.329,-4.329,-4.329,-4.329,-4.329,-4.329,-4.3379,-5.1229,-5.1229,-5.1229,-5.1229,-5.1229,-5.1229,-5.1229,-5.1229,-5.1229,-5.1229,-5.1229,-5.1229,-5.1229,-5.1229,-5.1229,-5.1229,-5.1229,-5.1229,-5.1229,-5.1229,-5.1169,-5.1079,-5.1079,-5.105,-5.096,-5.096,-5.0062,-4.8297,-4.8297,-4.7967,-4.7309,-4.7309,-4.7309,-4.7309,-4.7309,-4.7309,-4.7309,-4.7309,-4.7309,-4.7309,-4.7309,-4.7309,-4.7309,-4.7309,-4.7309,-4.7309,-4.7309,-4.7309,-4.7309,-4.7309,-4.7309,-4.7309,-4.7309,-4.7309,-4.7309,-4.7309,-4.7309,-4.7309,-4.7309,-4.7309,-4.7309,-4.7309,-4.7309,-4.7279,-4.7189,-4.7249,-4.7279,-4.7189,-4.716,-4.698,-4.6322,-4.613,-4.5963,-4.5274,-4.5155,-4.5125,-4.5035,-4.4526,-4.4377,-4.4975,-4.4526,-4.4167,-4.4167,-4.3618,-4.329,-4.329,-4.329,-4.329,-4.329,-4.329,-4.329,-4.329,-4.3858,-4.3858,-4.329,-4.3898,-4.3858,-4.329,-4.329,-4.329,-4.329,-4.329,-4.329,-4.329,-4.329,-4.329,-4.329,-4.329,-4.329,-4.329,-4.329,-4.329,-4.329,-4.329,-4.329,-4.329,-5.1229,-5.1229,-5.1229,-5.1229,-5.1229,-5.1229,-5.1229,-5.1229,-5.1229,-5.1229,-5.1229,-5.1229,-5.1229,-5.1229,-5.1229,-5.1229,-5.1229,-5.1229,-5.1229,-5.1229,-5.1229,-5.1229,-5.1229,-5.1229,-5.1229,-5.1229,-5.0601,-4.9374,-4.9374,-4.8865,-4.7848,-4.7848,-4.7668,-4.7309,-4.7309,-4.7309,-4.7309,-4.7309,-4.7309,-4.7309,-4.7309,-4.7309,-4.7309,-4.7309,-4.7309,-4.7309,-4.7309,-4.7309,-4.7309,-4.7309,-4.7309,-4.7309,-4.7309,-4.7309,-4.7309,-4.7309,-4.7309,-4.7309,-4.7309,-4.7309,-4.7309,-4.7309,-4.7309,-4.7309,-4.7309,-4.7309,-4.7309,-4.7309,-4.7309,-4.7219,-4.692,-4.686,-4.6651,-4.5992,-4.5873,-4.5753,-4.5334,-4.5035,-4.4825,-4.4766,-4.4825,-4.4556,-4.3798,-4.3798,-4.3858,-4.3858,-4.3499,-4.3439,-4.3828,-4.3499,-4.3469,-4.3828,-4.3768,-4.3768,-4.3858,-4.3768,-4.3589,-4.329,-4.329,-4.329,-4.329,-4.329,-4.329,-4.329,-4.329,-4.329,-4.329,-4.329,-4.329,-4.329,-4.329,-4.329,-4.3379,-4.4167,-4.4197,-4.3947]},{"header":{"parameterUnit":"m.s-1","parameterCategory":1,"la1":30.6,"la2":28.766,"lo1":-90.7593,"lo2":-88.6598,"dy":0.0162,"dx":0.0183,"nx":116,"ny":114,"refTime":"2024-03-28T12:00:00:Z","depth":0,"parameterNumber":3,"parameterNumberName":"V-component_of_WINDS"},"data":[0.0,0.0,0.0,0.0,0.0,0.0,0.0,0.0,0.0,0.0,0.0,0.0,0.0,0.0,0.0,0.0,0.0,0.0,0.0,0.0,0.0,0.0,0.0,0.0,0.0,0.0,0.0,0.0,0.0,0.0,0.0,0.0,0.0,0.0,0.0,0.0,0.0,0.0,0.0,0.0,0.0,0.0,0.0,0.0,0.0,0.0,0.0,0.0,0.0,0.0,0.0,0.0,0.0,0.0,0.0,0.0,0.0,0.0,0.0,0.0,0.0,0.0,0.0,0.0,0.0,0.0,0.0,0.0,0.0,0.0,0.0,0.0,0.0,0.0,0.0,0.0,0.0,0.0,0.0,0.0,0.0,0.0,0.0,0.0,0.0,0.0,0.0,0.0,0.0,0.0,0.0,0.0,0.0,0.0,0.0,0.0,0.0,0.0,0.0,0.0,0.0,0.0,0.0,0.0,0.0,0.0,0.0,0.0,0.0,0.0,0.0,0.0,0.0,0.0,0.0,0.0,0.0,0.0,0.0,0.0,0.0,0.0,0.0,0.0,0.0,0.0,0.0,0.0,0.0,0.0,0.0,0.0,0.0,0.0,0.0,0.0,0.0,0.0,0.0,0.0,0.0,0.0,0.0,0.0,0.0,0.0,0.0,0.0,0.0,0.0,0.0,0.0,0.0,0.0,0.0,0.0,0.0,0.0,0.0,0.0,0.0,0.0,0.0,0.0,0.0,0.0,0.0,0.0,0.0,0.0,0.0,0.0,0.0,0.0,0.0,0.0,0.0,0.0,0.0,0.0,0.0,0.0,0.0,0.0,0.0,0.0,0.0,0.0,0.0,0.0,0.0,0.0,0.0,0.0,0.0,0.0,0.0,0.0,0.0,0.0,0.0,0.0,0.0,0.0,0.0,0.0,0.0,0.0,0.0,0.0,0.0,0.0,0.0,0.0,0.0,0.0,0.0,0.0,0.0,0.0,0.0,0.0,0.0,0.0,0.0,0.0,0.0,0.0,0.0,0.0,0.0,0.0,0.0,0.0,0.0,0.0,0.0,0.0,0.0,0.0,0.0,0.0,0.0,0.0,0.0,0.0,0.0,0.0,0.0,0.0,0.0,0.0,0.0,0.0,0.0,0.0,0.0,0.0,0.0,0.0,0.0,0.0,0.0,0.0,0.0,0.0,0.0,0.0,0.0,0.0,0.0,0.0,0.0,0.0,0.0,0.0,0.0,0.0,0.0,0.0,0.0,0.0,0.0,0.0,0.0,0.0,0.0,0.0,0.0,0.0,0.0,0.0,0.0,0.0,0.0,0.0,0.0,0.0,0.0,0.0,0.0,0.0,0.0,0.0,0.0,0.0,0.0,0.0,0.0,0.0,0.0,0.0,0.0,0.0,0.0,0.0,0.0,0.0,0.0,0.0,0.0,0.0,0.0,0.0,0.0,0.0,0.0,0.0,0.0,0.0,0.0,0.0,0.0,0.0,0.0,0.0,0.0,0.0,0.0,0.0,0.0,0.0,0.0,0.0,0.0,0.0,0.0,0.0,0.0,0.0,0.0,0.0,0.0,0.0,0.0,0.0,0.0,0.0,0.0,0.0,0.0,0.0,0.0,0.0,0.0,0.0,0.0,0.0,0.0,0.0,0.0,0.0,0.0,0.0,0.0,0.0,0.0,0.0,0.0,0.0,0.0,0.0,0.0,0.0,0.0,0.0,0.0,0.0,0.0,0.0,0.0,0.0,0.0,0.0,0.0,0.0,0.0,0.0,0.0,0.0,0.0,0.0,0.0,0.0,0.0,0.0,0.0,0.0,0.0,0.0,0.0,0.0,0.0,0.0,0.0,0.0,0.0,0.0,0.0,0.0,0.0,0.0,0.0,0.0,0.0,0.0,0.0,0.0,0.0,0.0,0.0,0.0,0.0,0.0,0.0,0.0,0.0,0.0,0.0,0.0,0.0,0.0,0.0,0.0,0.0,0.0,0.0,0.0,0.0,0.0,0.0,0.0,0.0,0.0,0.0,0.0,0.0,0.0,0.0,0.0,0.0,0.0,0.0,0.0,0.0,0.0,0.0,0.0,0.0,0.0,0.0,0.0,0.0,0.0,0.0,0.0,0.0,0.0,0.0,0.0,0.0,0.0,0.0,0.0,0.0,0.0,0.0,0.0,0.0,0.0,0.0,0.0,0.0,0.0,0.0,0.0,0.0,0.0,0.0,0.0,0.0,0.0,0.0,0.0,0.0,0.0,0.0,0.0,0.0,0.0,0.0,0.0,0.0,0.0,0.0,0.0,0.0,0.0,0.0,0.0,0.0,0.0,0.0,0.0,0.0,0.0,0.0,0.0,0.0,0.0,0.0,0.0,0.0,0.0,0.0,0.0,0.0,0.0,0.0,0.0,0.0,0.0,0.0,0.0,0.0,0.0,0.0,0.0,0.0,0.0,0.0,0.0,0.0,0.0,0.0,0.0,0.0,0.0,0.0,0.0,0.0,0.0,0.0,0.0,0.0,0.0,0.0,0.0,0.0,0.0,0.0,0.0,0.0,0.0,0.0,0.0,0.0,0.0,0.0,0.0,0.0,0.0,0.0,0.0,0.0,0.0,0.0,0.0,0.0,0.0,0.0,0.0,0.0,0.0,0.0,0.0,0.0,0.0,0.0,0.0,0.0,0.0,0.0,0.0,0.0,0.0,0.0,0.0,0.0,0.0,0.0,0.0,0.0,0.0,0.0,0.0,0.0,0.0,0.0,0.0,0.0,0.0,0.0,0.0,0.0,0.0,0.0,0.0,0.0,0.0,0.0,0.0,0.0,0.0,0.0,0.0,0.0,0.0,0.0,0.0,0.0,0.0,0.0,0.0,0.0,0.0,0.0,0.0,0.0,0.0,0.0,0.0,0.0,0.0,0.0,0.0,0.0,0.0,0.0,0.0,0.0,0.0,0.0,0.0,0.0,0.0,0.0,0.0,0.0,0.0,0.0,0.0,0.0,0.0,0.0,0.0,0.0,0.0,0.0,0.0,0.0,0.0,0.0,0.0,0.0,0.0,0.0,0.0,0.0,0.0,0.0,0.0,0.0,0.0,0.0,0.0,0.0,0.0,0.0,0.0,0.0,0.0,0.0,0.0,0.0,0.0,0.0,0.0,0.0,0.0,0.0,0.0,0.0,0.0,0.0,0.0,0.0,0.0,0.0,0.0,0.0,0.0,0.0,0.0,0.0,0.0,0.0,0.0,0.0,0.0,0.0,0.0,0.0,0.0,0.0,0.0,0.0,0.0,0.0,0.0,0.0,0.0,0.0,0.0,0.0,0.0,0.0,0.0,0.0,0.0,0.0,0.0,0.0,0.0,0.0,0.0,0.0,0.0,0.0,0.0,0.0,0.0,0.0,0.0,0.0,0.0,0.0,0.0,0.0,0.0,0.0,0.0,0.0,0.0,0.0,0.0,0.0,0.0,0.0,0.0,0.0,0.0,0.0,0.0,0.0,0.0,0.0,0.0,0.0,0.0,0.0,0.0,0.0,0.0,0.0,0.0,0.0,0.0,0.0,0.0,0.0,0.0,0.0,0.0,0.0,0.0,0.0,0.0,0.0,0.0,0.0,0.0,0.0,0.0,0.0,0.0,0.0,0.0,0.0,0.0,0.0,0.0,0.0,0.0,0.0,0.0,0.0,0.0,0.0,0.0,0.0,0.0,0.0,0.0,0.0,0.0,0.0,0.0,0.0,0.0,0.0,0.0,0.0,0.0,0.0,0.0,0.0,0.0,0.0,0.0,0.0,0.0,0.0,0.0,0.0,0.0,0.0,0.0,0.0,0.0,0.0,0.0,0.0,0.0,0.0,0.0,0.0,0.0,0.0,0.0,0.0,0.0,0.0,0.0,0.0,0.0,0.0,0.0,0.0,0.0,0.0,0.0,0.0,0.0,0.0,0.0,0.0,0.0,0.0,0.0,0.0,0.0,0.0,0.0,0.0,0.0,0.0,0.0,0.0,0.0,0.0,0.0,0.0,0.0,0.0,0.0,0.0,0.0,0.0,0.0,0.0,0.0,0.0,0.0,0.0,0.0,0.0,0.0,0.0,0.0,0.0,0.0,0.0,0.0,0.0,0.0,0.0,0.0,0.0,0.0,0.0,0.0,0.0,0.0,0.0,0.0,0.0,0.0,0.0,0.0,0.0,0.0,0.0,0.0,0.0,0.0,0.0,0.0,0.0,0.0,0.0,0.0,0.0,0.0,0.0,0.0,0.0,0.0,0.0,0.0,0.0,0.0,0.0,0.0,0.0,0.0,0.0,0.0,0.0,0.0,0.0,0.0,0.0,0.0,0.0,0.0,0.0,0.0,0.0,0.0,0.0,0.0,0.0,0.0,0.0,0.0,0.0,0.0,0.0,0.0,0.0,0.0,0.0,0.0,0.0,0.0,0.0,0.0,0.0,0.0,0.0,0.0,0.0,0.0,0.0,0.0,0.0,0.0,0.0,0.0,0.0,0.0,0.0,0.0,0.0,0.0,0.0,0.0,0.0,0.0,0.0,0.0,0.0,0.0,0.0,0.0,0.0,0.0,0.0,0.0,0.0,0.0,0.0,0.0,0.0,0.0,0.0,0.0,0.0,0.0,0.0,0.0,0.0,0.0,0.0,0.0,0.0,0.0,0.0,0.0,0.0,0.0,0.0,0.0,0.0,0.0,0.0,0.0,0.0,0.0,0.0,0.0,0.0,0.0,0.0,0.0,0.0,0.0,0.0,0.0,0.0,0.0,0.0,0.0,0.0,0.0,0.0,0.0,0.0,0.0,0.0,0.0,0.0,0.0,0.0,0.0,0.0,0.0,0.0,0.0,0.0,0.0,0.0,0.0,0.0,0.0,0.0,0.0,0.0,0.0,0.0,0.0,0.0,0.0,0.0,0.0,0.0,0.0,0.0,0.0,0.0,0.0,0.0,0.0,0.0,0.0,0.0,0.0,0.0,0.0,0.0,0.0,0.0,0.0,0.0,0.0,0.0,0.0,0.0,0.0,0.0,0.0,0.0,0.0,0.0,0.0,0.0,0.0,0.0,0.0,0.0,0.0,0.0,0.0,0.0,0.0,0.0,0.0,0.0,0.0,0.0,0.0,0.0,0.0,0.0,0.0,0.0,0.0,0.0,0.0,0.0,0.0,0.0,0.0,0.0,0.0,0.0,0.0,0.0,0.0,0.0,0.0,0.0,0.0,0.0,0.0,0.0,0.0,0.0,0.0,0.0,0.0,0.0,0.0,0.0,0.0,0.0,0.0,0.0,0.0,0.0,0.0,0.0,0.0,0.0,0.0,0.0,0.0,0.0,0.0,0.0,0.0,0.0,0.0,0.0,0.0,0.0,0.0,0.0,0.0,0.0,0.0,0.0,0.0,0.0,0.0,0.0,0.0,0.0,0.0,0.0,0.0,0.0,0.0,0.0,0.0,0.0,0.0,0.0,0.0,0.0,0.0,0.0,0.0,0.0,0.0,0.0,0.0,0.0,0.0,0.0,0.0,0.0,0.0,0.0,0.0,0.0,0.0,0.0,0.0,0.0,0.0,0.0,0.0,0.0,0.0,0.0,0.0,0.0,0.0,0.0,0.0,0.0,0.0,0.0,0.0,0.0,0.0,0.0,0.0,0.0,0.0,0.0,0.0,0.0,0.0,0.0,0.0,0.0,0.0,0.0,0.0,0.0,0.0,0.0,0.0,0.0,0.0,0.0,0.0,0.0,0.0,0.0,0.0,0.0,0.0,0.0,0.0,0.0,0.0,0.0,0.0,0.0,0.0,0.0,0.0,0.0,0.0,0.0,0.0,0.0,0.0,0.0,0.0,0.0,0.0,0.0,0.0,0.0,0.0,0.0,0.0,0.0,0.0,0.0,0.0,0.0,0.0,0.0,0.0,0.0,0.0,0.0,0.0,0.0,0.0,0.0,0.0,0.0,0.0,0.0,0.0,0.0,0.0,0.0,0.0,0.0,0.0,0.0,0.0,0.0,0.0,0.0,0.0,0.0,0.0,0.0,0.0,0.0,0.0,0.0,0.0,0.0,0.0,0.0,0.0,0.0,0.0,0.0,0.0,0.0,0.0,0.0,0.0,0.0,0.0,0.0,0.0,0.0,0.0,0.9892,0.0,0.0,0.0,0.0,0.0,0.0,0.0,0.0,0.0,0.0,0.0,0.0,0.0,0.0,0.0,0.0,0.0,0.0,0.0,0.0,0.0,0.0,0.0,0.0,1.0154,1.0207,0.9913,1.0033,1.0114,1.0131,0.0,0.0,0.0,0.0,0.0,1.0801,1.0902,1.1263,1.1873,1.2616,1.3093,1.3308,1.4523,1.5065,1.5097,0.0,0.0,0.0,0.0,0.0,0.0,0.0,0.0,0.0,0.0,0.0,0.0,0.0,0.0,0.0,0.0,0.0,0.0,0.0,0.0,0.0,0.0,0.0,0.0,0.0,0.0,0.0,0.0,0.0,0.0,0.0,0.0,0.0,0.0,0.0,0.0,0.0,0.0,0.0,0.0,0.0,0.0,0.0,0.0,0.0,0.0,0.0,0.0,0.0,0.0,0.0,0.0,0.0,0.0,0.0,0.0,0.0,0.0,0.0,0.0,0.0,0.0,0.0,0.0,0.0,0.0,0.0,0.0,0.0,0.0,0.0,1.0007,0.0,0.0,0.0,0.0,0.0,0.0,0.0,0.0,0.0,0.0,0.0,0.0,0.0,0.0,0.0,0.0,0.0,0.0,0.0,0.0,0.0,1.0023,0.9658,1.01,1.036,1.0186,1.0134,1.0294,1.0801,1.0461,0.0,0.0,1.0868,1.0995,1.0995,1.1383,1.1957,1.2784,1.3065,1.3734,1.483,1.5953,1.5938,1.5019,1.6382,0.0,0.0,0.0,0.0,0.0,0.0,0.0,0.0,0.0,0.0,0.0,0.0,0.0,0.0,0.0,0.0,0.0,0.0,0.0,0.0,0.0,0.0,0.0,0.0,0.0,0.0,0.0,0.0,0.0,0.0,0.0,0.0,0.0,0.0,0.0,0.0,0.0,0.0,0.0,0.0,0.0,0.0,0.0,0.0,0.0,0.0,0.0,0.0,0.0,0.0,0.0,0.0,0.0,0.0,0.0,0.0,0.0,0.0,0.0,0.0,0.0,0.0,0.0,0.0,1.4159,1.4053,1.3999,1.3748,1.3266,1.2194,1.1404,1.0881,0.0,0.0,0.0,0.0,0.0,0.0,0.0,0.0,0.0,0.0,0.0,0.0,0.0,0.0,0.0,0.0,0.0,0.0,0.0,0.0,1.0232,0.9446,0.9614,1.002,1.0513,1.0265,1.0572,1.1655,1.1182,1.0814,1.06,1.0868,1.0995,1.0995,1.1784,1.2371,1.2784,1.4084,1.5196,1.6046,1.6486,1.6483,1.6099,1.6676,1.8097,1.9907,0.0,0.0,0.0,0.0,0.0,0.0,0.0,0.0,0.0,0.0,0.0,0.0,0.0,0.0,0.0,0.0,0.0,0.0,0.0,0.0,0.0,0.0,0.0,0.0,0.0,0.0,0.0,0.0,0.0,0.0,0.0,0.0,0.0,0.0,0.0,0.0,0.0,0.0,0.0,0.0,0.0,1.4092,1.3218,0.0,0.0,0.0,0.0,0.0,0.0,0.0,0.0,0.0,0.0,0.0,0.0,0.0,0.0,1.4215,1.5057,1.5498,1.5505,1.6326,1.6469,1.5912,1.5658,1.5451,1.5391,1.4723,0.0,1.2011,1.1249,0.0,0.0,0.0,0.0,0.0,0.0,0.0,0.0,0.0,0.0,0.0,0.0,0.0,0.0,0.0,0.0,0.0,0.0,0.0,0.0,0.0,0.9888,0.9998,1.0347,1.1565,1.21,1.1582,1.2119,1.2051,1.1089,1.1169,1.1396,1.1717,1.2438,1.352,1.4977,1.6794,1.7876,1.8263,1.8384,1.829,1.8023,1.7879,1.8078,1.8423,1.7133,0.0,0.0,0.0,0.0,0.0,0.0,0.0,0.0,0.0,0.0,0.0,0.0,0.0,0.0,0.0,0.0,0.0,0.0,0.0,0.0,0.0,0.0,0.0,0.0,0.0,0.0,0.0,0.0,0.0,0.0,0.0,0.0,0.0,0.0,0.0,0.0,0.0,0.0,0.0,1.4365,1.4395,1.2759,1.4308,1.5118,0.0,0.0,0.0,0.0,0.0,0.0,0.0,0.0,0.0,1.4799,1.5351,1.5818,1.6233,1.6743,1.7103,1.7328,1.7555,1.7422,1.7058,1.6874,1.6633,1.6313,1.6046,1.5404,1.4442,1.3227,1.2612,1.2371,0.0,0.0,0.0,0.0,0.0,1.1637,0.0,0.0,0.0,0.0,0.0,0.0,0.0,0.0,0.0,0.0,0.0,0.0,1.0278,0.9979,1.0149,1.1124,1.2691,1.3362,1.2827,1.3226,1.3,1.1895,1.1695,1.1891,1.2412,1.352,1.519,1.7382,1.9158,2.0067,2.0134,2.0214,2.0094,1.9786,1.9279,1.8697,1.8001,1.6995,1.6927,1.7444,0.0,0.0,0.0,0.0,0.0,0.0,0.0,0.0,0.0,0.0,0.0,0.0,0.0,0.0,0.0,0.0,0.0,0.0,0.0,0.0,0.0,0.0,0.0,0.0,0.0,0.0,0.0,0.0,0.0,0.0,0.0,0.0,0.0,0.0,0.0,0.0,0.0,1.4308,1.4361,1.2361,1.4356,1.5348,0.0,0.0,0.0,0.0,0.0,0.0,1.4861,1.5397,1.5939,1.6557,1.7261,1.7782,1.8143,1.8303,1.8531,1.8824,1.8531,1.8223,1.7929,1.7929,1.7609,1.7048,1.6967,1.6767,1.6429,1.4955,1.4055,1.3614,1.3199,1.2893,0.0,1.3186,1.308,1.2906,0.0,0.0,0.0,0.0,0.0,0.0,0.0,0.0,0.0,0.0,0.0,0.9814,1.0163,0.9575,1.0421,1.3639,1.2946,1.3623,1.67,1.4585,1.32,1.312,1.2572,1.2398,1.2757,1.5217,1.7422,1.9239,2.0174,2.0775,2.1056,2.1336,2.1309,2.1002,2.0708,2.097,2.1349,1.8479,1.8148,1.9396,1.7475,0.0,0.0,0.0,0.0,0.0,0.0,0.0,0.0,0.0,0.0,0.0,0.0,0.0,0.0,0.0,0.0,0.0,0.0,0.0,0.0,0.0,0.0,0.0,0.0,0.0,0.0,0.0,0.0,0.0,0.0,0.0,0.0,0.0,0.0,0.0,0.0,0.0,0.0,1.2109,1.4453,0.0,0.0,0.0,0.0,1.5574,1.5676,1.6107,1.7005,1.7288,1.7849,1.8744,1.8811,1.9105,1.9679,1.9426,1.9452,1.9733,1.9439,1.9145,1.8851,1.8851,1.8531,1.7916,1.7662,1.742,1.7045,1.5571,1.4941,1.4834,1.3893,1.372,1.3961,1.368,1.3733,1.3961,0.0,0.0,0.0,0.0,0.0,0.9993,1.0519,1.0586,1.0535,1.0307,0.9873,0.9647,0.9892,0.9793,1.0747,1.3346,1.4417,1.5421,1.666,1.5774,1.5177,1.5177,1.3881,1.4015,1.5866,1.7355,1.8905,2.0494,2.1363,2.1857,2.1951,2.1871,2.167,2.139,2.1082,2.1039,2.0998,1.9769,1.8822,1.8102,1.7581,1.6974,0.0,0.0,0.0,0.0,0.0,0.0,0.0,0.0,0.0,0.0,0.0,0.0,0.0,0.0,0.0,0.0,0.0,0.0,0.0,0.0,0.0,0.0,0.0,0.0,0.0,0.0,0.0,0.0,0.0,0.0,0.0,0.0,0.0,0.0,0.0,0.0,0.0,1.4429,1.6137,0.0,1.5654,1.5929,1.6381,1.6875,1.7106,1.7649,1.8586,1.8851,1.9332,2.0027,2.0054,2.0241,2.0641,2.016,1.9973,2.0067,1.9599,1.9118,1.8651,1.8838,1.849,1.7756,1.7822,1.7702,1.742,1.671,1.6308,1.6032,1.5538,1.5284,1.519,1.5038,1.5003,1.4937,0.0,0.0,0.0,0.0,0.9806,0.9916,1.0506,1.0586,1.0477,1.0125,0.9786,0.9687,1.0043,1.0126,1.1367,1.4295,1.5442,1.6593,1.785,1.6885,1.6321,1.6321,1.515,1.5631,1.7983,1.9011,2.0187,2.155,2.2231,2.2512,2.2418,2.2218,2.1924,2.1614,2.1349,2.1042,2.0725,2.106,1.9729,1.7403,1.7513,1.7342,1.6861,0.0,0.0,0.0,0.0,0.0,0.0,0.0,0.0,0.0,0.0,0.0,0.0,0.0,0.0,0.0,0.0,0.0,0.0,0.0,0.0,0.0,0.0,0.0,0.0,0.0,0.0,0.0,0.0,0.0,0.0,0.0,0.0,0.0,0.0,0.0,1.6059,1.6246,1.7582,1.8103,1.7101,1.7462,1.7916,1.8303,1.8798,1.9332,1.992,2.0134,2.0414,2.0815,2.0815,2.0869,2.0962,2.0481,2.0127,2.008,1.9599,1.9158,1.8798,1.8985,1.8637,1.7903,1.809,1.7956,1.7569,1.742,1.7181,1.6954,1.646,1.6152,1.5965,1.5824,1.5712,1.5565,0.0,0.0,0.0,0.9566,0.9702,0.9903,1.0492,1.0573,1.0527,1.037,0.9998,1.0006,1.0667,1.0642,1.232,1.6706,1.6042,1.6915,2.0447,1.7916,1.6335,1.6362,1.6402,1.7208,1.8998,2.0134,2.1269,2.2445,2.2726,2.2712,2.2418,2.2418,2.2111,2.1628,2.1628,2.1306,2.0819,2.2256,2.083,1.7674,1.7475,1.7355,1.7198,0.0,0.0,0.0,0.0,0.0,0.0,0.0,0.0,0.0,0.0,0.0,0.0,0.0,0.0,0.0,0.0,0.0,0.0,0.0,0.0,0.0,0.0,0.0,0.0,0.0,0.0,0.0,0.0,0.0,0.0,0.0,0.0,0.0,1.5719,1.6601,1.7259,1.7286,1.8586,1.9028,1.7822,1.9011,1.9853,1.9867,2.0641,2.1122,2.1122,2.1109,2.1109,2.1109,2.1109,2.0975,2.0695,2.0388,2.0094,1.9813,1.9506,1.9359,1.9359,1.9359,1.9038,1.8477,1.8477,1.8143,1.7582,1.7582,1.7582,1.7488,1.6683,1.6348,1.6246,1.5952,1.5784,1.5784,0.0,0.0,0.8925,0.9271,0.9337,0.9524,1.0154,1.0234,1.0018,0.9383,0.9932,1.0765,1.1797,1.2521,1.4579,1.8644,1.7774,1.8006,2.0557,1.7916,1.6553,1.7246,1.8104,1.9439,2.1416,2.1363,2.1897,2.3073,2.2926,2.2712,2.2418,2.2418,2.2218,2.1871,2.1871,2.1657,2.136,2.151,2.0903,1.9856,1.9594,1.8814,1.7741,0.0,0.0,0.0,0.0,0.0,0.0,0.0,0.0,0.0,0.0,0.0,0.0,0.0,0.0,0.0,0.0,0.0,0.0,0.0,0.0,0.0,0.0,0.0,0.0,0.0,0.0,0.0,0.0,0.0,0.0,0.0,0.0,1.7272,1.7446,1.7881,1.8437,1.9292,2.012,2.0588,2.0529,2.0891,2.1226,2.1376,2.1416,2.143,2.143,2.1229,2.1109,2.1109,2.1109,2.1069,2.0989,2.0481,2.0127,2.0107,1.9599,1.9252,1.9052,1.9052,1.8731,1.8115,1.8115,1.7943,1.7582,1.7582,1.7514,1.73,1.7058,1.678,1.6553,1.6259,1.6019,1.5784,0.0,0.8804,0.8898,0.9164,0.9217,0.9404,0.999,1.0083,1.0038,0.9899,1.0824,1.1919,1.3039,1.3961,1.5701,1.8762,1.807,1.7996,1.9309,1.7715,1.7139,1.8103,1.9158,2.0454,2.2017,2.1964,2.2311,2.314,2.2953,2.2779,2.2605,2.2605,2.2445,2.2164,2.2164,2.1937,2.1601,2.1363,2.1122,2.081,2.0566,1.992,1.8998,1.7464,1.7556,1.8238,1.6713,1.6713,1.7244,1.6031,0.0,0.0,0.0,0.0,0.0,0.0,0.0,0.0,0.0,0.0,0.0,0.0,0.0,0.0,0.0,0.0,0.0,0.0,0.0,0.0,0.0,0.0,0.0,0.0,1.7264,1.824,1.8719,1.964,2.0364,2.0556,2.163,2.206,2.1427,2.1697,2.1884,2.1804,2.1871,2.1804,2.1628,2.139,2.1243,2.1109,2.1109,2.1056,2.0922,2.0468,2.0113,2.004,1.9586,1.9279,1.9105,1.9105,1.8784,0.0,1.8237,1.7983,1.7582,1.7582,1.7527,0.0,0.0,0.0,0.0,0.0,1.5979,1.5784,0.0,0.8804,0.8858,0.9124,0.9164,0.9351,0.991,1.0017,1.0296,1.1019,1.2036,1.3133,1.4194,1.5054,1.6213,1.7894,1.7591,1.7418,1.7676,1.7527,1.7916,1.9158,2.0027,2.0895,2.1856,2.2271,2.2645,2.2913,2.2886,2.2928,2.2928,2.2928,2.2726,2.2472,2.2472,2.2164,2.1708,2.1681,2.143,2.1136,2.0842,2.0681,2.0414,1.8504,1.8617,1.9548,1.7517,1.7289,1.7747,1.6623,0.0,0.0,0.0,0.0,0.0,0.0,0.0,0.0,0.0,0.0,0.0,0.0,0.0,0.0,0.0,0.0,0.0,0.0,0.0,0.0,0.0,0.0,0.0,0.0,1.7932,1.8666,1.9969,2.168,2.2386,2.1231,2.2645,2.3033,2.1303,2.1857,2.2138,2.1748,2.2071,2.2111,2.1695,0.0,0.0,0.0,0.0,2.0989,2.0722,2.0401,2.0107,1.984,1.9519,1.943,1.943,1.9332,1.9038,1.8544,1.8504,1.8156,1.7635,1.7635,1.7569,1.7435,1.6914,1.6526,1.6233,1.5939,1.5784,0.0,0.0,0.8804,0.8831,0.8884,0.8884,0.8978,0.9324,0.9619,0.997,1.0487,1.1447,1.2794,1.4797,1.5513,1.6681,1.8926,1.8337,1.7968,1.8317,1.8477,1.9319,2.0975,2.1657,2.2418,2.3327,2.322,2.318,2.3233,2.2979,2.2928,2.2928,2.2928,2.2901,2.2779,2.2779,2.2579,2.2231,2.2004,2.1737,2.1507,2.1149,2.0735,2.0227,1.9359,1.9058,1.8928,1.7809,1.7994,1.8493,1.7068,1.6758,1.6718,1.5376,1.4241,0.0,0.0,0.0,0.0,0.0,0.0,0.0,0.0,0.0,0.0,0.0,0.0,0.0,0.0,0.0,0.0,0.0,0.0,0.0,1.8076,1.8951,2.0164,2.218,2.2987,2.2883,2.1285,2.1402,2.1638,2.1507,2.1681,2.1871,2.2218,2.1924,2.1777,2.1897,2.1456,0.0,2.1109,2.1109,2.1082,2.1029,2.0494,2.014,2.0147,0.0,0.0,1.9417,1.9118,1.8945,1.8824,1.8597,1.829,1.7902,1.7902,1.7528,1.686,1.6754,1.6526,1.6233,1.5939,1.5784,1.5784,0.0,0.8804,0.8804,0.8804,0.8804,0.8871,0.9164,0.9486,1.0045,1.1006,1.2071,1.3383,1.513,1.5794,1.6417,1.7116,1.662,1.6797,1.8183,1.8824,2.0,2.1897,2.2552,2.3153,2.3754,2.3621,2.3474,2.3327,2.3166,2.302,2.2928,2.2928,2.2779,2.2645,2.2792,2.2619,2.2191,2.2044,2.1817,2.1588,2.1229,2.0935,2.0615,2.0027,1.9706,1.9466,1.8571,1.845,1.8571,1.7675,1.7275,1.7018,1.5986,1.5017,1.4237,0.0,0.0,0.0,0.0,0.0,0.0,0.0,0.0,0.0,0.0,0.0,0.0,0.0,0.0,1.6578,1.6854,0.0,1.7983,1.9172,1.9853,2.0693,2.192,2.2974,2.3574,2.3544,2.2957,2.2638,2.2794,2.2189,2.1884,2.2178,2.1937,2.1764,2.1764,2.1496,2.1269,2.1109,2.1109,2.1042,2.0895,2.0454,2.016,2.0013,1.9573,1.943,1.9359,1.9212,1.8985,1.8704,1.8704,1.837,1.7809,1.7809,1.7555,1.7128,1.6981,1.6567,1.6032,1.5838,1.5784,1.5784,0.0,0.8804,0.8804,0.8804,0.8804,0.8858,0.9098,0.9406,1.0087,1.1471,1.2545,1.36,1.4763,1.5364,1.5444,1.4888,1.4736,1.5651,1.8009,1.9052,2.0481,2.2592,2.3207,2.3607,2.3848,2.3848,2.3714,2.3407,2.3354,2.3193,2.2953,2.2886,2.2739,2.2512,2.2752,2.2605,2.2151,2.2031,2.1857,2.1668,2.1256,2.1082,2.0962,2.0428,2.0167,2.012,1.9181,1.8776,1.8537,1.8023,1.762,1.7286,1.6599,1.5952,1.534,1.4612,1.4562,0.0,0.0,0.0,0.0,0.0,0.0,0.0,0.0,0.0,1.5656,1.5269,1.6238,1.7313,1.7836,1.8611,1.9426,2.0187,2.0575,2.1078,2.1923,2.2893,2.4193,2.6188,2.4921,2.3899,2.3899,2.2627,2.1844,2.1897,2.1844,2.1737,2.1628,2.1561,2.1363,2.1122,2.1056,2.0909,2.0681,2.0321,2.0027,1.98,1.9506,1.943,1.943,1.943,1.9105,1.8664,1.8784,1.8397,1.7662,1.7609,1.7555,1.7475,1.7286,1.6697,1.5912,1.5912,1.5872,1.5784,0.0,0.8804,0.8804,0.8804,0.8804,0.8818,0.8844,0.9071,0.9604,1.0613,1.1276,1.2024,1.2985,1.3347,1.3721,1.4148,1.487,1.6299,1.8677,1.9653,2.1176,2.3514,2.3928,2.4115,2.4155,2.4155,2.4008,2.3728,2.346,2.3313,2.3273,2.2993,2.2914,2.2887,2.2846,2.2887,2.2726,2.2205,2.1964,2.1884,2.1336,2.0949,2.0695,2.0361,2.0167,2.012,1.9181,1.8933,1.8779,1.7653,1.7631,1.7825,1.6923,1.6259,1.5591,1.473,1.4293,1.4021,1.3768,1.3519,1.3552,1.4525,1.3734,1.3299,0.0,0.0,1.7472,1.7563,1.8996,2.0029,1.932,1.9666,2.0201,2.0575,2.0869,2.2111,2.5069,2.4039,2.4141,2.7358,2.5368,2.3619,2.3619,2.2174,2.1309,2.1641,2.1349,2.1309,2.1601,2.1296,2.1149,2.1109,2.0855,2.0708,2.0681,2.012,1.9826,1.98,1.9506,1.943,1.943,1.943,1.939,1.9239,1.8758,1.833,1.7916,1.7702,1.7487,1.7246,1.7219,1.6817,1.6219,1.6219,1.6059,1.5784,0.0,0.0,0.8804,0.8804,0.8804,0.8804,0.8804,0.9031,0.9404,1.001,1.0586,1.1095,1.1471,1.1618,1.1904,1.2492,1.3667,1.5378,1.7742,1.9359,2.1216,2.342,2.3794,2.4115,2.4449,2.4289,2.4142,2.4022,2.3901,2.3661,2.3327,2.3193,2.2939,2.2605,2.2779,2.2672,2.2352,2.2271,2.2044,2.1775,2.147,2.1096,2.0725,2.0781,2.0244,1.9459,1.9191,1.9278,0.0,1.7876,1.7615,1.7678,1.6538,1.5912,1.5444,1.4723,1.4416,1.4199,1.3673,1.403,1.4375,0.0,1.4613,1.5502,1.6055,1.7323,1.8369,1.8496,1.941,2.0189,2.016,2.0468,2.0788,0.0,2.1029,2.1902,2.4286,2.4246,2.4472,2.5887,2.4844,2.3894,2.3638,2.209,2.1229,2.1601,2.1269,2.1162,2.1283,2.1176,2.1109,2.1109,2.0828,2.0601,2.0414,2.0,1.972,1.9546,1.9426,1.943,1.943,1.943,1.9265,1.9092,1.8677,1.8317,1.7982,1.7889,1.7662,1.7434,1.7259,1.6938,1.65,1.6388,1.6086,1.5784,0.0,0.0,0.0,0.9354,0.9354,0.9237,0.8857,0.8951,0.9204,0.9526,0.9927,1.0251,1.0345,1.0345,1.0586,1.1142,1.2545,1.4362,1.6633,1.8718,2.0762,2.2752,2.3273,2.3754,2.4262,2.4142,2.4088,2.4088,2.4008,2.3741,2.3327,2.3233,2.2966,2.2552,2.2766,2.2686,2.2231,2.2285,2.2058,2.1722,2.148,2.1159,2.0865,2.0787,2.0149,1.9353,1.9055,1.9112,1.9043,1.7488,1.7235,1.7387,1.639,1.5903,1.5651,1.5039,1.4561,1.4133,1.3626,1.4268,0.0,1.402,1.5436,1.6923,1.6486,1.759,1.8819,1.9101,1.9506,1.9933,2.0361,2.0601,2.0775,2.0855,2.0935,2.154,2.3254,2.3663,2.3866,2.391,2.3505,2.3022,2.2462,2.1576,2.1109,2.1403,2.1229,2.1109,2.1109,2.1109,2.1109,2.1109,2.0748,2.0454,2.018,1.9867,1.9573,1.943,1.943,1.943,1.943,1.943,1.9199,1.8905,1.8624,1.8317,1.7982,1.7943,1.7769,1.7555,1.7407,1.7034,1.6687,1.6473,1.6152,1.5784,0.0,0.0,0.0,0.0,1.0737,1.0295,0.9015,0.8818,0.8898,0.9191,0.9244,0.9364,0.9686,0.9742,0.997,1.0559,1.1966,1.3695,1.5725,1.7809,1.976,2.1601,2.2499,2.3033,2.3354,2.3647,2.3781,2.3781,2.35,2.334,2.3313,2.302,2.2928,2.2914,2.2928,2.2914,2.2806,2.2231,2.1991,2.1897,2.1042,2.093,2.1086,1.9957,1.9834,2.0096,1.8856,1.7979,1.7194,1.6037,1.6398,1.7221,1.6807,1.6673,1.6572,1.6015,1.4797,1.356,1.3307,1.3682,1.4325,1.5124,1.5578,1.6206,1.7596,1.8223,1.876,1.9586,1.9786,1.98,1.9826,1.9826,1.9933,2.0214,2.0508,2.1286,2.2913,2.2287,2.1714,2.187,2.1037,2.0204,0.0,2.0248,2.0815,2.1096,2.1109,2.1109,2.1109,2.1109,2.1109,2.1109,2.0548,2.0241,2.0167,1.9666,1.943,1.943,1.943,1.943,1.943,1.943,1.9199,1.8905,1.8624,1.8317,1.7969,1.7716,1.7595,1.7582,1.7569,1.7221,1.67,1.67,1.6326,1.5784,0.0,0.0,0.0,0.0,0.0,1.0636,1.0192,0.9744,0.9318,0.8991,0.8924,0.0,0.0,0.0,0.0,0.0,1.1142,1.2665,1.4549,1.642,1.825,2.0087,2.1122,2.1924,2.2432,2.2726,2.2966,2.3166,2.3073,2.2913,2.2726,2.2619,2.2458,2.2285,2.2285,2.2178,2.2043,2.1842,2.1737,2.169,2.1438,2.1404,2.15,2.1241,2.0437,1.9371,0.0,1.8193,1.7574,1.6228,1.5649,1.5328,1.4558,1.397,1.3549,1.3764,1.3722,1.3666,1.4001,1.4509,1.507,1.5565,1.6192,1.6887,1.7582,1.7969,1.8343,1.8824,1.8771,1.8691,1.8891,1.8931,1.9158,1.984,2.0187,2.0978,2.2868,2.2468,2.1857,2.1254,2.0878,0.0,0.0,0.0,0.0,2.0775,2.0815,2.0909,2.1096,2.1109,2.1109,2.1109,2.0535,2.0334,2.0521,1.976,1.9466,1.9653,1.9466,1.943,1.943,1.943,1.9199,1.8918,1.8824,1.8448,1.7982,1.7876,1.7769,1.7569,1.742,1.7048,1.6687,1.6486,1.6166,1.5784,0.0,0.0,0.0,0.0,0.0,0.0,0.0,0.0,0.0,0.0,0.0,0.0,0.0,0.0,0.0,0.0,0.0,1.1623,1.3186,1.475,1.6313,1.7876,1.9133,1.9893,2.0094,2.0874,2.1176,2.1038,2.1398,2.1452,2.1176,2.1283,2.1229,2.1056,2.1056,2.1011,2.0824,2.1136,2.1089,2.0854,2.0932,2.094,2.0847,2.0421,1.9478,0.0,1.7877,1.7441,1.6935,1.6019,1.5227,1.4546,1.4058,1.3429,1.2903,1.3158,1.3559,1.4039,1.4669,1.5257,1.5805,1.6206,1.6807,1.7407,1.7542,1.7729,1.7876,1.7862,1.7622,1.7435,1.7528,1.7462,1.7742,1.8824,1.9158,1.9883,2.1675,2.1376,2.0845,2.054,2.0154,1.9612,0.0,0.0,0.0,2.0454,2.0615,2.0762,2.0949,2.1056,2.1109,2.1109,2.0641,2.0481,2.0668,2.0013,1.972,1.98,1.9506,1.943,1.943,1.943,1.9199,1.8918,1.8811,1.849,1.7982,1.7929,1.7769,1.7569,1.7434,1.7061,1.6687,1.65,1.6179,1.5784,0.0,0.0,0.0,0.0,0.0,0.0,0.0,0.0,0.0,0.0,0.0,0.0,0.0,0.0,0.0,0.0,0.0,0.0,1.1774,1.2931,1.411,1.5263,1.6683,1.7175,1.6706,1.8253,1.8611,1.7646,1.8618,1.9012,1.8827,1.9109,1.9243,1.9243,1.9243,1.9243,1.9273,2.006,2.0037,1.9433,1.9574,1.9546,1.9221,1.7712,1.7204,1.7239,1.6398,1.5791,1.5391,1.543,1.5204,1.4939,1.5106,1.4857,1.4462,1.4121,1.4266,1.4723,1.5324,1.5912,1.6549,1.7112,1.7447,1.7569,1.7542,1.7502,1.7301,1.6714,1.6402,1.6142,0.0,1.5558,1.5893,1.7301,1.7595,1.8156,1.9613,1.9132,1.8918,0.0,0.0,0.0,0.0,0.0,0.0,2.0174,0.0,2.0668,2.0695,2.0962,2.1109,2.1109,2.0828,2.0681,2.0695,2.0388,2.0094,1.98,1.9506,1.943,1.943,1.943,1.9199,1.8905,1.8624,1.8317,1.7969,1.7716,1.7582,1.7582,1.7582,1.7235,1.6727,1.6714,1.6339,1.5798,0.0,0.0,0.0,0.0,0.0,0.0,0.0,0.0,0.0,0.0,0.0,0.0,0.0,0.0,0.0,0.0,0.0,0.0,1.127,1.2415,1.3431,1.4186,1.5677,1.6469,1.6341,1.7203,1.7823,1.813,1.7169,1.7001,1.7535,1.6987,1.6727,1.6727,1.6727,1.6727,1.6714,1.675,1.7254,1.8061,1.7873,1.8181,1.873,1.8029,1.7221,1.6398,1.6183,1.5615,1.5039,1.5713,1.5506,1.4759,1.3454,1.3454,1.3913,1.4296,1.4869,1.5671,1.6536,1.7128,1.7609,1.7782,1.7702,1.7475,1.7034,1.642,1.5792,1.5204,1.5226,1.5092,1.4046,1.5116,1.632,1.6827,1.7862,0.0,1.9973,2.0307,0.0,1.9853,0.0,1.9706,1.9786,1.9666,0.0,0.0,2.0307,2.0535,2.0975,2.1069,2.1109,2.1109,2.0828,2.0775,2.1002,2.0494,2.0094,1.98,1.9506,1.943,1.943,1.943,1.9199,1.8905,1.8624,1.8317,1.7969,1.7716,1.7582,1.7582,1.7582,1.7355,1.7058,1.678,1.6473,1.6126,0.0,0.0,0.0,0.0,0.0,0.0,0.0,0.0,0.0,0.0,0.0,0.0,0.0,0.0,0.0,0.0,0.0,0.0,0.0,1.1828,1.262,1.3051,1.4496,1.5024,1.4419,1.5872,1.6372,1.5795,1.5721,1.5684,1.5684,1.5345,1.5149,1.5149,1.5149,1.5149,1.5191,1.5575,1.5999,0.0,0.0,1.6764,1.6894,1.6434,1.5859,1.5215,1.5215,1.5391,1.5651,1.5674,0.0,1.4546,1.3579,1.384,1.4679,1.5311,1.6005,1.674,1.7368,1.7876,1.8196,1.8022,1.7809,1.7328,1.6353,1.5926,1.5315,1.3857,1.398,1.4026,1.2855,1.3826,1.5091,0.0,0.0,0.0,1.9666,2.0241,2.0494,0.0,2.0401,0.0,2.0374,2.0254,2.0307,0.0,2.0494,2.0575,2.0909,2.1042,2.1109,2.1109,2.0949,2.0949,2.1109,2.0655,2.0281,1.9987,1.9693,1.9492,1.943,1.943,1.9199,1.8918,0.0,1.8437,1.7982,1.7862,1.7702,1.7582,1.7582,1.7328,1.6941,1.6767,1.6446,1.6059,0.0,0.0,0.0,0.0,0.0,0.0,0.0,0.0,0.0,0.0,1.1821,0.0,0.0,0.0,0.0,0.0,0.0,0.0,0.0,0.0,1.2141,1.2204,1.3438,1.3514,1.222,1.451,1.4743,1.28,1.4266,1.4579,1.3777,1.3892,1.3995,1.4042,1.3979,1.3995,1.4112,1.5155,1.523,1.4695,1.5392,1.5255,1.457,0.0,1.3997,1.3958,1.3997,1.4983,1.6173,1.5608,1.5355,1.5178,1.4815,1.5489,1.6408,1.6764,1.7275,1.7769,1.8022,1.8384,1.8531,1.8142,1.7809,1.7192,1.5812,1.5723,1.5217,1.2855,0.0,1.3134,1.1954,1.2412,1.3411,1.4713,0.0,1.7395,1.9172,1.9706,2.0214,2.1015,2.0882,2.0828,2.1082,2.0882,2.0842,2.1096,2.0869,2.0735,2.0735,2.0975,2.1109,2.1109,2.1109,2.1109,2.1109,2.0815,2.0535,2.0227,1.9933,1.9653,1.943,1.943,1.9199,1.8918,0.0,0.0,1.7995,1.7995,1.7862,1.7582,1.7582,1.7275,1.682,1.678,1.6446,1.5992,0.0,0.0,0.0,0.0,0.0,0.0,0.0,0.0,0.0,0.0,1.2522,1.0386,0.0,0.0,0.0,0.0,0.0,0.0,0.0,0.0,0.0,1.2772,1.3368,1.3404,1.2772,1.322,1.3589,1.3846,1.2854,1.2613,1.3061,1.2431,1.2363,1.2714,1.2301,1.2379,1.2714,1.2537,1.2774,1.3268,1.3393,1.3568,1.373,1.3652,0.0,0.0,1.3496,1.377,1.4237,1.5965,1.79,1.9186,1.6771,1.7443,1.8913,1.802,1.8063,1.8397,1.8691,1.8985,1.9092,1.8544,1.7822,1.7035,1.6253,1.5199,0.0,0.0,1.3155,1.3041,1.1159,1.2523,1.4112,1.4518,1.5992,1.7742,1.9479,2.0187,2.0668,0.0,2.1069,2.1056,0.0,0.0,0.0,0.0,0.0,0.0,2.1029,2.1082,2.1109,2.1109,2.1109,2.1109,2.1109,2.0815,2.0535,2.0227,1.9933,1.9653,1.943,1.943,1.9199,1.8918,0.0,0.0,1.7995,1.7995,1.7862,1.7582,1.7582,1.7515,1.7395,1.7219,1.7058,1.6898,0.0,0.0,0.0,0.0,0.0,0.0,0.0,1.4506,1.5068,1.6567,1.4833,1.3308,1.2844,1.1535,1.0904,0.0,0.0,0.0,0.0,0.0,0.0,0.0,1.3866,1.381,1.2931,1.3763,1.4069,1.3782,0.0,1.3277,1.3212,1.2596,1.2439,1.2663,1.2421,1.2439,1.2645,1.2421,1.2558,1.2894,1.2894,1.303,0.0,0.0,0.0,0.0,0.0,1.393,1.4599,1.5661,1.8221,2.0662,1.8973,1.885,1.9324,1.9049,1.8782,1.8557,1.8838,1.9145,1.9185,1.8437,1.7569,1.6693,1.5734,0.0,0.0,0.0,1.2474,1.2242,1.0866,1.204,0.0,1.3776,1.5057,1.6737,1.8611,1.9265,0.0,2.0775,2.1149,0.0,0.0,0.0,0.0,0.0,0.0,0.0,2.1109,2.1109,2.1109,2.1109,2.1109,2.1109,2.1109,2.0975,2.0681,2.0167,2.0094,1.9786,1.943,1.943,1.9292,1.9145,0.0,0.0,1.8263,1.8049,1.7862,1.7582,1.7582,1.7488,1.7393,1.7246,1.7099,1.6975,0.0,0.0,0.0,0.0,0.0,0.0,1.5156,1.5328,1.5975,1.784,1.7533,1.6865,1.609,1.3678,1.2202,0.0,0.0,0.0,0.0,0.0,0.0,0.0,0.0,1.4141,1.3047,0.0,0.0,1.3516,1.4277,0.0,0.0,0.0,0.0,0.0,0.0,0.0,1.3008,1.2954,1.2915,0.0,0.0,0.0,0.0,0.0,0.0,0.0,0.0,1.4023,1.4907,1.5233,1.7448,2.0081,2.0044,1.9733,1.9426,1.948,1.8994,1.8557,1.8838,1.9092,1.9065,1.8223,1.7208,1.6211,1.5365,1.4199,0.0,1.224,1.1919,1.1562,1.0744,1.139,1.2265,0.0,1.4097,1.5498,1.7569,1.8277,1.9078,0.0,2.1096,0.0,0.0,0.0,0.0,0.0,0.0,0.0,2.1109,2.1109,2.1109,2.1109,2.1109,2.1082,2.1015,2.1015,2.0722,2.0134,2.0134,1.9867,1.943,1.943,1.9332,1.9265,0.0,0.0,0.0,1.8089,1.7862,1.7582,1.7582,1.7487,1.73,1.73,1.7101,1.7076,0.0,0.0,0.0,0.0,0.0,0.0,1.5156,1.6041,1.7426,1.9983,1.9887,1.9404,1.8971,1.6051,1.3921,0.0,0.0,0.0,0.0,0.0,0.0,0.0,0.0,0.0,0.0,0.0,0.0,1.3516,0.0,0.0,0.0,0.0,0.0,0.0,0.0,0.0,0.0,1.3071,0.0,0.0,0.0,0.0,0.0,0.0,0.0,0.0,0.0,1.3032,1.3359,1.4877,0.0,1.6824,1.8277,1.9724,2.0472,1.8616,0.0,0.0,1.8838,1.8945,1.8811,1.817,1.6754,1.5586,1.5924,0.0,1.2795,1.2865,1.2289,1.1562,1.0744,1.0894,1.1511,1.265,1.3601,1.4928,1.6991,1.8183,1.9225,2.016,0.0,0.0,0.0,0.0,0.0,0.0,0.0,0.0,0.0,2.1109,2.1109,2.1109,2.1109,2.0989,2.0722,2.0722,2.0414,1.984,1.984,1.9679,1.943,1.943,1.9225,1.8958,0.0,0.0,0.0,1.8009,1.7862,1.7582,1.7582,1.7569,1.7542,1.7542,1.7528,1.7671,0.0,0.0,0.0,0.0,0.0,0.0,1.5829,1.6269,1.7441,2.0566,2.0586,2.0234,2.0116,1.7784,1.5685,1.4414,0.0,0.0,0.0,0.0,0.0,0.0,0.0,0.0,0.0,0.0,1.4277,1.4277,1.4453,0.0,0.0,0.0,0.0,0.0,0.0,0.0,0.0,0.0,0.0,0.0,0.0,0.0,0.0,0.0,0.0,0.0,0.0,0.0,1.3359,1.4043,0.0,0.0,1.5849,1.6913,0.0,0.0,1.7798,1.771,1.805,1.8384,1.8477,1.7689,1.6348,1.526,1.5682,0.0,1.1924,1.28,1.1965,1.0982,1.0649,1.0827,1.1263,1.2127,1.2371,1.3267,1.5571,1.6295,1.7261,0.0,0.0,0.0,0.0,0.0,0.0,0.0,0.0,0.0,0.0,2.2153,2.1538,2.2591,2.1485,2.0882,2.0935,2.0588,2.0294,2.0054,1.988,1.9653,1.943,1.943,1.9199,1.8918,0.0,0.0,0.0,1.8156,1.8151,1.8708,1.7937,1.7582,1.7687,1.8499,1.8812,1.9095,0.0,0.0,0.0,0.0,0.0,1.3672,1.5966,1.6289,1.7285,2.006,2.041,2.037,2.0233,1.8316,1.6574,1.5449,1.4219,0.0,0.0,0.0,0.0,0.0,0.0,0.0,0.0,0.0,1.4813,1.4813,1.5067,1.4883,0.0,0.0,0.0,0.0,0.0,0.0,0.0,0.0,0.0,0.0,0.0,0.0,0.0,0.0,0.0,0.0,0.0,0.0,0.0,0.0,0.0,1.4746,1.4114,1.4797,1.6008,1.7075,1.7175,1.7069,1.7521,1.7899,1.7956,1.7139,1.5772,1.4723,0.0,0.0,1.1279,1.2721,1.1732,1.0586,1.0586,1.076,1.1062,1.1672,1.1637,1.2291,1.4402,1.5003,0.0,0.0,0.0,0.0,0.0,0.0,0.0,0.0,0.0,0.0,0.0,2.3284,2.2199,2.3424,2.163,2.0695,2.0722,2.0307,2.0067,1.9973,1.9773,1.9559,1.943,1.943,1.9199,0.0,0.0,0.0,0.0,1.8897,1.8898,1.9472,1.8146,1.7582,1.774,1.9124,1.9576,1.9989,0.0,0.0,0.0,0.0,0.0,0.0,1.5156,1.6141,1.7155,1.8461,1.9358,1.9766,1.9355,1.7396,1.6281,1.6648,1.4718,0.0,0.0,0.0,0.0,0.0,0.0,0.0,0.0,0.0,1.4813,1.4813,1.5654,1.5635,1.4785,1.4793,1.4316,0.0,0.0,0.0,0.0,0.0,0.0,0.0,0.0,0.0,1.2915,0.0,0.0,0.0,0.0,0.0,0.0,0.0,0.0,0.0,0.0,1.4121,1.4975,1.5781,1.6293,1.6776,1.749,1.7449,1.7072,1.6482,1.4963,1.3884,0.0,1.2839,1.1059,1.2673,1.1732,1.0586,1.0586,1.06,1.0787,1.1329,1.1677,1.2422,1.3881,1.5097,0.0,0.0,0.0,0.0,0.0,0.0,0.0,0.0,0.0,0.0,0.0,0.0,2.3081,2.3081,2.1519,2.0401,1.9813,1.9813,1.9653,1.943,1.943,1.943,1.943,1.943,0.0,0.0,0.0,0.0,0.0,2.0227,2.0031,1.9472,1.8146,1.7582,1.774,1.9124,1.9576,1.9989,0.0,0.0,0.0,0.0,0.0,0.0,1.4348,1.4504,1.5098,1.668,1.6855,1.7129,1.791,1.6339,1.5605,1.6609,1.4492,0.0,0.0,0.0,0.0,0.0,0.0,0.0,0.0,1.5508,1.5801,1.6113,1.668,1.668,1.6083,1.5831,1.5224,1.4355,1.3633,0.0,0.0,0.0,0.0,0.0,0.0,1.2915,1.2915,0.0,0.0,0.0,0.0,0.0,0.0,0.0,0.0,0.0,0.0,0.0,0.0,1.4572,1.5002,1.5418,1.571,1.5455,1.5143,1.5288,1.4425,1.3873,1.5126,1.3344,1.1717,1.2795,1.1732,1.0533,1.0287,1.0452,1.0787,1.1295,1.1837,1.2612,0.0,0.0,0.0,0.0,0.0,0.0,0.0,0.0,0.0,0.0,0.0,0.0,0.0,0.0,2.4259,2.3141,2.1115,2.008,2.0094,1.9706,1.9559,1.9653,1.9466,1.943,1.943,1.943,0.0,0.0,0.0,0.0,0.0,2.0544,2.0502,2.0896,1.9524,1.9576,2.0436,2.0896,2.1608,2.2667,0.0,0.0,0.0,0.0,0.0,0.0,1.3763,1.3782,1.4121,1.5195,1.5234,1.5605,1.6789,1.5332,1.4961,1.6551,1.4512,0.0,0.0,0.0,0.0,0.0,0.0,0.0,1.5381,1.5684,1.6191,1.6941,1.7402,1.7559,1.7408,1.7168,1.6437,1.5263,1.4375,1.3809,0.0,0.0,0.0,0.0,1.2915,1.2915,1.2915,0.0,0.0,0.0,0.0,0.0,0.0,0.0,0.0,0.0,0.0,0.0,0.0,0.0,1.3961,1.418,1.4587,1.4446,1.4252,1.4276,1.3689,1.3419,1.4575,1.3256,1.1929,1.2462,1.1632,1.0626,1.0067,1.0318,1.0707,1.1035,1.1583,1.2385,0.0,0.0,0.0,0.0,0.0,0.0,0.0,0.0,0.0,0.0,0.0,0.0,0.0,0.0,2.5427,2.3585,2.1092,1.9826,1.9907,1.9546,1.9452,1.9639,1.9452,1.9707,2.0256,0.0,0.0,0.0,0.0,0.0,0.0,2.2363,2.2239,2.2553,2.0995,2.1027,2.1943,2.2316,2.3073,2.4099,0.0,0.0,0.0,0.0,0.0,0.0,0.0,1.3763,1.4016,1.4016,1.4394,1.4989,1.5772,1.4441,1.427,1.6336,1.4679,0.0,0.0,0.0,0.0,0.0,0.0,0.0,1.541,1.5469,1.6133,1.7422,1.791,1.8325,1.8734,1.8715,1.7832,1.6183,1.5302,1.4375,1.3477,1.3086,1.2935,1.2915,1.2915,1.2915,0.0,0.0,0.0,0.0,0.0,0.0,0.0,0.0,0.0,0.0,0.0,0.0,0.0,0.0,0.0,0.0,0.0,1.4207,1.4109,1.3469,1.2937,1.281,1.3623,1.2745,0.0,1.1958,1.1482,1.0782,0.9984,1.0268,1.064,1.0707,1.1182,1.1948,0.0,0.0,0.0,0.0,0.0,0.0,0.0,0.0,0.0,0.0,0.0,0.0,0.0,0.0,0.0,2.4554,2.1613,1.992,1.9533,1.9533,1.9475,1.943,1.9533,2.0256,2.1586,0.0,0.0,0.0,0.0,0.0,0.0,2.5158,2.476,2.4122,2.2553,2.2179,2.2688,2.3497,2.409,2.4578,0.0,0.0,0.0,0.0,0.0,0.0,0.0,0.0,0.0,0.0,1.3287,1.3424,1.3639,1.3287,1.3496,0.0,0.0,0.0,0.0,0.0,0.0,0.0,0.0,0.0,1.5381,1.6044,1.6894,1.7871,1.8945,1.9687,2.0098,1.9766,1.8867,1.75,1.6339,1.495,1.3496,1.3398,1.3184,1.2915,1.2915,1.2915,0.0,0.0,0.0,0.0,1.2915,1.3145,0.0,0.0,0.0,0.0,0.0,0.0,0.0,0.0,1.3194,1.328,1.2873,0.0,1.2979,1.3417,1.3429,1.3468,0.0,1.29,1.2014,1.2557,1.1424,1.0488,1.1038,1.1016,1.1116,1.1784,1.2585,1.3333,0.0,0.0,0.0,0.0,0.0,0.0,0.0,0.0,0.0,0.0,0.0,0.0,0.0,0.0,0.0,2.6155,2.399,2.2286,2.1088,2.1088,2.0529,1.9417,2.0529,2.1259,2.1643,0.0,0.0,0.0,0.0,0.0,2.5539,2.5395,2.4891,2.4278,2.4237,2.4732,2.5365,2.4889,2.5191,2.5948,0.0,0.0,0.0,0.0,0.0,0.0,0.0,0.0,0.0,0.0,1.2915,1.2915,1.2915,1.2915,1.3145,0.0,0.0,0.0,0.0,0.0,0.0,0.0,0.0,1.5176,1.541,1.6074,1.7129,1.8594,1.9473,2.0449,2.1445,2.1016,1.9922,1.8188,1.6328,1.4774,1.3516,1.3781,1.3516,1.292,1.319,0.0,0.0,0.0,0.0,0.0,1.2915,1.3145,0.0,1.3704,1.3919,1.4075,0.0,0.0,0.0,0.0,1.3047,1.3161,1.2927,1.3011,1.3298,1.3529,1.3607,1.3698,1.4003,1.3204,1.2307,1.2207,1.1475,1.0842,1.0887,1.0958,1.1236,1.1984,1.2746,0.0,0.0,0.0,0.0,0.0,0.0,0.0,0.0,0.0,0.0,0.0,0.0,0.0,0.0,0.0,0.0,0.0,2.6391,2.4488,2.1643,2.1586,2.1202,2.0429,2.1202,2.223,2.3392,0.0,0.0,0.0,0.0,0.0,2.6548,2.6495,2.6068,2.5577,2.5802,2.6359,2.6922,2.6186,2.6225,2.6641,0.0,0.0,0.0,0.0,0.0,0.0,0.0,0.0,0.0,0.0,0.0,0.0,0.0,0.0,0.0,0.0,0.0,0.0,0.0,0.0,0.0,0.0,1.541,1.5508,1.5703,1.6016,1.7259,1.9375,1.9805,2.084,2.2402,2.2051,2.0684,1.8403,1.6265,1.477,1.3898,1.4332,1.4043,1.3314,1.3668,0.0,0.0,0.0,0.0,0.0,0.0,0.0,0.0,1.3821,1.4055,1.4172,1.3977,0.0,0.0,0.0,0.0,0.0,1.3477,1.4034,1.4355,1.3815,1.3693,1.3771,1.4022,1.3291,1.2393,1.1842,1.1605,1.1337,1.0753,1.0997,0.0,0.0,0.0,0.0,0.0,0.0,0.0,0.0,0.0,0.0,0.0,0.0,0.0,0.0,0.0,0.0,0.0,0.0,0.0,0.0,2.8301,2.6245,2.1907,2.1896,2.1699,2.1244,2.1654,2.2966,2.5076,2.5502,0.0,0.0,0.0,0.0,2.7559,2.7559,2.7344,2.7012,2.7012,2.7285,2.7669,2.7246,2.7109,2.7051,0.0,0.0,0.0,0.0,0.0,0.0,0.0,0.0,0.0,0.0,0.0,0.0,0.0,0.0,0.0,0.0,0.0,0.0,0.0,0.0,0.0,1.541,1.541,1.5937,1.7051,1.6777,1.7642,1.9824,2.0254,2.1036,2.1973,2.1914,2.0527,1.8081,1.7791,1.6882,1.5514,1.5159,1.5024,1.5017,1.415,0.0,0.0,0.0,0.0,0.0,0.0,0.0,0.0,1.3164,1.3789,1.4492,1.3418,0.0,0.0,0.0,0.0,0.0,1.3802,1.4895,1.5535,1.4319,1.4063,1.4099,1.4099,1.2507,1.1534,1.331,1.2133,1.1262,1.2846,1.2812,1.2717,0.0,0.0,0.0,0.0,0.0,0.0,0.0,0.0,0.0,0.0,0.0,0.0,0.0,0.0,0.0,0.0,0.0,0.0,0.0,0.0,2.6623,2.3157,2.334,2.2209,1.9751,2.1933,2.3179,2.3603,2.5774,2.6904,0.0,0.0,2.7109,2.7109,2.7109,2.707,2.7012,2.7012,2.7285,2.7708,2.765,2.7559,2.7461,0.0,0.0,0.0,0.0,0.0,0.0,0.0,0.0,0.0,0.0,0.0,0.0,0.0,0.0,0.0,0.0,0.0,0.0,0.0,0.0,1.5391,1.6063,1.6102,1.6523,1.7363,1.7603,1.8792,2.0977,2.1406,2.207,2.2934,2.195,2.0269,1.8003,1.7854,1.6838,1.5307,1.5173,1.4846,1.4415,0.0,0.0,0.0,0.0,0.0,0.0,0.0,0.0,0.0,0.0,1.3613,1.3984,1.3398,0.0,0.0,0.0,0.0,0.0,1.3633,1.457,1.5302,1.4922,1.4971,1.4984,1.4532,1.3029,1.2019,1.3023,1.2379,1.194,0.0,0.0,1.3627,1.487,0.0,0.0,0.0,0.0,0.0,0.0,0.0,0.0,0.0,0.0,0.0,0.0,0.0,0.0,0.0,0.0,0.0,0.0,0.0,2.6489,2.3457,2.4019,2.2917,2.0145,2.2809,2.3963,2.3861,2.5805,2.668,0.0,0.0,2.668,2.6699,2.6914,2.7012,2.7031,2.7285,2.7637,2.7949,2.748,2.7324,2.7187,0.0,0.0,0.0,0.0,0.0,0.0,0.0,0.0,0.0,0.0,0.0,0.0,0.0,0.0,0.0,0.0,0.0,0.0,0.0,1.4492,1.5273,1.6336,1.6687,1.7285,1.814,1.8652,2.0,2.2187,2.2402,2.2852,2.3482,2.2043,2.0206,1.814,1.7761,1.6701,1.5191,1.5294,1.4836,1.418,0.0,0.0,0.0,0.0,0.0,0.0,0.0,0.0,0.0,0.0,0.0,0.0,0.0,0.0,0.0,1.3262,1.3105,1.3145,1.3672,1.4355,1.5,1.5332,1.5377,1.5307,1.5103,1.3907,1.3011,1.3579,1.3658,1.3737,0.0,1.4372,0.0,0.0,0.0,0.0,0.0,0.0,0.0,0.0,0.0,0.0,0.0,0.0,0.0,0.0,0.0,0.0,0.0,0.0,0.0,0.0,0.0,0.0,2.3637,2.4298,2.3178,2.0233,2.3231,2.436,2.3852,2.5503,2.623,2.623,2.623,2.623,2.6269,2.6582,2.6836,2.7031,2.7266,2.7695,2.8066,2.7402,2.7109,2.6914,0.0,0.0,0.0,0.0,0.0,0.0,0.0,0.0,0.0,0.0,0.0,0.0,0.0,0.0,0.0,0.0,0.0,0.0,0.0,1.4316,1.5,1.5459,1.668,1.8316,2.0331,2.0,2.0898,2.311,2.2695,2.2539,2.2578,2.2162,2.0749,1.8535,1.8248,1.7506,1.6349,1.6059,1.5952,1.5967,1.566,0.0,0.0,0.0,0.0,0.0,0.0,0.0,0.0,0.0,0.0,0.0,0.0,0.0,1.4055,1.4036,1.3743,1.3633,1.4473,1.5019,1.5371,1.5381,1.4568,1.4191,1.5754,1.4793,1.4287,1.6674,1.7025,1.7205,0.0,1.7717,0.0,0.0,0.0,0.0,0.0,0.0,0.0,0.0,0.0,0.0,0.0,0.0,0.0,0.0,0.0,0.0,0.0,0.0,0.0,0.0,0.0,0.0,2.4248,2.4332,2.2402,1.8698,2.2402,2.3478,2.236,2.4684,2.5732,2.5732,2.5732,2.5732,2.5732,2.5771,2.6239,2.6973,2.6621,2.6992,2.7767,2.7689,2.7363,2.7012,0.0,0.0,0.0,0.0,0.0,0.0,0.0,0.0,0.0,0.0,0.0,1.3142,1.292,0.0,0.0,0.0,0.0,0.0,0.0,1.3809,1.4531,1.5791,1.6562,1.7734,1.9336,2.0216,2.166,2.3555,2.3125,2.2773,2.248,2.1837,2.0451,1.8594,1.847,1.7771,1.6628,1.6413,1.6143,1.5907,1.6031,1.5544,0.0,0.0,0.0,0.0,0.0,0.0,0.0,0.0,1.331,1.3125,1.3125,1.3398,1.3665,1.3437,1.3418,1.3574,1.3906,1.4687,1.5469,1.5742,1.5705,1.5563,1.5354,1.4925,1.5003,1.6428,1.6889,1.7423,0.0,0.0,0.0,0.0,0.0,0.0,0.0,0.0,0.0,0.0,0.0,0.0,0.0,0.0,0.0,0.0,0.0,0.0,0.0,0.0,0.0,0.0,0.0,0.0,0.0,2.4653,2.3196,2.0101,2.2638,2.3598,2.3145,2.4899,2.5693,2.5693,2.5693,2.5693,2.5693,2.5693,2.6094,2.6641,2.6738,2.6973,2.7226,2.6973,2.6777,2.6582,0.0,0.0,0.0,0.0,0.0,0.0,0.0,0.0,1.4926,0.0,0.0,0.0,0.0,1.2915,0.0,0.0,0.0,0.0,1.3281,1.3437,1.416,1.5635,1.6211,1.7155,1.8578,2.004,2.1602,2.3184,2.3164,2.2793,2.207,2.1185,2.0159,1.8984,1.8596,1.7938,1.7103,1.6786,1.6187,1.5457,1.6112,1.5707,0.0,0.0,0.0,0.0,0.0,0.0,0.0,0.0,1.3529,1.3182,1.3101,1.3281,1.3477,1.332,1.3379,1.3516,1.3516,1.4336,1.5312,1.5772,1.6644,1.7166,1.6433,1.6475,1.6942,1.8056,1.8769,1.9367,1.9836,0.0,0.0,0.0,0.0,0.0,0.0,0.0,0.0,0.0,0.0,0.0,0.0,0.0,0.0,0.0,0.0,0.0,0.0,0.0,0.0,0.0,0.0,0.0,0.0,2.4277,2.3529,2.207,2.2886,2.3376,2.3551,2.4879,2.5605,2.5693,2.5693,2.5693,2.5693,2.5693,2.5996,2.6426,2.6699,2.6894,2.6973,2.6543,2.6387,2.6348,0.0,0.0,0.0,0.0,0.0,0.0,0.0,0.0,1.5866,1.405,1.4329,0.0,0.0,0.0,0.0,0.0,0.0,0.0,1.2915,1.3262,1.3887,1.4774,1.5635,1.6887,1.8539,1.9416,2.0547,2.1875,2.2777,2.248,2.1171,2.0332,1.9922,1.9844,1.8594,1.8008,1.7944,1.7287,1.618,1.4901,1.5912,1.5661,1.4858,0.0,0.0,0.0,0.0,0.0,0.0,0.0,1.3792,1.3757,1.3561,1.3516,1.3594,1.3977,1.3802,1.3516,1.3516,1.4141,1.493,1.5332,1.7019,1.8757,1.9312,1.9716,2.049,2.2252,2.356,2.37,2.1289,2.0818,0.0,0.0,0.0,0.0,0.0,0.0,0.0,0.0,0.0,0.0,0.0,0.0,0.0,0.0,0.0,0.0,0.0,0.0,0.0,0.0,0.0,0.0,0.0,2.3074,2.3074,2.4368,2.3027,2.2613,2.3087,2.4469,2.5312,2.5693,2.5693,2.5693,2.5693,2.5693,2.5996,2.6387,2.6387,2.6641,2.6953,2.6543,2.6387,2.6387,0.0,0.0,0.0,0.0,0.0,0.0,0.0,0.0,1.5688,1.5129,1.4858,0.0,0.0,0.0,0.0,0.0,0.0,0.0,1.2915,1.3013,1.3437,1.427,1.4863,1.5713,1.6829,1.7969,1.9512,2.1385,2.168,2.1445,2.0742,2.0176,1.9746,1.9453,1.9082,1.8418,1.7586,1.7584,1.7227,1.6681,1.6658,1.6616,1.6583,0.0,0.0,0.0,0.0,0.0,0.0,0.0,0.0,0.0,1.335,1.3806,1.4465,1.355,1.3574,1.3919,1.3919,1.457,1.5547,1.6894,1.8398,1.9867,2.1266,2.0935,2.0851,2.2517,2.3947,2.4675,2.3947,0.0,0.0,0.0,0.0,0.0,0.0,0.0,0.0,0.0,0.0,0.0,0.0,0.0,0.0,0.0,0.0,0.0,0.0,0.0,0.0,0.0,0.0,0.0,0.0,0.0,2.3602,2.3984,2.3556,2.3782,2.4469,2.4916,2.5312,2.5693,2.5693,2.5693,2.5693,2.5693,2.5771,2.5937,2.5937,2.5966,2.6044,2.5927,2.5937,2.5937,0.0,0.0,0.0,0.0,0.0,0.0,1.65,1.6194,1.5864,1.562,1.5287,1.4744,0.0,0.0,0.0,1.2944,1.2915,0.0,1.2915,1.3052,1.3437,1.4075,1.4551,1.5273,1.6309,1.7598,1.873,1.9707,2.0001,2.0021,1.9805,1.9883,1.9961,2.0059,2.0234,1.959,1.8374,1.8214,1.7647,1.697,1.706,1.7014,1.6836,0.0,0.0,0.0,0.0,0.0,0.0,0.0,0.0,0.0,1.3552,1.3699,1.4043,1.315,1.3242,1.3646,1.3821,1.4766,1.6055,1.7617,1.9238,2.0859,2.2617,2.2777,2.2889,0.0,2.4899,2.5188,2.4717,0.0,0.0,0.0,0.0,0.0,0.0,0.0,0.0,0.0,0.0,0.0,0.0,0.0,0.0,0.0,0.0,0.0,0.0,0.0,0.0,0.0,0.0,0.0,0.0,0.0,0.0,2.3535,2.3535,2.3887,2.457,2.457,2.4883,2.5488,2.5615,2.5693,2.5693,2.5693,2.5693,2.5693,2.5693,2.5693,2.5693,2.5693,2.5693,2.5693,0.0,0.0,1.6457,1.65,0.0,0.0,1.65,1.65,1.6303,1.5754,1.5688,1.5241,0.0,0.0,0.0,1.3041,1.2968,1.2968,1.2968,1.3362,1.3769,1.4174,1.4696,1.5547,1.6726,1.7857,1.8052,1.7324,1.813,1.8539,1.8559,1.9455,2.0274,2.1034,2.1504,2.0957,1.9629,1.8734,1.7513,1.6198,1.7012,1.6846,1.6154,1.6877,0.0,0.0,0.0,0.0,0.0,0.0,0.0,0.0,1.405,1.3546,1.31,1.3012,1.3012,1.3145,1.3561,1.4844,1.6437,1.7871,1.9863,2.1834,2.3437,2.4727,2.5762,2.623,0.0,2.5439,0.0,0.0,0.0,0.0,0.0,0.0,0.0,0.0,0.0,0.0,0.0,0.0,0.0,0.0,0.0,0.0,0.0,0.0,0.0,0.0,0.0,0.0,0.0,0.0,0.0,0.0,0.0,0.0,2.3101,2.3296,2.373,2.3769,2.4238,2.5086,2.5488,2.5635,2.5635,2.5674,2.5693,2.5693,2.5693,2.5693,2.5693,2.5693,2.5693,2.5693,0.0,0.0,1.593,1.6436,0.0,0.0,1.65,1.65,1.6457,1.6303,1.6303,1.6042,1.5286,1.4789,0.0,1.3671,1.3624,1.3624,1.3624,1.3989,1.4419,1.4888,1.5791,1.6602,1.7227,1.7135,1.7019,1.6843,1.7734,1.8144,1.813,1.9355,1.9844,1.9727,2.0156,1.9434,1.7871,1.7024,1.6557,1.635,1.5672,1.5983,1.678,1.6021,1.6054,0.0,0.0,0.0,0.0,0.0,0.0,0.0,1.4537,1.4639,1.4618,1.3847,1.3824,1.421,1.4826,1.5527,1.6731,1.9392,2.1641,2.334,2.3711,2.4258,2.4922,2.5723,2.6074,0.0,0.0,0.0,0.0,0.0,0.0,0.0,0.0,0.0,0.0,0.0,0.0,0.0,0.0,0.0,0.0,0.0,0.0,0.0,0.0,0.0,0.0,0.0,0.0,0.0,2.3101,2.3101,2.3101,0.0,2.3101,2.314,2.3257,2.3633,2.4062,2.459,2.5019,2.5215,2.5234,2.5586,2.5693,2.5693,2.5693,2.5693,2.5693,2.5693,2.5693,2.5693,0.0,0.0,0.0,0.0,0.0,0.0,0.0,0.0,1.65,1.65,1.6238,1.5842,1.5242,1.4629,0.0,0.0,1.3792,1.3909,1.4213,1.4333,1.4552,1.4928,1.5881,1.6328,1.6183,1.6113,1.5966,1.5801,1.625,1.6992,1.8027,1.9102,1.9824,2.0215,2.0234,1.9394,1.793,1.7103,1.6554,1.6252,1.5863,1.5997,1.6365,1.5603,1.5658,1.593,1.5017,0.0,0.0,0.0,0.0,0.0,0.0,0.0,1.4799,1.3686,1.3862,1.4449,1.4715,1.5723,1.7455,2.0488,2.25,2.3789,2.3789,2.4121,2.4551,2.4953,2.5293,0.0,0.0,0.0,0.0,0.0,0.0,0.0,0.0,0.0,0.0,0.0,0.0,0.0,0.0,0.0,0.0,0.0,0.0,0.0,0.0,0.0,0.0,0.0,0.0,0.0,2.3101,2.3101,2.3101,2.3101,2.3101,2.3101,2.312,2.3594,2.3906,2.4141,2.457,2.4746,2.4785,2.5234,2.541,2.543,2.5596,2.5693,2.5693,2.5693,2.5693,2.5693,0.0,0.0,0.0,0.0,0.0,0.0,0.0,0.0,0.0,1.6194,1.5754,1.531,1.4903,1.4329,1.4003,0.0,0.0,0.0,1.4812,1.467,1.4681,1.4941,1.5556,1.5576,1.4902,1.5156,1.5176,1.4883,1.4883,1.5996,1.8144,1.8848,1.9824,2.0956,2.0547,1.9668,1.8422,1.7461,1.6613,1.589,1.6082,1.5896,1.5446,1.5219,1.5248,1.5376,1.488,1.5017,1.5555,1.6151,0.0,0.0,0.0,0.0,1.4514,1.3644,1.382,1.4287,1.4274,1.588,1.8262,2.1074,2.2676,2.3594,2.3652,2.3945,2.4199,2.4199,0.0,0.0,0.0,0.0,0.0,0.0,0.0,0.0,0.0,0.0,0.0,0.0,0.0,0.0,0.0,0.0,0.0,0.0,0.0,0.0,0.0,0.0,0.0,0.0,0.0,2.3101,2.3101,2.3101,2.3101,2.3101,2.3101,2.3101,2.3101,2.3516,2.3672,2.3691,2.4121,2.4316,2.4355,2.4863,2.5106,2.5165,2.5566,2.5693,2.5693,2.5693,2.5693,2.5693,0.0,0.0,0.0,0.0,0.0,0.0,0.0,0.0,0.0,0.0,1.488,1.4994,1.542,1.4949,1.4789,1.5309,1.5353,1.5376,1.5465,0.0,0.0,1.558,1.5191,1.5078,1.5312,1.5019,1.5019,1.5332,1.5332,1.6426,1.852,1.8637,1.9182,2.0078,1.9648,1.8945,1.7988,1.6367,1.5391,1.4911,1.4215,1.418,1.4537,1.4149,1.4345,1.4812,1.4721,1.4744,1.4903,1.5533,1.5265,0.0,0.0,0.0,1.4766,1.5129,1.4582,1.4038,1.4764,1.6678,1.889,2.08,2.2012,2.2773,0.0,0.0,2.3257,0.0,0.0,0.0,0.0,0.0,0.0,0.0,0.0,0.0,0.0,0.0,0.0,0.0,0.0,0.0,0.0,0.0,0.0,0.0,0.0,0.0,0.0,0.0,2.3101,2.3101,2.3101,0.0,2.3101,2.3101,2.3101,2.3101,2.3101,2.3101,2.3101,2.3159,2.3179,2.3198,2.3691,2.3867,2.3926,2.4773,2.5106,2.5165,2.5566,2.5693,2.5693,2.5693,2.5693,2.5693,0.0,0.0,0.0,0.0,0.0,0.0,0.0,0.0,0.0,0.0,0.0,1.4306,1.4561,1.405,1.3931,1.4538,1.4584,1.4584,1.4584,1.4718,1.4679,1.4492,1.4432,1.4394,1.4336,1.416,1.416,1.4336,1.4336,1.5673,1.8247,1.85,1.9455,2.0977,1.9805,1.9082,1.8594,1.6621,1.5694,1.5459,1.457,1.4406,1.4546,1.3887,1.3997,1.4488,1.4276,1.419,1.4283,1.4903,1.4926,1.4789,1.531,0.0,0.0,0.0,1.4877,1.4781,1.5484,1.6583,1.8013,1.9962,2.1112,2.1931,2.2594,2.2925,2.3101,0.0,0.0,0.0,0.0,0.0,0.0,0.0,0.0,0.0,0.0,0.0,0.0,0.0,0.0,0.0,0.0,0.0,0.0,0.0,0.0,0.0,2.3101,2.3101,2.3101,2.3101,2.3101,0.0,2.3101,2.3101,2.3101,2.3101,2.3101,2.3101,2.3101,2.3101,2.3101,2.312,2.3594,2.3652,2.3496,2.4355,2.457,2.4394,2.4824,2.5137,2.5371,2.5371,2.5527,2.5693,0.0,0.0,0.0,0.0,0.0,0.0,0.0,0.0,0.0,0.0,0.0,1.3647,1.3768,0.0,0.0,0.0,1.4027,1.4097,1.426,1.4395,1.4272,1.382,1.3787,1.3646,1.3359,1.334,1.3398,1.3516,1.3588,1.5215,1.8149,1.8559,2.0019,2.2129,2.0625,1.9707,1.916,1.7259,1.6359,1.6163,1.4941,1.4453,1.4394,1.375,1.3781,1.4167,1.4136,1.4041,1.4031,1.4644,1.4787,1.4721,1.488,1.5444,0.0,0.0,0.0,1.5228,1.5563,1.5999,1.6765,1.8516,1.9844,2.0898,0.0,0.0,0.0,0.0,0.0,0.0,0.0,0.0,0.0,0.0,0.0,0.0,0.0,0.0,0.0,0.0,0.0,0.0,0.0,0.0,0.0,0.0,0.0,0.0,2.3081,2.2984,2.2945,2.2945,2.3042,2.3042,2.2945,2.3042,2.3101,2.3101,2.3101,2.3101,2.3101,2.3101,2.3101,2.312,2.3477,2.3496,2.3315,2.4004,2.4141,2.3984,2.4297,2.4687,2.5106,2.5106,2.5352,2.5693,0.0,0.0,0.0,0.0,0.0,0.0,0.0,0.0,0.0,0.0,0.0,1.3166,1.3721,1.3768,1.4003,1.4606,1.4652,1.4903,1.5465,1.4994,1.4674,1.4651,1.3542,0.0,1.2935,1.2935,1.3105,1.3516,1.388,1.5615,1.8578,1.9043,2.0625,2.2984,2.2148,2.084,1.9199,1.7871,1.707,1.6492,1.4387,1.3574,1.3574,1.3535,1.3522,1.3683,1.4656,1.4767,1.4447,1.5057,1.5008,0.0,1.5377,1.522,1.4994,0.0,0.0,0.0,1.4514,1.4975,1.5605,1.6163,1.7866,1.9512,0.0,0.0,0.0,0.0,0.0,0.0,0.0,0.0,0.0,0.0,0.0,0.0,0.0,0.0,0.0,0.0,0.0,0.0,0.0,0.0,0.0,0.0,0.0,0.0,2.3062,2.2711,2.2539,2.2539,2.2886,2.2906,2.2539,2.2906,2.3101,2.3101,2.3101,2.3101,2.3101,2.3101,2.3101,2.3101,2.312,2.3398,2.3769,2.3809,2.4043,2.4394,2.4414,2.4687,2.5106,2.5106,2.5352,2.5693,0.0,0.0,0.0,0.0,0.0,0.0,0.0,0.0,0.0,0.0,0.0,0.0,0.0,1.3214,1.331,1.3525,1.3549,1.3624,1.386,1.3647,1.3549,1.3549,1.3138,1.2915,1.2915,1.2915,1.2974,1.3105,1.3262,1.459,1.6992,1.7734,1.9004,2.0684,2.0918,2.0859,2.0391,1.8281,1.7441,1.735,1.5488,1.4902,1.5067,1.3926,1.3848,1.4304,0.0,0.0,0.0,0.0,0.0,0.0,0.0,0.0,0.0,1.522,1.5039,1.4671,1.4436,1.4301,1.4434,1.5391,1.666,1.7832,1.8535,0.0,0.0,0.0,0.0,0.0,0.0,0.0,0.0,0.0,0.0,0.0,0.0,0.0,0.0,0.0,0.0,0.0,0.0,0.0,0.0,0.0,0.0,0.0,2.2324,2.2187,2.2109,2.2109,2.2519,2.275,2.2867,2.3023,2.3101,2.3101,2.3101,2.3101,2.3101,2.3101,2.3101,2.3101,2.3101,2.3179,2.3354,2.3672,2.3711,2.3588,2.3906,2.4277,2.4687,2.4961,2.5352,2.5693,0.0,0.0,0.0,1.2915,0.0,1.2915,1.2915,1.2915,1.2915,1.2915,0.0,0.0,0.0,0.0,1.3301,1.3301,1.3363,1.341,1.341,1.3463,1.3406,1.3214,1.319,1.3113,1.2915,1.2915,1.2915,1.2915,1.3052,1.4069,1.5889,1.6633,1.7729,1.9082,1.9412,2.0059,2.0898,1.9023,1.8398,1.8457,1.6289,1.5859,1.6378,1.495,1.5,0.0,0.0,0.0,0.0,0.0,0.0,0.0,0.0,0.0,0.0,0.0,1.4698,1.4627,1.4291,1.3861,1.375,0.0,1.5498,1.6309,1.7168,0.0,0.0,0.0,0.0,0.0,0.0,0.0,0.0,0.0,0.0,0.0,0.0,0.0,0.0,0.0,0.0,0.0,0.0,0.0,0.0,0.0,0.0,0.0,2.1875,2.1758,2.1738,2.1875,2.2168,2.25,2.2886,2.3023,2.3101,2.3101,2.3101,2.3101,2.3101,2.3101,2.3101,2.3101,2.3101,2.3179,2.3379,2.3516,2.3496,2.3379,2.3672,2.4043,2.4473,2.4902,2.5352,2.5693,1.2915,1.2915,1.2915,1.2915,1.2915,1.2935,1.2935,1.2935,1.2935,1.2935,0.0,0.0,0.0,0.0,0.0,1.4133,1.4317,1.4428,1.4411,1.4588,1.4419,1.3858,1.381,1.3525,1.2915,1.2915,1.2915,1.2915,1.3281,1.4121,1.5371,1.5831,1.6914,1.8461,1.7715,1.8551,2.0488,2.0,1.9863,1.9648,1.666,1.625,1.7376,1.6457,0.0,0.0,1.7539,1.7109,0.0,1.5254,0.0,0.0,0.0,0.0,0.0,0.0,0.0,0.0,0.0,0.0,0.0,0.0,0.0,0.0,1.586,0.0,0.0,0.0,0.0,0.0,0.0,0.0,0.0,0.0,0.0,0.0,0.0,0.0,0.0,0.0,0.0,0.0,0.0,0.0,0.0,0.0,0.0,2.0977,2.1797,2.1445,2.1406,2.1855,2.1875,2.207,2.25,2.2867,2.3081,2.3101,2.3101,2.3101,2.3101,2.3101,2.3101,2.3101,2.3101,2.3379,2.373,2.3276,2.3379,2.3769,2.3809,2.4062,2.4473,2.4922,2.5371,2.5693,1.2992,1.2915,1.2993,1.3281,1.334,1.3437,1.3704,1.3763,1.3763,0.0,0.0,0.0,1.3958,1.4582,1.4913,1.4629,1.4933,1.5083,1.4986,1.4533,1.442,1.4805,1.4012,1.3496,1.334,1.3052,1.2915,1.2915,1.3013,1.3398,1.4043,1.4473,1.5225,1.6297,1.6707,1.7422,1.8277,1.7793,1.8461,1.9707,1.7291,1.7324,1.8594,0.0,0.0,0.0,0.0,1.7305,1.7051,0.0,1.5576,1.5253,0.0,0.0,0.0,0.0,0.0,0.0,1.3839,0.0,0.0,0.0,0.0,0.0,1.4835,1.5539,0.0,0.0,0.0,0.0,0.0,0.0,0.0,0.0,0.0,0.0,0.0,0.0,0.0,0.0,0.0,0.0,0.0,0.0,0.0,0.0,2.0527,2.0723,2.0957,2.086,2.0957,2.1366,2.1366,2.1758,2.25,2.2617,2.2789,2.3101,2.3101,2.3101,2.3101,2.3101,2.3101,2.3101,2.3101,2.3159,2.3257,2.314,2.3159,2.3379,2.4004,2.4316,2.4512,2.5273,2.5577,2.5693,1.3017,1.3052,1.3281,1.3665,1.4036,1.4375,1.4601,1.464,1.464,0.0,0.0,0.0,1.5167,1.5946,1.6172,1.542,1.5371,1.5317,1.5036,1.47,1.4572,1.4736,1.4382,1.4029,1.3769,1.3535,1.3398,1.3398,1.3398,1.3535,1.3743,1.3997,1.4465,1.5176,1.5684,1.625,1.6829,1.6367,1.7519,1.9531,1.8071,0.0,0.0,1.8539,1.8711,0.0,0.0,0.0,1.8531,1.7122,1.6281,0.0,0.0,0.0,0.0,0.0,0.0,0.0,1.3785,1.3282,0.0,0.0,0.0,0.0,1.462,1.513,1.5668,0.0,0.0,0.0,0.0,0.0,0.0,0.0,0.0,0.0,0.0,0.0,0.0,0.0,0.0,0.0,0.0,0.0,0.0,0.0,1.998,2.0155,2.0273,2.0507,2.0723,2.0937,2.1093,2.1424,2.1931,2.2324,2.2637,2.2828,2.3003,2.3101,2.3101,2.3101,2.3101,2.3101,2.3101,2.3101,2.3101,2.3101,2.3101,2.3179,2.4082,2.4414,2.4531,2.5362,2.5693,2.5693,0.0,1.3292,1.3717,1.4319,1.5009,1.5547,1.5742,1.5684,1.5684,0.0,1.584,1.6172,1.7038,1.7754,1.7676,1.6476,1.5957,1.5498,1.5102,1.5172,1.4961,1.4385,1.4826,1.4785,1.4172,1.4133,1.4114,1.4114,1.4114,1.4114,1.4114,1.4114,1.4309,1.4707,1.4793,1.5244,1.5948,1.5762,1.6973,1.8984,1.8656,1.9631,0.0,0.0,2.082,2.1777,2.1036,2.0683,2.0292,1.8164,1.6582,0.0,0.0,0.0,0.0,0.0,1.4339,0.0,0.0,0.0,0.0,0.0,0.0,0.0,1.4969,1.5325,1.5594,0.0,0.0,0.0,0.0,0.0,0.0,0.0,0.0,0.0,0.0,0.0,0.0,0.0,0.0,0.0,0.0,0.0,1.9434,1.9746,1.9473,1.9473,1.9883,2.0273,2.0566,2.0605,2.0957,2.1151,2.119,2.2031,2.2461,2.2519,2.2906,2.3101,2.3101,2.3101,2.3101,2.3101,2.3101,2.3101,2.3101,2.3101,2.3101,2.3179,2.4082,2.4414,2.4531,2.5362,2.5693,2.5693,1.43,1.3847,1.4149,1.6218,1.6237,1.6437,1.7759,1.7441,1.7363,1.8398,1.8535,1.8867,1.9727,1.9355,1.8789,1.8184,1.772,1.7268,1.677,1.6195,1.5936,1.6007,1.527,1.4806,1.4648,1.4289,1.4114,1.4114,1.4114,1.4114,1.4114,1.4114,1.4153,1.425,1.4629,1.4883,1.5165,1.6797,0.0,1.7252,1.7891,0.0,2.1699,2.1132,2.1348,2.1855,2.1699,2.1212,2.0331,1.8496,1.7012,1.5928,0.0,0.0,0.0,1.4911,0.0,0.0,0.0,0.0,0.0,0.0,0.0,0.0,1.5499,1.6114,1.6692,0.0,0.0,0.0,0.0,0.0,0.0,0.0,0.0,0.0,0.0,0.0,0.0,0.0,0.0,0.0,0.0,0.0,1.918,1.887,1.9141,1.9473,1.9883,2.0,2.0195,2.0586,2.0683,2.0879,2.119,2.1738,2.2168,2.2519,2.2906,2.3101,2.3101,2.3101,2.3101,2.3101,2.3101,2.3101,2.3101,2.3101,2.3101,2.3179,2.4082,2.4414,2.4531,2.5362,2.5693,2.5693,1.4192,1.4089,1.472,1.6598,1.6991,1.7539,1.9007,1.8926,1.8945,1.9842,2.0312,2.0488,2.0273,2.0059,1.9492,1.8383,1.7949,1.7663,1.7591,1.6849,1.6657,1.7223,1.6086,1.5459,1.5459,1.5,1.4738,1.4738,1.4738,1.4738,1.4738,1.4738,1.464,1.4473,1.4902,1.5098,1.5195,1.6484,1.7285,1.774,1.8848,0.0,2.125,2.1484,2.1836,2.2168,2.1953,2.1172,2.0039,1.8715,1.7891,0.0,0.0,1.5948,1.5703,0.0,1.5273,1.5098,0.0,0.0,0.0,1.5098,0.0,0.0,0.0,1.6654,1.7219,0.0,0.0,0.0,0.0,0.0,0.0,0.0,0.0,0.0,0.0,0.0,0.0,0.0,0.0,0.0,0.0,0.0,1.7807,1.7988,1.8594,1.9062,1.9221,1.965,2.0019,2.0234,2.0488,2.0703,2.0898,2.1562,2.1992,2.2207,2.2789,2.3101,2.3101,2.3101,2.3101,2.3101,2.3101,2.3101,2.3101,2.3101,2.3101,2.3179,2.4082,2.4414,2.4531,2.5362,2.5693,2.5693,1.4189,1.4405,1.5272,1.6789,1.752,1.834,1.9707,1.9766,1.9883,2.0527,2.1447,2.1602,2.0527,2.0508,2.0116,1.8867,1.791,1.765,1.8216,1.7276,1.6994,1.7615,1.689,1.6365,1.6105,1.5881,1.5703,1.5527,1.5449,1.541,1.541,1.541,1.5273,1.5067,1.5293,1.5605,1.5937,1.6222,0.0,1.8715,0.0,2.0586,2.0781,2.1484,2.207,2.2461,2.2031,2.1152,2.0001,1.9143,1.8851,1.8598,1.7181,1.7044,0.0,0.0,0.0,0.0,0.0,0.0,0.0,0.0,0.0,1.6441,0.0,0.0,0.0,0.0,0.0,0.0,0.0,0.0,0.0,0.0,0.0,0.0,0.0,0.0,0.0,0.0,0.0,0.0,0.0,0.0,1.63,1.7103,1.7832,1.8305,1.8481,1.9221,1.9746,1.9902,2.0254,2.0527,2.0605,2.1445,2.1894,2.1894,2.2734,2.3101,2.3101,2.3101,2.3101,2.3101,2.3101,2.3101,2.3101,2.3101,2.3101,2.3179,2.3939,2.4336,2.4512,2.5167,2.5538,2.5674,1.5843,1.5184,1.5543,1.7894,1.7853,1.8008,1.9668,1.9241,1.9163,2.0449,2.166,2.2383,2.2227,2.123,2.084,2.1387,1.8945,0.0,1.9069,1.7611,1.6594,1.6335,1.7277,1.7277,1.6135,1.6784,1.6794,1.6026,1.5605,1.541,1.541,1.541,1.5586,1.5928,1.5566,1.6269,1.7695,0.0,1.7773,0.0,1.9629,2.0449,0.0,2.1229,2.1775,2.2461,2.2031,2.1543,2.0917,0.0,1.9766,1.9668,0.0,1.8223,1.7578,1.8555,0.0,0.0,0.0,0.0,0.0,0.0,1.7772,0.0,0.0,0.0,0.0,0.0,0.0,0.0,0.0,0.0,0.0,0.0,0.0,0.0,0.0,0.0,0.0,0.0,0.0,0.0,0.0,0.0,0.0,1.6202,1.668,1.7252,1.8047,1.8481,1.9085,1.9883,1.9961,2.0176,2.0605,2.1445,2.1894,2.1894,2.2734,2.3101,2.3101,2.3101,2.3101,2.3101,2.3101,2.3101,2.3101,2.3101,2.3101,2.314,2.3672,2.4082,2.4434,2.4531,2.5011,2.5635,1.6229,1.596,1.6381,1.7928,1.7935,1.8242,1.9687,2.0469,2.1074,2.1621,2.2598,2.3262,2.3262,0.0,0.0,2.2246,0.0,1.9591,0.0,0.0,1.7711,1.8275,1.7894,1.7396,1.6868,1.6937,1.6707,1.6085,1.5909,1.5664,1.541,1.541,1.5644,1.6065,1.5605,0.0,1.8008,0.0,1.8379,0.0,0.0,0.0,0.0,2.119,2.1424,2.1697,2.1562,2.123,2.0703,0.0,2.0059,0.0,0.0,0.0,0.0,0.0,0.0,0.0,0.0,0.0,0.0,0.0,0.0,0.0,1.716,0.0,1.7835,0.0,0.0,0.0,0.0,0.0,0.0,0.0,0.0,0.0,0.0,0.0,0.0,0.0,0.0,0.0,0.0,0.0,0.0,0.0,0.0,1.623,1.6855,1.7773,1.8403,1.8809,1.9531,2.0,2.0195,2.1328,2.1894,2.1894,2.2734,2.3101,2.3101,2.3101,2.3101,2.3101,2.3101,2.3101,2.3101,2.3101,2.3101,2.312,2.334,2.3672,2.4082,2.4316,2.4805,2.5332,1.6778,1.668,1.6941,1.7715,1.7832,1.8262,1.9551,2.0918,2.1934,2.2305,2.2988,0.0,2.3769,2.3418,0.0,0.0,2.1699,2.0917,0.0,0.0,1.8596,1.9185,1.8603,0.0,1.7416,1.7394,1.711,1.6457,1.6339,1.6074,1.5781,1.5781,1.5996,1.6457,1.6211,1.709,1.8691,0.0,1.9336,2.0625,2.0723,2.1016,2.1366,2.1366,2.1307,2.121,2.1327,2.1133,2.0684,2.0293,2.0801,0.0,1.9609,0.0,0.0,0.0,0.0,0.0,1.9023,0.0,0.0,0.0,0.0,0.0,0.0,0.0,0.0,0.0,0.0,0.0,0.0,0.0,0.0,0.0,0.0,0.0,0.0,0.0,0.0,0.0,0.0,0.0,0.0,0.0,0.0,0.0,1.4824,0.0,1.5889,1.7012,1.7773,1.8008,1.9141,1.9863,2.0098,2.1289,2.1953,2.207,2.275,2.3101,2.3101,2.3101,2.3101,2.3101,2.3101,2.3101,2.3101,2.3101,2.3101,2.3101,2.3101,2.3296,2.3652,2.3945,2.4492,2.5106,1.7986,1.7252,1.6843,1.7324,1.7402,1.7832,1.9121,1.9707,2.0449,2.1738,0.0,0.0,0.0,0.0,0.0,0.0,0.0,2.1387,2.1838,0.0,1.8746,0.0,0.0,1.952,0.0,1.8598,1.8631,1.7376,1.6882,1.6668,1.6668,1.6668,1.6914,1.7363,1.7754,1.8887,2.0488,2.0039,2.0859,2.2363,2.1502,2.1465,2.1855,0.0,2.1602,2.1249,2.1719,0.0,0.0,2.2148,2.2441,0.0,0.0,0.0,0.0,0.0,0.0,0.0,0.0,0.0,0.0,1.8909,0.0,0.0,0.0,0.0,1.8912,0.0,0.0,0.0,0.0,0.0,0.0,0.0,0.0,0.0,0.0,0.0,0.0,0.0,0.0,0.0,0.0,0.0,0.0,0.0,1.3899,0.0,1.5391,1.6258,1.7116,1.7988,1.8848,1.9707,2.0566,2.1486,2.209,2.25,2.2886,2.3101,2.3101,2.3101,2.3101,2.3101,2.3101,2.3101,2.3101,2.3101,2.3101,2.3101,2.3101,2.3101,2.312,2.314,2.3984,2.5047,1.8757,1.8155,1.7617,1.7773,1.7793,1.8223,1.9512,2.0566,2.1777,0.0,2.4199,0.0,0.0,2.6641,2.6621,0.0,0.0,2.4336,2.3613,2.1953,0.0,0.0,0.0,1.9982,0.0,0.0,1.881,1.7793,1.7363,1.7012,1.6707,1.6707,1.7077,1.7812,1.7949,1.8809,0.0,0.0,0.0,0.0,0.0,2.25,2.3027,0.0,0.0,2.121,2.1366,2.1327,0.0,2.1894,2.2285,2.2383,2.168,2.1641,2.1738,2.1172,2.1016,0.0,0.0,0.0,2.1191,2.0176,0.0,0.0,0.0,0.0,0.0,0.0,0.0,0.0,0.0,0.0,0.0,0.0,0.0,0.0,0.0,0.0,0.0,0.0,0.0,0.0,0.0,0.0,0.0,1.3086,1.3477,1.3938,0.0,1.5664,1.668,1.7559,1.8691,1.9551,2.0137,2.1309,2.1953,2.2109,2.2769,2.3101,2.3101,2.3101,2.3101,2.3101,2.3101,2.3101,2.3101,2.3101,2.3257,2.3574,2.3574,2.375,2.3945,2.3672,2.4023,2.4707,1.8975,1.872,1.8359,1.8066,1.8262,1.8906,2.0157,2.1621,0.0,0.0,2.5547,0.0,2.8144,0.0,2.8242,0.0,2.7461,2.6309,2.4531,2.3535,0.0,2.1055,2.1172,0.0,0.0,0.0,0.0,0.0,0.0,1.8315,1.7906,1.7712,1.7757,1.8027,1.8477,1.9141,2.0,2.1151,2.1639,0.0,0.0,2.293,0.0,0.0,2.1619,2.1853,0.0,2.1639,2.1717,2.2187,2.2519,2.2574,2.1873,2.207,2.2383,2.168,2.166,2.1894,2.1894,2.1894,0.0,2.0977,2.0469,0.0,1.873,0.0,0.0,0.0,0.0,0.0,0.0,0.0,0.0,0.0,0.0,0.0,0.0,1.5629,0.0,0.0,0.0,0.0,0.0,0.0,1.2915,1.2915,1.3125,1.351,0.0,0.0,1.6339,1.7376,1.8633,1.957,2.0137,2.1309,2.1953,2.2109,2.2769,2.3101,2.3101,2.3101,2.3101,2.3101,2.3101,2.3101,2.3101,2.3101,2.3398,2.3789,2.3789,2.4043,2.4375,2.4121,2.4277,2.4746,1.8785,1.9059,1.9062,1.8281,1.8809,0.0,0.0,0.0,2.4141,0.0,2.6289,2.7441,2.832,2.8418,2.8574,2.8945,2.8613,2.7305,2.4766,2.498,0.0,0.0,2.1953,2.1621,1.9492,0.0,0.0,0.0,0.0,2.0491,2.0152,1.9619,1.8877,1.8135,1.9409,0.0,1.9961,2.1738,2.25,2.2519,2.2539,2.2769,2.3062,2.2266,0.0,2.3101,2.2676,2.2519,2.2578,2.2945,2.3101,2.3023,2.2676,2.2539,2.2461,2.207,2.1953,2.1953,2.1953,2.1953,2.1836,2.1366,0.0,0.0,0.0,0.0,1.9811,0.0,0.0,0.0,0.0,0.0,0.0,0.0,0.0,0.0,0.0,0.0,0.0,0.0,0.0,0.0,0.0,1.2915,1.2915,1.2915,1.2915,1.3242,0.0,0.0,0.0,1.7396,1.8633,1.9744,2.0625,2.1445,2.209,2.2519,2.2906,2.3101,2.3101,2.3101,2.3101,2.3101,2.3101,2.3101,2.312,2.312,2.3437,2.3848,2.3848,2.4102,2.4473,2.4453,2.4727,2.5156,1.9961,1.9909,1.9785,0.0,2.0136,2.0566,0.0,0.0,0.0,0.0,2.7637,2.8887,3.0098,3.0215,3.0137,2.9883,2.9766,0.0,0.0,0.0,0.0,2.4049,2.3926,2.3223,2.1719,2.2109,0.0,2.1513,0.0,0.0,2.1041,2.0522,1.9814,1.9006,0.0,2.0155,1.9065,2.1172,2.2227,2.2539,2.2808,2.3374,0.0,0.0,2.3296,2.3945,2.2891,2.2519,2.2578,2.2945,2.3101,2.3081,2.2964,2.2945,2.2906,2.2808,2.2769,2.2769,2.2769,2.2769,2.2672,2.2285,2.158,2.1194,0.0,0.0,0.0,0.0,0.0,0.0,0.0,0.0,0.0,0.0,0.0,0.0,0.0,0.0,0.0,1.5549,0.0,0.0,0.0,1.2915,1.2915,1.2915,1.2915,1.3242,0.0,0.0,0.0,1.7793,1.8789,1.9863,2.1055,2.1602,2.209,2.2519,2.2906,2.3101,2.3101,2.3101,2.3101,2.3101,2.3101,2.3276,2.3633,2.3633,2.4062,2.4793,2.4793,2.5019,2.5304,2.5019,2.5176,2.5586,2.0535,2.0975,0.0,2.1406,0.0,0.0,2.2969,0.0,0.0,2.6816,2.8125,0.0,2.9941,3.0547,3.0781,3.0527,3.0508,0.0,2.8398,0.0,0.0,2.5204,2.4824,2.3926,2.2266,2.2311,0.0,2.2388,0.0,0.0,2.2647,2.1864,2.0973,1.9973,0.0,2.0394,1.959,2.1406,2.2402,2.2769,2.3003,0.0,0.0,2.3276,2.3393,2.3725,2.3003,2.275,2.2812,2.3023,2.3101,2.3101,2.3101,2.3101,2.3101,2.3101,2.3101,2.3101,2.3101,2.3101,2.3042,2.2808,2.2243,2.2005,2.2929,2.2338,2.1768,0.0,0.0,0.0,0.0,0.0,0.0,0.0,0.0,0.0,0.0,0.0,0.0,0.0,0.0,0.0,0.0,1.3751,1.3367,1.3549,1.3318,0.0,0.0,0.0,0.0,1.7949,1.8848,1.9902,2.119,2.1855,2.2285,2.2519,2.2906,2.3101,2.3101,2.3101,2.3101,2.3101,2.3101,2.3379,2.3789,2.3789,2.4297,2.5125,2.5293,2.5508,2.5654,2.5449,2.5527,2.5693,2.086,2.2031,0.0,0.0,0.0,0.0,0.0,2.5215,0.0,2.7109,0.0,2.918,2.918,3.0195,3.0898,3.0898,0.0,3.0195,2.8574,2.8809,2.791,2.5478,2.5321,2.4343,2.2266,2.2176,0.0,0.0,0.0,0.0,2.4263,2.3242,2.2136,2.0956,0.0,0.0,0.0,2.1836,2.2598,2.2945,2.3042,2.3101,2.3101,2.3101,2.3101,2.3101,2.3101,2.3101,2.3101,2.3101,2.3101,2.3101,2.3101,2.3101,2.3101,2.3101,2.3101,2.3101,2.3101,2.3101,2.3101,2.3101,2.2789,2.2718,2.3472,2.3311,2.3135,2.3743,2.3086,0.0,0.0,0.0,0.0,0.0,0.0,0.0,0.0,0.0,0.0,0.0,0.0,0.0,0.0,0.0,0.0,1.4478,1.3912,0.0,0.0,0.0,0.0,0.0,1.8848,0.0,2.1346,0.0,2.2578,2.2676,2.2945,2.3101,2.3101,2.3101,2.3101,2.3101,2.3101,2.3418,2.3867,2.3809,2.4297,2.5165,2.5566,2.5693,2.5693,2.5693,2.5693,2.5693,2.1701,0.0,0.0,0.0,0.0,2.5488,2.6426,2.7519,2.832,2.8555,2.9726,3.0547,3.0547,3.0762,3.0898,3.0898,3.0898,0.0,0.0,0.0,0.0,2.6758,2.6348,2.5469,2.4004,2.3728,2.3513,0.0,0.0,0.0,2.4208,2.3499,2.267,2.1793,0.0,0.0,2.0644,2.1211,0.0,2.2168,2.2808,2.3101,2.3101,2.3101,2.3101,2.3101,2.3101,2.3101,2.3101,2.3101,2.3101,2.3101,2.3101,2.3101,2.3101,2.3101,2.3101,2.3101,2.3101,2.3101,2.3101,2.3101,2.2789,2.2856,2.4241,2.3987,2.3673,2.4565,2.4063,2.3059,2.1885,0.0,0.0,0.0,0.0,0.0,0.0,0.0,0.0,0.0,0.0,0.0,0.0,0.0,0.0,0.0,0.0,0.0,0.0,0.0,0.0,0.0,0.0,0.0,0.0,0.0,0.0,2.3555,2.3237,2.3101,2.3101,2.3101,2.3101,2.3101,2.3101,2.353,2.4277,2.3926,2.4297,2.5165,2.5566,2.5693,2.5693,2.5693,2.5693,2.5693,0.0,0.0,0.0,0.0,0.0,0.0,0.0,2.9101,0.0,2.9004,2.9473,2.9863,2.9863,3.0488,3.0898,3.0898,3.0664,3.0254,2.9665,2.9355,2.8672,2.7402,2.6738,0.0,2.4453,2.3405,2.3023,2.3282,0.0,0.0,2.4168,2.3351,2.2632,2.197,0.0,2.1093,0.0,0.0,0.0,2.2266,2.2847,2.3101,2.3101,2.3101,2.3101,2.3101,2.3101,2.3101,2.3101,2.3101,2.3101,2.3101,2.3101,2.3101,2.3101,2.3101,2.3101,2.3101,2.3101,2.3101,2.3101,2.3101,2.2945,2.3173,2.449,2.4718,2.4821,2.5615,2.508,2.3988,2.2399,2.0595,0.0,0.0,0.0,0.0,0.0,0.0,0.0,0.0,0.0,0.0,0.0,0.0,0.0,0.0,0.0,0.0,0.0,0.0,0.0,0.0,0.0,0.0,0.0,0.0,0.0,2.3457,2.3198,2.3101,2.3101,2.3101,2.3101,2.3101,2.3101,2.3588,2.4434,2.4687,2.5799,2.7196,2.6108,2.611,2.662,2.5917,2.5693,2.5693,0.0,2.5908,0.0,0.0,2.7578,0.0,2.8867,3.0039,3.0527,2.9473,2.9336,2.9336,2.9336,3.0273,3.0859,3.0762,3.041,2.998,2.9453,2.9101,2.8535,2.7748,2.7012,2.6055,2.4727,2.3203,2.2683,0.0,0.0,0.0,0.0,0.0,0.0,0.0,0.0,0.0,0.0,0.0,2.2519,2.2539,2.2925,2.3101,2.3101,2.3101,2.3101,2.3101,2.3101,2.3101,2.3101,2.3101,2.3101,2.3101,2.3101,2.3101,2.3101,2.3101,2.3101,2.3101,2.3101,2.3101,2.3101,2.3101,2.3101,2.3343,2.4211,2.5119,2.5881,2.607,2.5671,2.4739,2.296,2.163,0.0,0.0,0.0,0.0,0.0,0.0,0.0,0.0,0.0,0.0,0.0,0.0,0.0,0.0,0.0,0.0,0.0,0.0,0.0,0.0,0.0,0.0,2.2012,0.0,2.3271,0.0,2.3513,2.3604,2.38,2.38,2.38,2.38,2.356,2.391,2.4749,2.5859,2.7479,2.9079,2.7226,2.6935,2.7505,2.6744,2.6139,2.5742,0.0,0.0,0.0,0.0,0.0,0.0,0.0,3.0039,3.084,3.0723,3.0703,3.0703,3.0703,3.082,3.0723,3.0293,3.0215,2.9844,2.9043,2.8945,2.8535,2.7748,2.765,2.6934,2.5596,2.4668,2.3834,0.0,0.0,0.0,0.0,0.0,0.0,0.0,0.0,0.0,0.0,2.2148,2.2519,2.2539,2.2925,2.3101,2.3101,2.3101,2.3101,2.3101,2.3101,2.3101,2.3101,2.3101,2.3101,2.3101,2.3101,2.3101,2.3101,2.3101,2.3101,2.3101,2.3101,2.3101,2.3101,2.3101,2.3101,2.3144,2.3212,2.4893,2.6125,2.5184,2.5289,2.5243,2.4284,2.3583,2.2464,0.0,0.0,0.0,0.0,0.0,0.0,0.0,0.0,0.0,0.0,0.0,0.0,0.0,0.0,0.0,0.0,0.0,0.0,0.0,0.0,2.1133,2.2441,2.2867,0.0,2.5176,2.4826,2.5168,2.6193,2.6193,2.6193,2.611,2.5083,2.4952,2.5649,2.7521,2.8522,2.8858,2.9011,2.8448,2.772,2.868,2.7626,2.5927,0.0,0.0,0.0,0.0,0.0,0.0,0.0,3.0547,3.0898,3.0898,3.0898,3.0898,3.0898,3.0644,3.0391,3.0215,2.9726,2.9277,2.8945,2.8691,2.8398,2.8066,2.7865,2.7305,2.6523,2.5391,2.4835,0.0,0.0,0.0,0.0,0.0,0.0,0.0,0.0,2.1543,2.166,2.2266,2.2519,2.2539,2.2925,2.3101,2.3101,2.3101,2.3101,2.3101,2.3101,2.3101,2.3101,2.3101,2.3101,2.3101,2.3101,2.3101,2.3101,2.3101,2.3101,2.3101,2.3101,2.3101,2.3256,2.3973,2.3584,2.3256,2.3953,2.508,2.582,2.5378,2.5991,2.6421,2.5728,2.4255,2.2754,0.0,0.0,0.0,0.0,0.0,0.0,0.0,0.0,0.0,0.0,0.0,0.0,0.0,0.0,0.0,0.0,0.0,0.0,1.8768,0.0,2.1412,2.3104,2.3778,2.4764,2.6061,2.5906,2.6047,2.6524,2.6816,2.7172,2.7464,2.7281,2.772,2.8621,2.897,2.9983,3.1268,2.992,2.9533,2.9715,2.951,2.8481,2.7316,2.9726,0.0,2.918,0.0,2.9902,2.9805,3.0742,3.0898,3.0898,3.0898,3.0898,3.0898,3.0898,3.0586,3.0351,3.0215,2.9648,2.918,2.8945,2.8633,2.8418,2.8301,2.8008,0.0,2.7226,2.6596,2.633,2.6522,2.5722,0.0,0.0,0.0,0.0,0.0,2.2529,2.2148,2.248,2.2891,2.3066,2.3086,2.3262,2.3354,2.3432,2.3198,2.3257,2.3432,2.3179,2.3179,2.3257,2.314,2.3101,2.3101,2.3101,2.3101,2.3101,2.3101,2.3101,2.3101,2.3101,2.3343,2.38,2.4575,2.4211,2.38,2.4617,2.5099,2.5514,2.5984,2.6753,2.7218,2.7027,2.5344,2.363,2.2638,0.0,0.0,0.0,0.0,0.0,0.0,2.022,1.9821,1.9916,0.0,0.0,0.0,0.0,0.0,0.0,0.0,0.0,0.0,0.0,0.0,0.0,0.0,2.5546,2.6953,2.6953,2.7208,2.772,2.8249,2.8564,2.8654,2.9283,2.9973,3.0572,3.0358,3.1368,3.2939,3.1368,3.0918,3.1158,3.1015,3.0049,2.8871,3.0098,3.0176,3.0332,3.0801,3.0879,3.0879,3.0898,3.0898,3.0898,3.0898,3.0898,3.0898,3.0898,3.0879,3.0703,3.0234,3.0176,2.9824,2.8984,2.8906,2.873,0.0,0.0,2.8086,2.7728,2.8542,2.8481,2.7579,0.0,0.0,2.6562,0.0,2.443,2.4745,2.4067,2.3769,2.3789,2.4219,2.4394,2.4355,2.3945,2.4023,2.4316,2.3413,2.3608,2.4297,2.3393,2.3418,2.3711,2.3237,2.3101,2.3101,2.3101,2.3101,2.3101,2.3101,2.3101,2.3101,2.3101,2.393,2.4787,2.4787,2.4787,2.4787,2.4787,2.483,2.527,2.6948,2.7299,2.7444,2.7996,2.7193,2.5724,2.3455,0.0,0.0,0.0,0.0,0.0,0.0,2.0289,1.9901,2.0163,0.0,0.0,0.0,0.0,0.0,0.0,0.0,0.0,2.0348,2.1371,0.0,2.4198,2.4598,2.59,2.8084,2.8084,2.8955,3.0593,3.1094,3.0787,2.9846,3.0935,3.1065,3.0678,3.1727,3.2566,3.3144,3.3627,3.2749,3.1475,3.3781,3.2735,3.0505,3.0644,3.0664,3.0723,3.0859,3.0898,3.0898,3.0898,3.0898,3.0898,3.0898,3.0898,3.0898,3.0898,3.0605,3.0351,0.0,2.9941,2.9648,0.0,2.9355,2.918,2.873,2.8711,2.8516,2.8105,2.9014,2.9558,2.9689,0.0,0.0,0.0,2.7413,2.6534,2.6801,2.4723,2.3945,2.4238,2.4355,2.4414,2.4414,2.4277,2.4297,2.4394,2.4075,2.418,2.4375,2.4102,2.3926,2.3769,2.3633,2.3335,2.3101,2.3101,2.3101,2.3101,2.3101,2.3101,2.3101,2.3101,2.393,2.4999,2.5755,2.5964,2.613,2.6889,2.7052,2.7117,2.7262,2.7886,2.8348,2.8147,2.6966,2.5708,2.4696,0.0,0.0,0.0,0.0,0.0,0.0,0.0,2.099,0.0,2.1247,0.0,0.0,0.0,0.0,0.0,0.0,0.0,0.0,2.2276,0.0,2.5279,2.6436,2.7804,2.9248,2.9618,3.0487,3.1712,3.1863,3.1997,3.2049,3.2414,3.2471,3.2321,3.2664,3.2918,3.3136,3.3269,3.3227,3.3118,3.389,3.3433,3.2534,3.1594,3.1267,3.0898,3.0898,3.0898,3.0898,3.0898,3.0898,3.0898,3.0898,3.0898,3.0898,3.0898,3.0625,0.0,3.0449,3.0215,3.0,2.9824,2.9648,2.9375,2.8945,2.8769,2.877,2.9059,0.0,0.0,3.1771,3.2077,3.2135,3.1972,2.9172,2.8073,2.8322,2.5513,2.4512,2.4902,2.4902,2.4902,2.4902,2.4727,2.4766,2.4836,2.4551,2.4629,2.491,2.5065,2.4749,2.431,2.4451,2.3994,2.3379,2.3379,2.3379,2.3315,2.314,2.3387,2.3627,2.3212,2.4553,2.6108,2.6419,2.6789,2.7075,2.6889,2.7197,2.7388,2.7086,2.7699,2.8398,2.8675,2.7422,2.6166,2.5577,0.0,2.2968,2.2733,0.0,0.0,0.0,0.0,0.0,0.0,2.245,0.0,0.0,0.0,0.0,0.0,0.0,0.0,2.2407,2.3651,0.0,2.6634,2.7827,2.8979,3.0105,3.0859,3.1562,3.2215,3.2441,3.2742,3.3111,3.3111,3.3111,3.3111,3.3111,3.3111,3.3162,3.352,3.3771,3.3972,3.46,3.4598,3.429,3.2964,3.2035,0.0,0.0,3.0937,0.0,3.0898,3.0898,3.0898,3.0898,3.0898,3.0898,3.0898,3.0898,3.0898,3.0898,0.0,0.0,0.0,2.9883,2.9453,2.8984,2.8702,2.9066,3.0276,3.1724,3.2853,3.3625,3.3888,3.3746,3.3126,3.0358,2.9218,2.9393,2.6613,2.5526,2.5771,2.583,2.5879,2.5839,2.5531,2.5638,2.5867,2.5039,2.5236,2.5991,2.6364,2.5956,2.5298,2.5701,2.5013,2.3963,2.3963,2.3963,2.3884,2.3389,2.4013,2.4616,2.3604,2.5672,2.7844,2.683,2.74,2.7643,2.5399,2.5797,2.6565,2.64,2.6909,2.7849,2.9408,2.8411,2.7105,2.6215,2.5354,2.4318,2.2959,0.0,0.0,0.0,0.0,0.0,0.0,2.3398,2.3983,0.0,0.0,0.0,0.0,0.0,2.5024,2.4476,2.543,2.6657,2.8131,2.8712,2.9594,3.0733,3.1738,3.224,3.229,3.2842,3.3111,3.3111,3.3111,3.3111,3.3111,3.3111,3.3111,3.3194,3.4248,3.4374,3.4148,3.5776,3.6006,3.5633,0.0,0.0,3.2587,3.2587,3.1652,3.0898,3.0898,3.0898,3.0898,3.0898,3.0898,3.0898,3.0898,3.0898,3.0898,3.0898,3.0898,3.084,3.0742,3.0625,3.0234,2.9453,3.0322,3.0669,3.0328,3.2655,3.4269,3.504,3.5094,3.4831,3.4279,3.2683,3.1414,3.0491,2.8843,2.756,2.673,2.7345,2.7641,2.7627,2.819,2.8432,2.8519,2.828,2.8324,2.8544,2.8648,2.7721,2.6635,2.7697,2.7015,2.5713,2.5713,2.5713,2.5585,2.4998,2.5049,2.5335,2.5612,2.6871,2.8044,2.7763,2.8569,2.8831,2.6584,2.6953,2.7238,2.5546,2.6635,2.8021,2.8442,2.8174,2.7698,2.7069,2.5752,2.4536,2.3803,0.0,0.0,0.0,2.4402,2.4862,2.5542,2.5319,2.5386,0.0,0.0,0.0,0.0,0.0,2.7358,2.6019,2.7019,2.7914,2.8719,2.9723,3.0767,3.1838,3.2089,3.2441,3.2867,3.3018,3.3111,3.3111,3.3111,3.3111,3.3111,3.3111,3.3111,3.3187,3.3822,3.4274,3.4625,3.5429,3.5906,3.6182,3.5999,3.5123,3.4125,3.4125,3.2871,3.194,3.194,3.1325,3.0898,3.0898,3.0898,3.0898,3.0898,3.0898,3.0898,3.0898,3.0898,3.0898,3.0898,3.0703,3.0539,3.0495,3.1016,3.1571,3.2151,3.3624,3.4896,3.5906,3.5906,3.5755,3.5454,3.395,3.2865,3.2128,3.0599,2.919,2.7965,2.9013,2.8973,2.8277,2.933,2.9597,2.9396,2.9396,2.9396,2.9442,3.0033,2.9284,2.8198,2.9259,2.8633,2.7433,2.7433,2.7433,2.7478,2.7634,2.6998,2.6303,2.6761,2.7853,2.8958,2.9163,2.9698,2.9698,2.8017,2.8035,2.7924,2.5966,2.6912,2.8084,2.8084,2.8082,2.7921,2.7369,2.5887,2.4675,2.4431,2.4155,0.0,2.5084,2.5661,2.6248,2.6826,2.7017,2.7143,2.7253,0.0,0.0,2.8423,2.9227,2.9159,2.8017,2.8797,2.952,3.0033,3.09,3.1763,3.2616,3.2867,3.3144,3.3445,3.3445,3.3445,3.3445,3.3237,3.3111,3.3136,3.3345,3.3445,3.352,3.4349,3.4781,3.5107,3.5705,3.6107,3.6405,3.753,3.6649,3.5563,3.5343,3.4069,3.3021,3.2794,3.171,3.0898,3.0898,3.0898,3.0898,3.0898,3.0898,3.0898,3.0898,3.0898,3.0898,3.0898,3.0527,3.0701,3.1709,3.1517,3.2339,3.4455,3.47,3.5405,3.6531,3.6606,3.6656,3.6584,3.5014,3.4126,3.3863,3.2243,3.0758,2.9579,3.0749,3.0341,2.8962,3.0274,3.0491,3.008,3.008,3.0125,3.0308,3.1181,3.0779,2.9943,3.0703,3.0188,2.9148,2.9148,2.9148,2.9327,3.0252,2.914,2.7657,2.7843,2.8946,3.0156,3.0608,3.0733,3.0428,2.9299,2.9029,2.8598,2.6934,2.7476,2.8179,2.8108,2.8082,2.7946,2.7469,2.6013,2.4901,2.4901,0.0,2.4732,2.5737,2.6474,2.7128,2.772,2.8549,2.8925,2.8624,2.9428,0.0,0.0,3.0482,3.0557,3.0156,3.0532,3.0984,3.1512,3.2139,3.2717,3.3219,3.3746,3.4022,3.4022,3.3947,3.3897,3.3872,3.3319,3.3162,3.3244,3.3696,3.3947,3.4123,3.5107,3.5508,3.5558,3.6157,3.6405,3.6405,3.9077,3.819,3.6757,3.5508,3.4069,3.2701,3.1441,3.1054,3.0898,3.0898,3.0898,3.0898,3.0898,3.0898,3.0898,3.0898,3.0898,3.0898,3.0898,3.082,3.1237,3.2225,3.2878,3.3786,3.5051,3.6211,3.6843,3.7109,3.7513,3.7739,3.7739,3.6992,3.6063,3.496,3.4215,3.3073,3.1812,3.2246,3.2277,3.2066,3.2949,3.3291,3.3217,3.3217,3.3489,3.3761,3.309,3.2313,3.1772,3.2487,3.1874,3.0838,3.0838,3.0838,3.0882,3.1015,3.0501,3.0019,3.0597,3.0941,3.116,3.126,3.126,3.0975,2.9893,2.9642,2.9182,2.7538,2.805,2.8648,2.8179,2.8082,2.8072,2.7996,2.6565,2.5485,2.5485,0.0,2.6348,2.6942,2.7921,2.895,3.0005,2.9829,3.0005,3.0809,3.0633,3.0683,3.111,3.121,3.1436,3.1838,3.1461,3.1537,3.2089,3.3119,3.3671,3.3771,3.4324,3.46,3.4575,3.4123,3.3897,3.3872,3.3319,3.3345,3.3771,3.3872,3.4173,3.465,3.5257,3.5508,3.5558,3.6157,3.6405,3.6405,3.9569,3.9129,3.8477,3.782,3.5954,3.4575,3.4503,3.3555,3.3053,3.3612,3.3223,3.2781,3.2537,3.2438,3.2029,3.0957,3.2322,3.2928,3.215,3.2092,3.2868,3.4657,3.5069,3.5714,3.6676,3.7319,3.7638,3.7638,3.7889,3.8015,3.799,3.7437,3.687,3.6235,3.5696,3.4727,3.3479,3.4342,3.4097,3.3244,3.4304,3.46,3.4349,3.4349,3.45,3.4625,3.3796,3.3319,3.3064,3.3071,3.2698,3.2239,3.2239,3.2435,3.2607,3.2337,3.1804,3.1392,3.1414,3.1386,3.1461,3.1763,3.1838,3.1714,3.123,3.1104,3.0639,2.8996,2.9272,2.9537,2.8681,2.8278,2.8097,2.8097,2.6691,0.0,0.0,2.6524,2.6927,2.8021,2.89,2.9704,3.0532,3.0633,3.0859,3.1361,3.116,3.126,3.1813,3.1838,3.2089,3.2667,3.2441,3.2416,3.2667,3.3495,3.3897,3.3897,3.4731,3.5132,3.5107,3.4856,3.4731,3.4705,3.4198,3.4098,3.4374,3.463,3.4881,3.5182,3.578,3.5981,3.6006,3.6329,3.6405,3.6405,3.9697,3.9697,3.9569,3.9258,3.7594,3.6479,3.7075,3.5847,3.5194,3.596,3.546,3.4853,3.4275,3.4261,3.3639,3.2038,3.3979,3.4958,3.4181,3.4125,3.4945,3.683,3.7076,3.7455,3.7965,3.814,3.8216,3.8216,3.8341,3.8391,3.8391,3.7839,3.7513,3.7337,3.6857,3.5934,3.4921,3.5829,3.5318,3.4052,3.5112,3.5232,3.4881,3.4881,3.5002,3.5027,3.4324,3.4173,3.4198,3.3646,3.3445,3.3445,3.3445,3.3746,3.3997,3.3596,3.3144,3.2667,3.2114,3.2064,3.2265,3.2692,3.2792,3.2792,3.2792,3.2692,3.2229,3.0858,3.0762,3.0692,2.9682,2.8938,2.8549,2.8674,0.0,0.0,0.0,2.7454,2.7731,2.8976,2.9754,3.0382,3.0934,3.1336,3.1637,3.1763,3.1788,3.1964,3.239,3.2416,3.2667,3.3244,3.3269,3.3269,3.3269,3.3947,3.4274,3.4299,3.5278,3.5683,3.5683,3.5558,3.5508,3.5458,3.4906,3.4756,3.4906,3.5332,3.5583,3.578,3.6207,3.6405,3.6405,3.6405,3.6405,3.6405,3.9697,3.9697,3.9258,3.7902,3.7501,3.7129,3.6284,3.6084,3.6016,3.6084,3.6488,3.6307,3.5335,3.5647,3.5658,3.5002,3.5178,3.5836,3.7079,3.7186,3.7293,3.7405,3.8251,3.8492,3.8015,3.8542,3.8818,3.8818,3.932,3.9572,3.9546,3.9019,3.8467,3.7914,3.7362,3.6787,3.6238,3.5759,3.5487,3.5344,3.5462,3.5483,3.5433,3.5433,3.5805,3.6153,3.5052,3.4956,3.5282,3.4731,3.46,3.46,3.46,3.4625,3.4605,3.458,3.4575,3.4424,3.3872,3.4098,3.45,3.4525,3.455,3.455,3.455,3.4148,3.3621,3.2982,3.2449,3.1897,3.1329,3.0367,2.9829,3.0357,0.0,0.0,2.8687,2.9227,2.9603,2.9704,3.0633,3.1486,3.2039,3.2139,3.2365,3.2918,3.2943,3.3011,3.3061,3.3018,3.3269,3.3822,3.3847,3.3847,3.3847,3.4856,3.5382,3.5382,3.6031,3.6355,3.6329,3.578,3.5508,3.5458,3.4906,3.4956,3.5433,3.5483,3.5855,3.6355,3.638,3.6405,3.6405,3.6405,3.6405,3.6405,3.9697,3.9697,3.9642,3.9417,3.8833,3.8609,3.9231,3.906,3.9141,3.9785,3.9495,3.8951,3.8274,3.8008,3.7284,3.5893,3.7183,3.7873,3.753,3.8348,3.8844,3.8844,3.9214,3.927,3.9069,3.927,3.9371,3.9371,3.9597,3.9697,3.9697,3.912,3.8793,3.8517,3.7939,3.7387,3.686,3.6659,3.6358,3.6056,3.6056,3.6056,3.6056,3.6056,3.6182,3.6304,3.5504,3.5332,3.5408,3.4856,3.468,3.468,3.468,3.4906,3.5182,3.5182,3.5182,3.5132,3.4931,3.4781,3.468,3.468,3.468,3.468,3.468,3.455,3.4248,3.3696,3.3144,3.2566,3.2014,3.1035,3.0482,3.1009,0.0,2.9453,3.0331,3.0357,3.0432,3.0733,3.1436,3.1989,3.219,3.2541,3.2993,3.3545,3.3269,3.337,3.4073,3.4098,3.4198,3.4399,3.4751,3.4705,3.4399,3.5132,3.5508,3.5508,3.6107,3.6405,3.6405,3.6132,3.6056,3.6031,3.583,3.5855,3.6056,3.6056,3.6182,3.6405,3.6405,3.6405,3.6405,3.6405,3.6405,3.6405,3.9923,3.9948,4.0124,4.0676,4.0144,4.0111,4.1393,4.1299,4.1338,4.2073,4.1692,4.1096,4.0474,4.0151,3.9275,3.7652,3.8994,3.9432,3.8267,3.9129,3.9697,3.9697,3.9697,3.9697,3.9697,3.9697,3.9697,3.9697,3.9697,3.9697,3.9697,3.9295,3.9044,3.8894,3.8467,3.7965,3.7437,3.7437,3.7236,3.6885,3.6885,3.6832,3.6681,3.6857,3.6707,3.638,3.6132,3.5956,3.5755,3.5353,3.5228,3.5228,3.5228,3.5504,3.5805,3.5805,3.5805,3.583,3.5959,3.5655,3.5228,3.5228,3.5228,3.5228,3.5228,3.5102,3.4831,3.45,3.3972,3.347,3.3068,3.2265,3.1712,3.1888,3.1311,3.1009,3.1562,3.1512,3.1512,3.1888,3.224,3.2491,3.2491,3.2842,3.3294,3.3847,3.3545,3.3746,3.4675,3.4831,3.4931,3.4931,3.5504,3.5629,3.5253,3.5604,3.5805,3.5805,3.6182,3.6405,3.6405,3.6405,3.6405,3.6405,3.6405,3.6405,3.6405,3.6405,3.6405,3.6405,3.6405,3.6405,3.6405,3.6405,3.6405,3.6405,4.0425,4.0526,4.0701,4.12,4.13,4.153,4.2137,4.2213,4.2213,4.2213,4.269,4.2559,4.1426,4.1831,4.1706,4.0626,4.0526,4.03,3.9747,3.9697,3.9697,3.9697,3.9697,3.9697,3.9697,3.9697,3.9697,3.9697,3.9697,3.9697,3.9697,3.9697,3.9396,3.8919,3.8919,3.8567,3.8015,3.8015,3.8015,3.8015,3.8015,3.7688,3.7236,3.7789,3.7337,3.648,3.6985,3.6835,3.643,3.643,3.6405,3.6405,3.6405,3.6405,3.6405,3.6405,3.6405,3.6531,3.7036,3.6784,3.6405,3.6405,3.6405,3.6405,3.6405,3.5956,3.5508,3.5508,3.5056,3.468,3.468,3.4274,3.3721,3.3212,3.3093,3.2893,3.2315,3.2742,3.3093,3.3093,3.3093,3.3136,3.3136,3.3136,3.3319,3.3872,3.3922,3.4148,3.47,3.5207,3.5508,3.5508,3.6081,3.6405,3.6405,3.6405,3.6405,3.6405,3.6405,3.6405,3.6405,3.6405,3.6405,3.6405,3.6405,3.6405,3.6405,3.6405,3.6405,3.6405,3.6405,3.6405,3.6405,3.6405,3.6405,3.6405,4.1,4.105,4.1279,4.1806,4.1907,4.2108,4.2715,4.2791,4.2791,4.2791,4.2886,4.2861,4.2534,4.2338,4.2087,4.1706,4.1329,4.0799,4.03,4.0275,4.0099,3.9722,3.9697,3.9697,3.9697,3.9697,3.9697,3.9697,3.9697,3.9697,3.9697,3.9697,3.9597,3.9446,3.9446,3.9145,3.8617,3.8617,3.8391,3.8015,3.8015,3.7914,3.7789,3.7939,3.7789,3.7538,3.7688,3.7663,3.7513,3.7513,3.7262,3.6935,3.6935,3.6935,3.6935,3.6935,3.7211,3.7462,3.7236,3.7337,3.7412,3.7036,3.6707,3.6405,3.6405,3.6279,3.6006,3.5583,3.5357,3.5132,3.4756,3.46,3.4424,3.4248,3.4223,3.4173,3.3997,3.4123,3.4223,3.4223,3.4223,3.4073,3.3696,3.3997,3.4299,3.4474,3.5203,3.5529,3.5257,3.5805,3.6107,3.6107,3.6329,3.6405,3.6405,3.6405,3.6405,3.6405,3.6405,3.6405,3.6405,3.6405,3.6405,3.6405,3.6405,3.6405,3.6405,3.6405,3.6405,3.6405,3.6405,3.6405,3.6405,3.6405,3.6405,3.6405,4.163,4.1656,4.1831,4.2439,4.2539,4.264,4.2936,4.2986,4.2986,4.2986,4.2986,4.2986,4.2986,4.274,4.2439,4.2238,4.1656,4.115,4.0852,4.0852,4.0601,4.0049,4.0023,3.9923,3.9697,3.9697,3.9697,3.9697,3.9697,3.9697,3.9697,3.9697,3.9697,3.9697,3.9697,3.9496,3.9195,3.9195,3.8994,3.8668,3.8668,3.8542,3.8366,3.8592,3.8391,3.804,3.8266,3.8191,3.8015,3.8015,3.7789,3.7513,3.7513,3.7513,3.7513,3.7513,3.7739,3.799,3.7889,3.7914,3.799,3.7889,3.7437,3.7008,3.6782,3.6908,3.686,3.6307,3.6182,3.6031,3.5479,3.5378,3.5303,3.5031,3.5228,3.5303,3.5031,3.5006,3.5006,3.5006,3.4806,3.46,3.4248,3.4525,3.4781,3.4981,3.5855,3.6254,3.5881,3.6182,3.6405,3.6405,3.6405,3.6405,3.6405,3.6405,3.6405,3.6405,3.6405,3.6405,3.6405,3.6405,3.6405,3.6405,3.6405,3.6405,3.6405,3.6405,3.6405,3.6405,3.6405,3.6405,3.6405,3.6405,3.6405,3.6405,4.2187,4.2288,4.2439,4.2886,4.2986,4.2986,4.2986,4.2986,4.2986,4.2986,4.2986,4.2986,4.2986,4.2986,4.2816,4.2313,4.1731,4.1351,4.1351,4.1351,4.1153,4.0626,4.0626,4.04,3.9848,3.9747,3.9697,3.9697,3.9697,3.9697,3.9697,3.9697,3.9697,3.9697,3.9697,3.9697,3.9697,3.9697,3.9697,3.9697,3.9697,3.9396,3.8994,3.9496,3.9044,3.8216,3.8743,3.8617,3.814,3.809,3.809,3.809,3.809,3.809,3.809,3.809,3.8115,3.8266,3.8743,3.8517,3.8266,3.8743,3.8517,3.799,3.7387,3.7638,3.7864,3.7362,3.7262,3.7086,3.6581,3.648,3.6257,3.5658,3.6031,3.6182,3.5633,3.5583,3.5583,3.5583,3.5132,3.4851,3.4801,3.4756,3.4981,3.5533,3.6081,3.6405,3.6405,3.6405,3.6405,3.6405,3.6405,3.6405,3.6405,3.6405,3.6405,3.6405,3.6405,3.6405,3.6405,3.6405,3.6405,3.6405,3.6405,3.6405,3.6405,3.6405,3.6405,3.6405,3.6405,3.6405,3.6405,3.6405,3.6405,3.6405,4.2785,4.2866,4.2836,4.2961,4.2986,4.2986,4.2986,4.2986,4.2986,4.2986,4.2986,4.2986,4.2986,4.2986,4.2936,4.2811,4.2283,4.1982,4.1982,4.1982,4.1731,4.1125,4.158,4.1555,4.1003,4.0149,3.9697,3.9697,3.9697,3.9697,3.9697,3.9697,3.9697,3.9697,3.9697,3.9697,3.9697,3.9697,3.9697,3.9697,3.9697,3.9622,3.9521,3.9647,3.9546,3.9346,3.9471,3.9446,3.927,3.8818,3.8668,3.8668,3.8668,3.8668,3.8668,3.8668,3.8994,3.927,3.8994,3.9094,3.9245,3.8994,3.9094,3.9069,3.8065,3.7914,3.7965,3.7839,3.7839,3.7663,3.7111,3.7059,3.6835,3.6282,3.6329,3.6355,3.6207,3.6182,3.6182,3.6182,3.6081,3.583,3.5357,3.5332,3.5558,3.6132,3.6355,3.6405,3.6405,3.6405,3.6405,3.6405,3.6405,3.6405,3.6405,3.6405,3.6405,3.6405,3.6405,3.6405,3.6405,3.6405,3.6405,3.6405,3.6405,3.6405,3.6405,3.6405,3.6405,3.6405,3.6405,3.6405,3.6405,3.6405,3.6405,3.6405,4.2986,4.2986,4.2986,4.2986,4.2986,4.2986,4.2986,4.2986,4.2986,4.2986,4.2986,4.2986,4.2986,4.2986,4.2986,4.2986,4.271,4.2615,4.2615,4.2615,4.2363,4.1756,4.2062,4.1907,4.13,4.0777,4.035,4.0099,4.0099,3.9948,3.9697,3.9697,3.9697,3.9697,3.9697,3.9697,3.9697,3.9697,3.9697,3.9697,3.9697,3.9697,3.9697,3.9697,3.9697,3.9697,3.9697,3.9697,3.9647,3.9371,3.927,3.927,3.927,3.927,3.927,3.927,3.9471,3.9622,3.9346,3.9471,3.9622,3.932,3.9471,3.9471,3.8617,3.8617,3.8743,3.8467,3.8417,3.8241,3.7688,3.7588,3.7387,3.6883,3.6807,3.6707,3.6455,3.6405,3.6405,3.6405,3.6405,3.6304,3.5956,3.5931,3.6056,3.638,3.6405,3.6405,3.6405,3.6405,3.6405,3.6405,3.6405,3.6405,3.6405,3.6405,3.6405,3.6405,3.6405,3.6405,3.6405,3.6405,3.6405,3.6405,3.6405,3.6405,3.6405,3.6405,3.6405,3.6405,3.6405,3.6405,3.6405,3.6405,3.6405,3.6455,4.2986,4.2986,4.2986,4.2986,4.2986,4.2986,4.2986,4.2986,4.2986,4.2986,4.2986,4.2986,4.2986,4.2986,4.2986,4.2986,4.2986,4.2986,4.2986,4.2986,4.2816,4.2363,4.2363,4.2082,4.1576,4.1551,4.1254,4.0526,4.0526,4.0249,3.9697,3.9697,3.9697,3.9697,3.9697,3.9697,3.9697,3.9697,3.9697,3.9697,3.9697,3.9697,3.9697,3.9697,3.9697,3.9697,3.9697,3.9697,3.9697,3.9697,3.9697,3.9697,3.9697,3.9697,3.9697,3.9697,3.9697,3.9697,3.9697,3.9697,3.9697,3.9697,3.9697,3.9572,3.912,3.9371,3.9572,3.912,3.907,3.8843,3.8266,3.814,3.7965,3.7412,3.7337,3.7161,3.6757,3.6606,3.6581,3.6681,3.6606,3.6556,3.6556,3.6455,3.6405,3.6405,3.6405,3.6405,3.6405,3.6405,3.6405,3.6405,3.6505,3.6505,3.6405,3.6505,3.6505,3.6405,3.6405,3.6405,3.6405,3.6405,3.6405,3.6405,3.6405,3.6405,3.6405,3.6405,3.6405,3.6405,3.6405,3.6405,3.6405,3.6405,3.6405,3.648,4.2986,4.2986,4.2986,4.2986,4.2986,4.2986,4.2986,4.2986,4.2986,4.2986,4.2986,4.2986,4.2986,4.2986,4.2986,4.2986,4.2986,4.2986,4.2986,4.2986,4.2936,4.2861,4.2861,4.2836,4.276,4.276,4.2007,4.0526,4.0526,4.0249,3.9697,3.9697,3.9697,3.9697,3.9697,3.9697,3.9697,3.9697,3.9697,3.9697,3.9697,3.9697,3.9697,3.9697,3.9697,3.9697,3.9697,3.9697,3.9697,3.9697,3.9697,3.9697,3.9697,3.9697,3.9697,3.9697,3.9697,3.9697,3.9697,3.9697,3.9697,3.9697,3.9697,3.9672,3.9597,3.9647,3.9672,3.9597,3.9572,3.9421,3.8868,3.8793,3.8567,3.799,3.7889,3.7864,3.7789,3.7362,3.7236,3.7739,3.7362,3.7061,3.7061,3.6681,3.6405,3.6405,3.6405,3.6405,3.6405,3.6405,3.6405,3.6405,3.6883,3.6883,3.6405,3.6835,3.6883,3.6405,3.6405,3.6405,3.6405,3.6405,3.6405,3.6405,3.6405,3.6405,3.6405,3.6405,3.6405,3.6405,3.6405,3.6405,3.6405,3.6405,3.6405,3.6405,4.2986,4.2986,4.2986,4.2986,4.2986,4.2986,4.2986,4.2986,4.2986,4.2986,4.2986,4.2986,4.2986,4.2986,4.2986,4.2986,4.2986,4.2986,4.2986,4.2986,4.2986,4.2986,4.2986,4.2986,4.2986,4.2986,4.2459,4.143,4.143,4.1003,4.0149,4.0149,3.9998,3.9697,3.9697,3.9697,3.9697,3.9697,3.9697,3.9697,3.9697,3.9697,3.9697,3.9697,3.9697,3.9697,3.9697,3.9697,3.9697,3.9697,3.9697,3.9697,3.9697,3.9697,3.9697,3.9697,3.9697,3.9697,3.9697,3.9697,3.9697,3.9697,3.9697,3.9697,3.9697,3.9697,3.9697,3.9697,3.9697,3.9622,3.9371,3.932,3.9145,3.8592,3.8492,3.8391,3.804,3.7789,3.7613,3.7563,3.7613,3.7387,3.6832,3.6832,3.6883,3.6883,3.6581,3.6531,3.6857,3.6581,3.6556,3.6857,3.6807,3.6807,3.6883,3.6807,3.6656,3.6405,3.6405,3.6405,3.6405,3.6405,3.6405,3.6405,3.6405,3.6405,3.6405,3.6405,3.6405,3.6405,3.6405,3.6405,3.648,3.7061,3.7086,3.6958]}]]